Wetterdaten: aktuell Samstag, 03.06.2023 17:34
Datum Zeit Temp. A. Feuchte A. Luftdruck Regen Wind Richtung Richtung Sonnenschein ET UV Solar Taupunkt Windchill Windben Empfang
03.06.2023 17:34 18,8 C 46 % 1017,9 hPa 0,0 l/m 4,8 km/h (1 Bft) N 360 1 min 0,000 mm 1,5 UV-I 480 W/m 6,9 C 18,8 C 8,0 km/h (2 Bft) 91,30 %
03.06.2023 17:33 18,8 C 45 % 1017,9 hPa 0,0 l/m 3,2 km/h (1 Bft) W 270 1 min 0,000 mm 1,5 UV-I 482 W/m 6,6 C 18,8 C 4,8 km/h (1 Bft) 91,30 %
03.06.2023 17:32 18,8 C 46 % 1017,9 hPa 0,0 l/m 4,8 km/h (1 Bft) O-SO 112 1 min 0,000 mm 1,6 UV-I 483 W/m 6,9 C 18,8 C 11,3 km/h (2 Bft) 100,00 %
03.06.2023 17:31 18,8 C 45 % 1017,9 hPa 0,0 l/m 1,6 km/h (1 Bft) O 90 1 min 0,000 mm 1,6 UV-I 489 W/m 6,6 C 18,8 C 4,8 km/h (1 Bft) 100,00 %
03.06.2023 17:30 18,9 C 44 % 1017,9 hPa 0,0 l/m 1,6 km/h (1 Bft) O-SO 112 1 min 0,000 mm 1,6 UV-I 492 W/m 6,4 C 18,9 C 4,8 km/h (1 Bft) 100,00 %
03.06.2023 17:29 18,9 C 45 % 1017,9 hPa 0,0 l/m 3,2 km/h (1 Bft) O-SO 112 1 min 0,000 mm 1,6 UV-I 494 W/m 6,7 C 18,9 C 6,4 km/h (2 Bft) 100,00 %
03.06.2023 17:28 18,9 C 46 % 1017,8 hPa 0,0 l/m 1,6 km/h (1 Bft) N 360 1 min 0,000 mm 1,6 UV-I 496 W/m 7,0 C 18,9 C 4,8 km/h (1 Bft) 100,00 %
03.06.2023 17:27 18,9 C 48 % 1017,9 hPa 0,0 l/m 3,2 km/h (1 Bft) O-NO 67 1 min 0,000 mm 1,7 UV-I 499 W/m 7,6 C 18,9 C 6,4 km/h (2 Bft) 95,65 %
03.06.2023 17:26 18,9 C 49 % 1017,8 hPa 0,0 l/m 9,7 km/h (2 Bft) SO 135 1 min 0,000 mm 1,7 UV-I 499 W/m 7,9 C 18,9 C 14,5 km/h (3 Bft) 100,00 %
03.06.2023 17:25 18,8 C 48 % 1017,9 hPa 0,0 l/m 6,4 km/h (2 Bft) SO 135 1 min 0,000 mm 1,7 UV-I 504 W/m 7,6 C 18,8 C 12,9 km/h (3 Bft) 95,65 %
03.06.2023 17:24 18,7 C 47 % 1017,9 hPa 0,0 l/m 4,8 km/h (1 Bft) O-SO 112 1 min 0,000 mm 1,7 UV-I 508 W/m 7,2 C 18,7 C 6,4 km/h (2 Bft) 100,00 %
03.06.2023 17:23 18,7 C 46 % 1017,8 hPa 0,0 l/m 4,8 km/h (1 Bft) O 90 1 min 0,000 mm 1,8 UV-I 508 W/m 6,8 C 18,7 C 14,5 km/h (3 Bft) 100,00 %
03.06.2023 17:22 18,8 C 45 % 1017,9 hPa 0,0 l/m 9,7 km/h (2 Bft) N-NO 22 1 min 0,000 mm 1,8 UV-I 512 W/m 6,6 C 18,8 C 17,7 km/h (3 Bft) 100,00 %
03.06.2023 17:21 18,9 C 46 % 1017,9 hPa 0,0 l/m 6,4 km/h (2 Bft) N-NO 22 1 min 0,000 mm 1,8 UV-I 513 W/m 7,0 C 18,9 C 14,5 km/h (3 Bft) 100,00 %
03.06.2023 17:20 18,8 C 45 % 1017,8 hPa 0,0 l/m 3,2 km/h (1 Bft) O 90 1 min 0,000 mm 1,9 UV-I 520 W/m 6,6 C 18,8 C 4,8 km/h (1 Bft) 95,65 %
03.06.2023 17:19 18,9 C 45 % 1017,8 hPa 0,0 l/m 3,2 km/h (1 Bft) O 90 1 min 0,000 mm 1,9 UV-I 522 W/m 6,7 C 18,9 C 6,4 km/h (2 Bft) 100,00 %
03.06.2023 17:18 18,9 C 47 % 1017,8 hPa 0,0 l/m 3,2 km/h (1 Bft) N-NW 337 1 min 0,000 mm 1,9 UV-I 526 W/m 7,3 C 18,9 C 6,4 km/h (2 Bft) 100,00 %
03.06.2023 17:17 18,9 C 47 % 1017,8 hPa 0,0 l/m 4,8 km/h (1 Bft) SO 135 1 min 0,000 mm 2,0 UV-I 529 W/m 7,3 C 18,9 C 8,0 km/h (2 Bft) 100,00 %
03.06.2023 17:16 18,8 C 47 % 1017,9 hPa 0,0 l/m 6,4 km/h (2 Bft) O-SO 112 1 min 0,000 mm 2,0 UV-I 531 W/m 7,2 C 18,8 C 9,7 km/h (2 Bft) 100,00 %
03.06.2023 17:15 18,8 C 47 % 1017,9 hPa 0,0 l/m 3,2 km/h (1 Bft) S-SO 157 1 min 0,000 mm 2,0 UV-I 533 W/m 7,2 C 18,8 C 4,8 km/h (1 Bft) 100,00 %
03.06.2023 17:14 18,8 C 47 % 1018,0 hPa 0,0 l/m 6,4 km/h (2 Bft) NW 315 1 min 0,000 mm 2,1 UV-I 540 W/m 7,2 C 18,8 C 14,5 km/h (3 Bft) 100,00 %
03.06.2023 17:13 18,8 C 47 % 1018,0 hPa 0,0 l/m 4,8 km/h (1 Bft) S-SO 157 1 min 0,000 mm 2,1 UV-I 540 W/m 7,2 C 18,8 C 8,0 km/h (2 Bft) 95,65 %
03.06.2023 17:12 18,8 C 45 % 1018,0 hPa 0,0 l/m 6,4 km/h (2 Bft) NO 45 1 min 0,000 mm 2,1 UV-I 543 W/m 6,6 C 18,8 C 11,3 km/h (2 Bft) 95,65 %
03.06.2023 17:11 18,9 C 44 % 1018,0 hPa 0,0 l/m 3,2 km/h (1 Bft) N 360 1 min 0,000 mm 2,1 UV-I 547 W/m 6,4 C 18,9 C 6,4 km/h (2 Bft) 100,00 %
03.06.2023 17:10 18,9 C 45 % 1018,0 hPa 0,0 l/m 3,2 km/h (1 Bft) N-NO 22 1 min 0,000 mm 2,1 UV-I 548 W/m 6,7 C 18,9 C 6,4 km/h (2 Bft) 100,00 %
03.06.2023 17:09 19,1 C 46 % 1018,0 hPa 0,0 l/m 4,8 km/h (1 Bft) N-NW 337 1 min 0,000 mm 2,2 UV-I 550 W/m 7,2 C 19,1 C 11,3 km/h (2 Bft) 100,00 %
03.06.2023 17:08 19,1 C 46 % 1018,1 hPa 0,0 l/m 4,8 km/h (1 Bft) O-NO 67 1 min 0,000 mm 2,2 UV-I 552 W/m 7,2 C 19,1 C 12,9 km/h (3 Bft) 100,00 %
03.06.2023 17:07 19,1 C 46 % 1018,1 hPa 0,0 l/m 4,8 km/h (1 Bft) S-SO 157 1 min 0,000 mm 2,2 UV-I 554 W/m 7,2 C 19,1 C 6,4 km/h (2 Bft) 100,00 %
03.06.2023 17:06 19,1 C 48 % 1018,0 hPa 0,0 l/m 3,2 km/h (1 Bft) O-SO 112 1 min 0,000 mm 2,2 UV-I 555 W/m 7,8 C 19,1 C 4,8 km/h (1 Bft) 95,65 %
03.06.2023 17:05 19,1 C 46 % 1018,0 hPa 0,0 l/m 8,0 km/h (2 Bft) O-SO 112 1 min 0,000 mm 2,2 UV-I 559 W/m 7,2 C 19,1 C 12,9 km/h (3 Bft) 100,00 %
03.06.2023 17:04 19,1 C 46 % 1018,0 hPa 0,0 l/m 8,0 km/h (2 Bft) O-SO 112 1 min 0,000 mm 2,2 UV-I 561 W/m 7,2 C 19,1 C 12,9 km/h (3 Bft) 100,00 %
03.06.2023 17:03 19,2 C 45 % 1018,0 hPa 0,0 l/m 9,7 km/h (2 Bft) O-SO 112 1 min 0,000 mm 2,3 UV-I 563 W/m 7,0 C 19,2 C 16,1 km/h (3 Bft) 100,00 %
03.06.2023 17:02 19,2 C 47 % 1018,0 hPa 0,0 l/m 3,2 km/h (1 Bft) O-NO 67 1 min 0,000 mm 2,3 UV-I 570 W/m 7,6 C 19,2 C 8,0 km/h (2 Bft) 95,65 %
03.06.2023 17:01 19,2 C 47 % 1018,0 hPa 0,0 l/m 4,8 km/h (1 Bft) O-SO 112 1 min 0,000 mm 2,3 UV-I 570 W/m 7,6 C 19,2 C 9,7 km/h (2 Bft) 100,00 %
03.06.2023 17:00 19,3 C 46 % 1018,0 hPa 0,0 l/m 6,4 km/h (2 Bft) O 90 1 min 0,406 mm 2,3 UV-I 573 W/m 7,4 C 19,3 C 17,7 km/h (3 Bft) 95,65 %
03.06.2023 16:59 19,2 C 47 % 1018,0 hPa 0,0 l/m 4,8 km/h (1 Bft) SO 135 1 min 0,000 mm 2,3 UV-I 575 W/m 7,6 C 19,2 C 8,0 km/h (2 Bft) 95,65 %
03.06.2023 16:58 19,2 C 47 % 1018,0 hPa 0,0 l/m 4,8 km/h (1 Bft) N-NO 22 1 min 0,000 mm 2,4 UV-I 577 W/m 7,6 C 19,2 C 8,0 km/h (2 Bft) 100,00 %
03.06.2023 16:57 19,2 C 46 % 1018,0 hPa 0,0 l/m 3,2 km/h (1 Bft) S-SW 202 1 min 0,000 mm 2,4 UV-I 578 W/m 7,3 C 19,2 C 9,7 km/h (2 Bft) 100,00 %
03.06.2023 16:56 19,1 C 49 % 1018,1 hPa 0,0 l/m 3,2 km/h (1 Bft) S-SO 157 1 min 0,000 mm 2,4 UV-I 584 W/m 8,1 C 19,1 C 6,4 km/h (2 Bft) 95,65 %
03.06.2023 16:55 19,1 C 48 % 1018,1 hPa 0,0 l/m 3,2 km/h (1 Bft) NW 315 1 min 0,000 mm 2,4 UV-I 584 W/m 7,8 C 19,1 C 4,8 km/h (1 Bft) 100,00 %
03.06.2023 16:54 19,1 C 47 % 1018,0 hPa 0,0 l/m 4,8 km/h (1 Bft) NO 45 1 min 0,000 mm 2,4 UV-I 587 W/m 7,5 C 19,1 C 9,7 km/h (2 Bft) 95,65 %
03.06.2023 16:53 18,9 C 45 % 1018,1 hPa 0,0 l/m 4,8 km/h (1 Bft) SO 135 1 min 0,000 mm 2,4 UV-I 587 W/m 6,7 C 18,9 C 9,7 km/h (2 Bft) 100,00 %
03.06.2023 16:52 19,0 C 46 % 1018,1 hPa 0,0 l/m 3,2 km/h (1 Bft) S-SO 157 1 min 0,000 mm 2,5 UV-I 589 W/m 7,1 C 19,0 C 6,4 km/h (2 Bft) 95,65 %
03.06.2023 16:51 19,0 C 47 % 1017,9 hPa 0,0 l/m 3,2 km/h (1 Bft) O-NO 67 1 min 0,000 mm 2,5 UV-I 592 W/m 7,4 C 19,0 C 4,8 km/h (1 Bft) 95,65 %
03.06.2023 16:50 19,0 C 49 % 1018,1 hPa 0,0 l/m 4,8 km/h (1 Bft) N 360 1 min 0,000 mm 2,5 UV-I 598 W/m 8,0 C 19,0 C 12,9 km/h (3 Bft) 100,00 %
03.06.2023 16:49 19,0 C 45 % 1018,0 hPa 0,0 l/m 3,2 km/h (1 Bft) NO 45 1 min 0,000 mm 2,5 UV-I 599 W/m 6,8 C 19,0 C 9,7 km/h (2 Bft) 100,00 %
03.06.2023 16:48 19,1 C 46 % 1018,1 hPa 0,0 l/m 3,2 km/h (1 Bft) N-NW 337 1 min 0,000 mm 2,6 UV-I 605 W/m 7,2 C 19,1 C 11,3 km/h (2 Bft) 100,00 %
03.06.2023 16:47 19,1 C 46 % 1018,2 hPa 0,0 l/m 4,8 km/h (1 Bft) O-SO 112 1 min 0,000 mm 2,6 UV-I 606 W/m 7,2 C 19,1 C 9,7 km/h (2 Bft) 100,00 %
03.06.2023 16:46 19,1 C 47 % 1018,1 hPa 0,0 l/m 4,8 km/h (1 Bft) O 90 1 min 0,000 mm 2,6 UV-I 608 W/m 7,5 C 19,1 C 14,5 km/h (3 Bft) 95,65 %
03.06.2023 16:45 19,1 C 49 % 1018,2 hPa 0,0 l/m 3,2 km/h (1 Bft) N-NW 337 1 min 0,000 mm 2,6 UV-I 610 W/m 8,1 C 19,1 C 8,0 km/h (2 Bft) 95,65 %
03.06.2023 16:44 19,0 C 49 % 1018,2 hPa 0,0 l/m 4,8 km/h (1 Bft) N-NW 337 1 min 0,000 mm 2,6 UV-I 613 W/m 8,0 C 19,0 C 9,7 km/h (2 Bft) 100,00 %
03.06.2023 16:43 19,0 C 46 % 1018,2 hPa 0,0 l/m 4,8 km/h (1 Bft) W 270 1 min 0,000 mm 2,7 UV-I 615 W/m 7,1 C 19,0 C 8,0 km/h (2 Bft) 100,00 %
03.06.2023 16:42 19,1 C 48 % 1018,1 hPa 0,0 l/m 4,8 km/h (1 Bft) O-NO 67 1 min 0,000 mm 2,7 UV-I 617 W/m 7,8 C 19,1 C 12,9 km/h (3 Bft) 100,00 %
03.06.2023 16:41 19,0 C 46 % 1018,1 hPa 0,0 l/m 3,2 km/h (1 Bft) N-NO 22 1 min 0,000 mm 2,7 UV-I 619 W/m 7,1 C 19,0 C 4,8 km/h (1 Bft) 100,00 %
03.06.2023 16:40 19,0 C 45 % 1018,2 hPa 0,0 l/m 4,8 km/h (1 Bft) O-SO 112 1 min 0,000 mm 2,7 UV-I 621 W/m 6,8 C 19,0 C 8,0 km/h (2 Bft) 100,00 %
03.06.2023 16:39 19,0 C 46 % 1018,2 hPa 0,0 l/m 4,8 km/h (1 Bft) O-SO 112 1 min 0,000 mm 2,7 UV-I 624 W/m 7,1 C 19,0 C 11,3 km/h (2 Bft) 100,00 %
03.06.2023 16:38 19,0 C 45 % 1018,1 hPa 0,0 l/m 3,2 km/h (1 Bft) SO 135 1 min 0,000 mm 2,8 UV-I 628 W/m 6,8 C 19,0 C 4,8 km/h (1 Bft) 95,65 %
03.06.2023 16:37 19,1 C 47 % 1018,1 hPa 0,0 l/m 4,8 km/h (1 Bft) SO 135 1 min 0,000 mm 2,8 UV-I 631 W/m 7,5 C 19,1 C 9,7 km/h (2 Bft) 100,00 %
03.06.2023 16:36 18,9 C 45 % 1018,1 hPa 0,0 l/m 4,8 km/h (1 Bft) O 90 1 min 0,000 mm 2,8 UV-I 633 W/m 6,7 C 18,9 C 6,4 km/h (2 Bft) 95,65 %
03.06.2023 16:35 19,0 C 49 % 1018,2 hPa 0,0 l/m 4,8 km/h (1 Bft) O-SO 112 1 min 0,000 mm 2,8 UV-I 635 W/m 8,0 C 19,0 C 11,3 km/h (2 Bft) 100,00 %
03.06.2023 16:34 19,0 C 47 % 1018,1 hPa 0,0 l/m 3,2 km/h (1 Bft) O-SO 112 1 min 0,000 mm 2,8 UV-I 636 W/m 7,4 C 19,0 C 9,7 km/h (2 Bft) 100,00 %
03.06.2023 16:33 19,0 C 45 % 1018,2 hPa 0,0 l/m 6,4 km/h (2 Bft) O 90 1 min 0,000 mm 2,9 UV-I 640 W/m 6,8 C 19,0 C 11,3 km/h (2 Bft) 100,00 %
03.06.2023 16:32 18,9 C 48 % 1018,2 hPa 0,0 l/m 6,4 km/h (2 Bft) O-SO 112 1 min 0,000 mm 2,9 UV-I 642 W/m 7,6 C 18,9 C 11,3 km/h (2 Bft) 100,00 %
03.06.2023 16:31 19,0 C 48 % 1018,2 hPa 0,0 l/m 8,0 km/h (2 Bft) O-SO 112 1 min 0,000 mm 2,9 UV-I 645 W/m 7,7 C 19,0 C 14,5 km/h (3 Bft) 95,65 %
03.06.2023 16:30 19,0 C 46 % 1018,1 hPa 0,0 l/m 3,2 km/h (1 Bft) O-SO 112 1 min 0,000 mm 2,9 UV-I 649 W/m 7,1 C 19,0 C 6,4 km/h (2 Bft) 100,00 %
03.06.2023 16:29 19,1 C 46 % 1018,2 hPa 0,0 l/m 4,8 km/h (1 Bft) N-NO 22 1 min 0,000 mm 3,0 UV-I 650 W/m 7,2 C 19,1 C 12,9 km/h (3 Bft) 100,00 %
03.06.2023 16:28 19,1 C 48 % 1018,2 hPa 0,0 l/m 4,8 km/h (1 Bft) SO 135 1 min 0,000 mm 3,0 UV-I 650 W/m 7,8 C 19,1 C 11,3 km/h (2 Bft) 100,00 %
03.06.2023 16:27 19,1 C 50 % 1018,2 hPa 0,0 l/m 4,8 km/h (1 Bft) N-NO 22 1 min 0,000 mm 3,0 UV-I 656 W/m 8,4 C 19,1 C 6,4 km/h (2 Bft) 100,00 %
03.06.2023 16:26 19,1 C 48 % 1018,2 hPa 0,0 l/m 3,2 km/h (1 Bft) O-NO 67 1 min 0,000 mm 3,0 UV-I 657 W/m 7,8 C 19,1 C 11,3 km/h (2 Bft) 100,00 %
03.06.2023 16:25 19,1 C 47 % 1018,2 hPa 0,0 l/m 6,4 km/h (2 Bft) NO 45 1 min 0,000 mm 3,0 UV-I 659 W/m 7,5 C 19,1 C 12,9 km/h (3 Bft) 95,65 %
03.06.2023 16:24 19,2 C 47 % 1018,1 hPa 0,0 l/m 4,8 km/h (1 Bft) O-NO 67 1 min 0,000 mm 3,1 UV-I 663 W/m 7,6 C 19,2 C 8,0 km/h (2 Bft) 95,65 %
03.06.2023 16:23 19,3 C 52 % 1018,3 hPa 0,0 l/m 4,8 km/h (1 Bft) O-SO 112 1 min 0,000 mm 3,1 UV-I 663 W/m 9,2 C 19,3 C 8,0 km/h (2 Bft) 100,00 %
03.06.2023 16:22 19,2 C 49 % 1018,1 hPa 0,0 l/m 4,8 km/h (1 Bft) N-NO 22 1 min 0,000 mm 3,1 UV-I 664 W/m 8,2 C 19,2 C 8,0 km/h (2 Bft) 100,00 %
03.06.2023 16:21 19,2 C 50 % 1018,1 hPa 0,0 l/m 6,4 km/h (2 Bft) N-NO 22 1 min 0,000 mm 3,1 UV-I 668 W/m 8,5 C 19,2 C 9,7 km/h (2 Bft) 95,65 %
03.06.2023 16:20 19,2 C 50 % 1018,1 hPa 0,0 l/m 4,8 km/h (1 Bft) NO 45 1 min 0,000 mm 3,1 UV-I 670 W/m 8,5 C 19,2 C 9,7 km/h (2 Bft) 100,00 %
03.06.2023 16:19 19,1 C 49 % 1018,1 hPa 0,0 l/m 6,4 km/h (2 Bft) N 360 1 min 0,000 mm 3,1 UV-I 671 W/m 8,1 C 19,1 C 12,9 km/h (3 Bft) 100,00 %
03.06.2023 16:18 19,0 C 46 % 1018,1 hPa 0,0 l/m 6,4 km/h (2 Bft) NO 45 1 min 0,000 mm 3,1 UV-I 673 W/m 7,1 C 19,0 C 11,3 km/h (2 Bft) 95,65 %
03.06.2023 16:17 19,1 C 47 % 1018,0 hPa 0,0 l/m 8,0 km/h (2 Bft) NO 45 1 min 0,000 mm 3,2 UV-I 675 W/m 7,5 C 19,1 C 14,5 km/h (3 Bft) 95,65 %
03.06.2023 16:16 19,2 C 48 % 1018,1 hPa 0,0 l/m 4,8 km/h (1 Bft) NO 45 1 min 0,000 mm 3,2 UV-I 680 W/m 7,9 C 19,2 C 8,0 km/h (2 Bft) 100,00 %
03.06.2023 16:15 19,2 C 50 % 1018,2 hPa 0,0 l/m 1,6 km/h (1 Bft) SO 135 1 min 0,000 mm 3,2 UV-I 684 W/m 8,5 C 19,2 C 3,2 km/h (1 Bft) 100,00 %
03.06.2023 16:14 19,1 C 50 % 1018,1 hPa 0,0 l/m 9,7 km/h (2 Bft) SO 135 1 min 0,000 mm 3,2 UV-I 686 W/m 8,4 C 19,1 C 17,7 km/h (3 Bft) 100,00 %
03.06.2023 16:13 19,0 C 49 % 1018,1 hPa 0,0 l/m 6,4 km/h (2 Bft) SO 135 1 min 0,000 mm 3,3 UV-I 686 W/m 8,0 C 19,0 C 12,9 km/h (3 Bft) 100,00 %
03.06.2023 16:12 19,0 C 50 % 1018,2 hPa 0,0 l/m 6,4 km/h (2 Bft) N-NO 22 1 min 0,000 mm 3,3 UV-I 687 W/m 8,3 C 19,0 C 11,3 km/h (2 Bft) 100,00 %
03.06.2023 16:11 19,0 C 47 % 1018,2 hPa 0,0 l/m 4,8 km/h (1 Bft) N 360 1 min 0,000 mm 3,3 UV-I 689 W/m 7,4 C 19,0 C 9,7 km/h (2 Bft) 100,00 %
03.06.2023 16:10 19,1 C 48 % 1018,2 hPa 0,0 l/m 3,2 km/h (1 Bft) O-NO 67 1 min 0,000 mm 3,3 UV-I 691 W/m 7,8 C 19,1 C 6,4 km/h (2 Bft) 95,65 %
03.06.2023 16:09 19,1 C 47 % 1018,2 hPa 0,0 l/m 3,2 km/h (1 Bft) S-SO 157 1 min 0,000 mm 3,3 UV-I 696 W/m 7,5 C 19,1 C 12,9 km/h (3 Bft) 95,65 %
03.06.2023 16:08 19,1 C 48 % 1018,1 hPa 0,0 l/m 3,2 km/h (1 Bft) SO 135 1 min 0,000 mm 3,4 UV-I 696 W/m 7,8 C 19,1 C 8,0 km/h (2 Bft) 95,65 %
03.06.2023 16:07 19,1 C 47 % 1018,2 hPa 0,0 l/m 4,8 km/h (1 Bft) NW 315 1 min 0,000 mm 3,4 UV-I 700 W/m 7,5 C 19,1 C 6,4 km/h (2 Bft) 100,00 %
03.06.2023 16:06 19,0 C 50 % 1018,0 hPa 0,0 l/m 3,2 km/h (1 Bft) SO 135 1 min 0,000 mm 3,4 UV-I 700 W/m 8,3 C 19,0 C 8,0 km/h (2 Bft) 100,00 %
03.06.2023 16:05 18,9 C 51 % 1018,0 hPa 0,0 l/m 4,8 km/h (1 Bft) S-SO 157 1 min 0,000 mm 3,4 UV-I 701 W/m 8,5 C 18,9 C 8,0 km/h (2 Bft) 100,00 %
03.06.2023 16:04 18,8 C 49 % 1018,2 hPa 0,0 l/m 8,0 km/h (2 Bft) N 360 1 min 0,000 mm 3,5 UV-I 705 W/m 7,9 C 18,8 C 14,5 km/h (3 Bft) 100,00 %
03.06.2023 16:03 18,7 C 49 % 1018,0 hPa 0,0 l/m 6,4 km/h (2 Bft) O-NO 67 1 min 0,000 mm 3,5 UV-I 710 W/m 7,8 C 18,7 C 11,3 km/h (2 Bft) 95,65 %
03.06.2023 16:02 18,7 C 49 % 1018,0 hPa 0,0 l/m 6,4 km/h (2 Bft) N-NO 22 1 min 0,000 mm 3,5 UV-I 712 W/m 7,8 C 18,7 C 11,3 km/h (2 Bft) 95,65 %
03.06.2023 16:01 18,8 C 49 % 1018,1 hPa 0,0 l/m 4,8 km/h (1 Bft) N-NO 22 1 min 0,000 mm 3,5 UV-I 714 W/m 7,9 C 18,8 C 11,3 km/h (2 Bft) 100,00 %
03.06.2023 16:00 18,9 C 46 % 1018,2 hPa 0,0 l/m 9,7 km/h (2 Bft) N-NO 22 1 min 0,483 mm 3,5 UV-I 715 W/m 7,0 C 18,9 C 16,1 km/h (3 Bft) 100,00 %
03.06.2023 15:59 19,0 C 48 % 1018,2 hPa 0,0 l/m 4,8 km/h (1 Bft) N 360 1 min 0,000 mm 3,6 UV-I 719 W/m 7,7 C 19,0 C 9,7 km/h (2 Bft) 100,00 %
03.06.2023 15:58 19,0 C 50 % 1018,1 hPa 0,0 l/m 3,2 km/h (1 Bft) N-NW 337 1 min 0,000 mm 3,6 UV-I 721 W/m 8,3 C 19,0 C 6,4 km/h (2 Bft) 95,65 %
03.06.2023 15:57 18,9 C 48 % 1018,2 hPa 0,0 l/m 3,2 km/h (1 Bft) O-SO 112 1 min 0,000 mm 3,6 UV-I 722 W/m 7,6 C 18,9 C 9,7 km/h (2 Bft) 100,00 %
03.06.2023 15:56 18,9 C 54 % 1018,2 hPa 0,0 l/m 3,2 km/h (1 Bft) N-NO 22 1 min 0,000 mm 3,6 UV-I 724 W/m 9,4 C 18,9 C 8,0 km/h (2 Bft) 91,30 %
03.06.2023 15:55 18,9 C 49 % 1018,2 hPa 0,0 l/m 8,0 km/h (2 Bft) N-NO 22 1 min 0,000 mm 3,6 UV-I 724 W/m 7,9 C 18,9 C 11,3 km/h (2 Bft) 95,65 %
03.06.2023 15:54 18,9 C 51 % 1018,2 hPa 0,0 l/m 4,8 km/h (1 Bft) N-NO 22 1 min 0,000 mm 3,6 UV-I 726 W/m 8,5 C 18,9 C 9,7 km/h (2 Bft) 95,65 %
03.06.2023 15:53 19,0 C 50 % 1018,2 hPa 0,0 l/m 3,2 km/h (1 Bft) O-SO 112 1 min 0,000 mm 3,7 UV-I 728 W/m 8,3 C 19,0 C 6,4 km/h (2 Bft) 100,00 %
03.06.2023 15:52 18,9 C 49 % 1018,2 hPa 0,0 l/m 1,6 km/h (1 Bft) O-SO 112 1 min 0,000 mm 3,7 UV-I 733 W/m 7,9 C 18,9 C 6,4 km/h (2 Bft) 91,30 %
03.06.2023 15:51 18,9 C 51 % 1018,2 hPa 0,0 l/m 6,4 km/h (2 Bft) O-SO 112 1 min 0,000 mm 3,7 UV-I 735 W/m 8,5 C 18,9 C 12,9 km/h (3 Bft) 100,00 %
03.06.2023 15:50 18,9 C 50 % 1018,2 hPa 0,0 l/m 4,8 km/h (1 Bft) NO 45 1 min 0,000 mm 3,7 UV-I 737 W/m 8,2 C 18,9 C 6,4 km/h (2 Bft) 95,65 %
03.06.2023 15:49 18,9 C 49 % 1018,3 hPa 0,0 l/m 4,8 km/h (1 Bft) NO 45 1 min 0,000 mm 3,8 UV-I 738 W/m 7,9 C 18,9 C 8,0 km/h (2 Bft) 91,30 %
03.06.2023 15:48 18,9 C 49 % 1018,2 hPa 0,0 l/m 3,2 km/h (1 Bft) N-NW 337 1 min 0,000 mm 3,8 UV-I 740 W/m 7,9 C 18,9 C 6,4 km/h (2 Bft) 95,65 %
03.06.2023 15:47 18,9 C 50 % 1018,2 hPa 0,0 l/m 3,2 km/h (1 Bft) SO 135 1 min 0,000 mm 3,8 UV-I 740 W/m 8,2 C 18,9 C 6,4 km/h (2 Bft) 95,65 %
03.06.2023 15:46 18,9 C 50 % 1018,2 hPa 0,0 l/m 3,2 km/h (1 Bft) SO 135 1 min 0,000 mm 3,8 UV-I 744 W/m 8,2 C 18,9 C 8,0 km/h (2 Bft) 100,00 %
03.06.2023 15:45 18,9 C 48 % 1018,3 hPa 0,0 l/m 4,8 km/h (1 Bft) N-NO 22 1 min 0,000 mm 3,8 UV-I 745 W/m 7,6 C 18,9 C 8,0 km/h (2 Bft) 95,65 %
03.06.2023 15:44 19,0 C 50 % 1018,2 hPa 0,0 l/m 4,8 km/h (1 Bft) NO 45 1 min 0,000 mm 3,9 UV-I 747 W/m 8,3 C 19,0 C 9,7 km/h (2 Bft) 95,65 %
03.06.2023 15:43 18,9 C 49 % 1018,2 hPa 0,0 l/m 3,2 km/h (1 Bft) NO 45 1 min 0,000 mm 3,9 UV-I 751 W/m 7,9 C 18,9 C 6,4 km/h (2 Bft) 95,65 %
03.06.2023 15:42 18,9 C 50 % 1018,2 hPa 0,0 l/m 4,8 km/h (1 Bft) NO 45 1 min 0,000 mm 3,9 UV-I 752 W/m 8,2 C 18,9 C 8,0 km/h (2 Bft) 95,65 %
03.06.2023 15:41 18,9 C 49 % 1018,2 hPa 0,0 l/m 4,8 km/h (1 Bft) N 360 1 min 0,000 mm 4,0 UV-I 756 W/m 7,9 C 18,9 C 14,5 km/h (3 Bft) 95,65 %
03.06.2023 15:40 18,9 C 49 % 1018,2 hPa 0,0 l/m 9,7 km/h (2 Bft) N-NO 22 1 min 0,000 mm 4,0 UV-I 761 W/m 7,9 C 18,9 C 17,7 km/h (3 Bft) 95,65 %
03.06.2023 15:39 19,0 C 50 % 1018,3 hPa 0,0 l/m 8,0 km/h (2 Bft) NO 45 1 min 0,000 mm 4,0 UV-I 763 W/m 8,3 C 19,0 C 16,1 km/h (3 Bft) 95,65 %
03.06.2023 15:38 19,1 C 47 % 1018,1 hPa 0,0 l/m 4,8 km/h (1 Bft) O 90 1 min 0,000 mm 4,0 UV-I 763 W/m 7,5 C 19,1 C 8,0 km/h (2 Bft) 95,65 %
03.06.2023 15:37 19,1 C 49 % 1018,2 hPa 0,0 l/m 4,8 km/h (1 Bft) O-SO 112 1 min 0,000 mm 4,0 UV-I 765 W/m 8,1 C 19,1 C 14,5 km/h (3 Bft) 100,00 %
03.06.2023 15:36 19,0 C 51 % 1018,2 hPa 0,0 l/m 4,8 km/h (1 Bft) NO 45 1 min 0,000 mm 4,0 UV-I 768 W/m 8,6 C 19,0 C 8,0 km/h (2 Bft) 95,65 %
03.06.2023 15:35 18,9 C 48 % 1018,2 hPa 0,0 l/m 6,4 km/h (2 Bft) O-NO 67 1 min 0,000 mm 4,1 UV-I 770 W/m 7,6 C 18,9 C 12,9 km/h (3 Bft) 95,65 %
03.06.2023 15:34 19,0 C 49 % 1018,3 hPa 0,0 l/m 11,3 km/h (2 Bft) NO 45 1 min 0,000 mm 4,1 UV-I 773 W/m 8,0 C 19,0 C 22,5 km/h (4 Bft) 95,65 %
03.06.2023 15:33 19,0 C 51 % 1018,3 hPa 0,0 l/m 1,6 km/h (1 Bft) S-SO 157 1 min 0,000 mm 4,1 UV-I 773 W/m 8,6 C 19,0 C 4,8 km/h (1 Bft) 100,00 %
03.06.2023 15:32 18,9 C 51 % 1018,3 hPa 0,0 l/m 6,4 km/h (2 Bft) O 90 1 min 0,000 mm 4,1 UV-I 773 W/m 8,5 C 18,9 C 11,3 km/h (2 Bft) 95,65 %
03.06.2023 15:31 18,9 C 49 % 1018,2 hPa 0,0 l/m 3,2 km/h (1 Bft) N-NO 22 1 min 0,000 mm 4,1 UV-I 773 W/m 7,9 C 18,9 C 4,8 km/h (1 Bft) 91,30 %
03.06.2023 15:30 19,1 C 47 % 1018,3 hPa 0,0 l/m 3,2 km/h (1 Bft) O 90 1 min 0,000 mm 4,1 UV-I 777 W/m 7,5 C 19,1 C 4,8 km/h (1 Bft) 100,00 %
03.06.2023 15:29 19,2 C 52 % 1018,4 hPa 0,0 l/m 0,0 km/h (0 Bft) O-SO 112 1 min 0,000 mm 4,2 UV-I 779 W/m 9,1 C 19,2 C 1,6 km/h (1 Bft) 95,65 %
03.06.2023 15:28 19,2 C 48 % 1018,3 hPa 0,0 l/m 3,2 km/h (1 Bft) O-NO 67 1 min 0,000 mm 4,2 UV-I 782 W/m 7,9 C 19,2 C 8,0 km/h (2 Bft) 95,65 %
03.06.2023 15:27 19,3 C 53 % 1018,3 hPa 0,0 l/m 4,8 km/h (1 Bft) N-NW 337 1 min 0,000 mm 4,2 UV-I 780 W/m 9,5 C 19,3 C 9,7 km/h (2 Bft) 95,65 %
03.06.2023 15:26 19,3 C 51 % 1018,2 hPa 0,0 l/m 6,4 km/h (2 Bft) O 90 1 min 0,000 mm 4,2 UV-I 782 W/m 8,9 C 19,3 C 14,5 km/h (3 Bft) 100,00 %
03.06.2023 15:25 19,2 C 53 % 1018,3 hPa 0,0 l/m 9,7 km/h (2 Bft) SO 135 1 min 0,000 mm 4,3 UV-I 786 W/m 9,4 C 19,2 C 19,3 km/h (3 Bft) 95,65 %
03.06.2023 15:24 19,2 C 50 % 1018,3 hPa 0,0 l/m 6,4 km/h (2 Bft) SO 135 1 min 0,000 mm 4,3 UV-I 786 W/m 8,5 C 19,2 C 11,3 km/h (2 Bft) 100,00 %
03.06.2023 15:23 19,3 C 49 % 1018,3 hPa 0,0 l/m 4,8 km/h (1 Bft) O-SO 112 1 min 0,000 mm 4,3 UV-I 788 W/m 8,3 C 19,3 C 6,4 km/h (2 Bft) 95,65 %
03.06.2023 15:22 19,3 C 52 % 1018,3 hPa 0,0 l/m 4,8 km/h (1 Bft) S-SO 157 1 min 0,000 mm 4,3 UV-I 788 W/m 9,2 C 19,3 C 9,7 km/h (2 Bft) 95,65 %
03.06.2023 15:21 19,2 C 59 % 1018,3 hPa 0,0 l/m 9,7 km/h (2 Bft) SO 135 1 min 0,000 mm 4,3 UV-I 795 W/m 11,0 C 19,2 C 14,5 km/h (3 Bft) 95,65 %
03.06.2023 15:20 19,1 C 47 % 1018,3 hPa 0,0 l/m 11,3 km/h (2 Bft) O-SO 112 1 min 0,000 mm 4,4 UV-I 795 W/m 7,5 C 19,1 C 17,7 km/h (3 Bft) 100,00 %
03.06.2023 15:19 18,9 C 51 % 1018,4 hPa 0,0 l/m 6,4 km/h (2 Bft) O-SO 112 1 min 0,000 mm 4,4 UV-I 798 W/m 8,5 C 18,9 C 14,5 km/h (3 Bft) 100,00 %
03.06.2023 15:18 18,9 C 50 % 1018,5 hPa 0,0 l/m 4,8 km/h (1 Bft) O 90 1 min 0,000 mm 4,4 UV-I 802 W/m 8,2 C 18,9 C 12,9 km/h (3 Bft) 100,00 %
03.06.2023 15:17 18,9 C 50 % 1018,4 hPa 0,0 l/m 3,2 km/h (1 Bft) W-NW 292 1 min 0,000 mm 4,4 UV-I 802 W/m 8,2 C 18,9 C 6,4 km/h (2 Bft) 100,00 %
03.06.2023 15:16 18,9 C 51 % 1018,5 hPa 0,0 l/m 3,2 km/h (1 Bft) SO 135 1 min 0,000 mm 4,4 UV-I 802 W/m 8,5 C 18,9 C 8,0 km/h (2 Bft) 95,65 %
03.06.2023 15:15 18,9 C 50 % 1018,4 hPa 0,0 l/m 3,2 km/h (1 Bft) SO 135 1 min 0,000 mm 4,5 UV-I 802 W/m 8,2 C 18,9 C 6,4 km/h (2 Bft) 100,00 %
03.06.2023 15:14 18,9 C 53 % 1018,5 hPa 0,0 l/m 8,0 km/h (2 Bft) SO 135 1 min 0,000 mm 4,5 UV-I 805 W/m 9,1 C 18,9 C 14,5 km/h (3 Bft) 95,65 %
03.06.2023 15:13 18,8 C 50 % 1018,5 hPa 0,0 l/m 9,7 km/h (2 Bft) SO 135 1 min 0,000 mm 4,5 UV-I 807 W/m 8,2 C 18,8 C 16,1 km/h (3 Bft) 100,00 %
03.06.2023 15:12 18,8 C 52 % 1018,5 hPa 0,0 l/m 8,0 km/h (2 Bft) O 90 1 min 0,000 mm 4,5 UV-I 809 W/m 8,7 C 18,8 C 14,5 km/h (3 Bft) 100,00 %
03.06.2023 15:11 18,8 C 48 % 1018,5 hPa 0,0 l/m 6,4 km/h (2 Bft) S-SO 157 1 min 0,000 mm 4,5 UV-I 812 W/m 7,6 C 18,8 C 17,7 km/h (3 Bft) 100,00 %
03.06.2023 15:10 19,1 C 52 % 1018,5 hPa 0,0 l/m 4,8 km/h (1 Bft) S-SO 157 1 min 0,000 mm 4,6 UV-I 814 W/m 9,0 C 19,1 C 8,0 km/h (2 Bft) 95,65 %
03.06.2023 15:09 19,2 C 53 % 1018,6 hPa 0,0 l/m 3,2 km/h (1 Bft) S-SO 157 1 min 0,000 mm 4,6 UV-I 814 W/m 9,4 C 19,2 C 8,0 km/h (2 Bft) 95,65 %
03.06.2023 15:08 19,3 C 53 % 1018,6 hPa 0,0 l/m 4,8 km/h (1 Bft) S-SO 157 1 min 0,000 mm 4,6 UV-I 816 W/m 9,5 C 19,3 C 9,7 km/h (2 Bft) 100,00 %
03.06.2023 15:07 19,2 C 55 % 1018,6 hPa 0,0 l/m 8,0 km/h (2 Bft) SO 135 1 min 0,000 mm 4,6 UV-I 816 W/m 9,9 C 19,2 C 12,9 km/h (3 Bft) 95,65 %
03.06.2023 15:06 19,1 C 52 % 1018,5 hPa 0,0 l/m 12,9 km/h (3 Bft) O-SO 112 1 min 0,000 mm 4,6 UV-I 817 W/m 9,0 C 19,1 C 17,7 km/h (3 Bft) 100,00 %
03.06.2023 15:05 19,0 C 52 % 1018,5 hPa 0,0 l/m 16,1 km/h (3 Bft) SO 135 1 min 0,000 mm 4,6 UV-I 821 W/m 8,9 C 19,0 C 19,3 km/h (3 Bft) 100,00 %
03.06.2023 15:04 18,9 C 51 % 1018,6 hPa 0,0 l/m 11,3 km/h (2 Bft) SO 135 1 min 0,000 mm 4,7 UV-I 823 W/m 8,5 C 18,9 C 16,1 km/h (3 Bft) 100,00 %
03.06.2023 15:03 18,9 C 53 % 1018,5 hPa 0,0 l/m 6,4 km/h (2 Bft) O-SO 112 1 min 0,000 mm 4,7 UV-I 821 W/m 9,1 C 18,9 C 14,5 km/h (3 Bft) 100,00 %
03.06.2023 15:02 19,0 C 52 % 1018,7 hPa 0,0 l/m 3,2 km/h (1 Bft) NO 45 1 min 0,000 mm 4,7 UV-I 823 W/m 8,9 C 19,0 C 6,4 km/h (2 Bft) 100,00 %
03.06.2023 15:01 19,0 C 51 % 1018,7 hPa 0,0 l/m 6,4 km/h (2 Bft) O 90 1 min 0,000 mm 4,7 UV-I 828 W/m 8,6 C 19,0 C 12,9 km/h (3 Bft) 100,00 %
03.06.2023 15:00 19,1 C 51 % 1018,7 hPa 0,0 l/m 4,8 km/h (1 Bft) O-SO 112 1 min 0,533 mm 4,8 UV-I 828 W/m 8,7 C 19,1 C 9,7 km/h (2 Bft) 95,65 %
03.06.2023 14:59 19,2 C 51 % 1018,7 hPa 0,0 l/m 4,8 km/h (1 Bft) O 90 1 min 0,000 mm 4,8 UV-I 831 W/m 8,8 C 19,2 C 9,7 km/h (2 Bft) 95,65 %
03.06.2023 14:58 19,4 C 54 % 1018,6 hPa 0,0 l/m 8,0 km/h (2 Bft) SO 135 1 min 0,000 mm 4,8 UV-I 833 W/m 9,8 C 19,4 C 12,9 km/h (3 Bft) 100,00 %
03.06.2023 14:57 19,4 C 55 % 1018,7 hPa 0,0 l/m 11,3 km/h (2 Bft) SO 135 1 min 0,000 mm 4,8 UV-I 830 W/m 10,1 C 19,4 C 16,1 km/h (3 Bft) 100,00 %
03.06.2023 14:56 19,3 C 53 % 1018,7 hPa 0,0 l/m 16,1 km/h (3 Bft) O-SO 112 1 min 0,000 mm 4,8 UV-I 833 W/m 9,5 C 19,3 C 19,3 km/h (3 Bft) 95,65 %
03.06.2023 14:55 19,1 C 55 % 1018,6 hPa 0,0 l/m 9,7 km/h (2 Bft) S-SO 157 1 min 0,000 mm 4,8 UV-I 833 W/m 9,8 C 19,1 C 24,1 km/h (4 Bft) 100,00 %
03.06.2023 14:54 19,0 C 48 % 1018,7 hPa 0,0 l/m 12,9 km/h (3 Bft) SO 135 1 min 0,000 mm 4,8 UV-I 835 W/m 7,7 C 19,0 C 24,1 km/h (4 Bft) 100,00 %
03.06.2023 14:53 19,1 C 52 % 1018,7 hPa 0,0 l/m 4,8 km/h (1 Bft) S-SO 157 1 min 0,000 mm 4,9 UV-I 837 W/m 9,0 C 19,1 C 8,0 km/h (2 Bft) 95,65 %
03.06.2023 14:52 19,1 C 54 % 1018,7 hPa 0,0 l/m 9,7 km/h (2 Bft) O-SO 112 1 min 0,000 mm 4,9 UV-I 840 W/m 9,6 C 19,1 C 12,9 km/h (3 Bft) 100,00 %
03.06.2023 14:51 19,0 C 56 % 1018,7 hPa 0,0 l/m 4,8 km/h (1 Bft) SO 135 1 min 0,000 mm 4,9 UV-I 842 W/m 10,0 C 19,0 C 8,0 km/h (2 Bft) 100,00 %
03.06.2023 14:50 18,9 C 52 % 1018,7 hPa 0,0 l/m 8,0 km/h (2 Bft) SO 135 1 min 0,000 mm 4,9 UV-I 842 W/m 8,8 C 18,9 C 16,1 km/h (3 Bft) 100,00 %
03.06.2023 14:49 18,9 C 53 % 1018,7 hPa 0,0 l/m 14,5 km/h (3 Bft) O-SO 112 1 min 0,000 mm 4,9 UV-I 842 W/m 9,1 C 18,9 C 19,3 km/h (3 Bft) 100,00 %
03.06.2023 14:48 18,9 C 51 % 1018,7 hPa 0,0 l/m 8,0 km/h (2 Bft) SO 135 1 min 0,000 mm 4,9 UV-I 842 W/m 8,5 C 18,9 C 14,5 km/h (3 Bft) 100,00 %
03.06.2023 14:47 18,9 C 54 % 1018,7 hPa 0,0 l/m 9,7 km/h (2 Bft) O 90 1 min 0,000 mm 4,9 UV-I 847 W/m 9,4 C 18,9 C 17,7 km/h (3 Bft) 100,00 %
03.06.2023 14:46 18,8 C 54 % 1018,7 hPa 0,0 l/m 14,5 km/h (3 Bft) SO 135 1 min 0,000 mm 5,0 UV-I 851 W/m 9,3 C 18,8 C 17,7 km/h (3 Bft) 95,65 %
03.06.2023 14:45 18,8 C 55 % 1018,8 hPa 0,0 l/m 12,9 km/h (3 Bft) SO 135 1 min 0,000 mm 5,0 UV-I 851 W/m 9,6 C 18,8 C 19,3 km/h (3 Bft) 100,00 %
03.06.2023 14:44 18,7 C 52 % 1018,8 hPa 0,0 l/m 12,9 km/h (3 Bft) SO 135 1 min 0,000 mm 5,0 UV-I 851 W/m 8,6 C 18,7 C 19,3 km/h (3 Bft) 100,00 %
03.06.2023 14:43 18,7 C 56 % 1018,8 hPa 0,0 l/m 12,9 km/h (3 Bft) SO 135 1 min 0,000 mm 5,0 UV-I 851 W/m 9,7 C 18,7 C 20,9 km/h (4 Bft) 100,00 %
03.06.2023 14:42 18,6 C 53 % 1018,8 hPa 0,0 l/m 3,2 km/h (1 Bft) O 90 1 min 0,000 mm 5,0 UV-I 853 W/m 8,8 C 18,6 C 9,7 km/h (2 Bft) 100,00 %
03.06.2023 14:41 18,7 C 52 % 1018,9 hPa 0,0 l/m 4,8 km/h (1 Bft) SO 135 1 min 0,000 mm 5,0 UV-I 853 W/m 8,6 C 18,7 C 8,0 km/h (2 Bft) 100,00 %
03.06.2023 14:40 18,8 C 51 % 1019,0 hPa 0,0 l/m 8,0 km/h (2 Bft) SO 135 1 min 0,000 mm 5,0 UV-I 854 W/m 8,4 C 18,8 C 14,5 km/h (3 Bft) 100,00 %
03.06.2023 14:39 18,8 C 55 % 1018,9 hPa 0,0 l/m 9,7 km/h (2 Bft) SO 135 1 min 0,000 mm 5,0 UV-I 854 W/m 9,6 C 18,8 C 14,5 km/h (3 Bft) 95,65 %
03.06.2023 14:38 18,7 C 51 % 1018,9 hPa 0,0 l/m 3,2 km/h (1 Bft) SO 135 1 min 0,000 mm 5,1 UV-I 856 W/m 8,4 C 18,7 C 6,4 km/h (2 Bft) 95,65 %
03.06.2023 14:37 18,9 C 55 % 1019,0 hPa 0,0 l/m 4,8 km/h (1 Bft) O-SO 112 1 min 0,000 mm 5,1 UV-I 854 W/m 9,7 C 18,9 C 6,4 km/h (2 Bft) 100,00 %
03.06.2023 14:36 18,8 C 50 % 1018,9 hPa 0,0 l/m 9,7 km/h (2 Bft) SO 135 1 min 0,000 mm 5,1 UV-I 860 W/m 8,2 C 18,8 C 17,7 km/h (3 Bft) 100,00 %
03.06.2023 14:35 18,7 C 53 % 1018,9 hPa 0,0 l/m 9,7 km/h (2 Bft) SO 135 1 min 0,000 mm 5,1 UV-I 860 W/m 8,9 C 18,7 C 14,5 km/h (3 Bft) 100,00 %
03.06.2023 14:34 18,5 C 53 % 1018,9 hPa 0,0 l/m 4,8 km/h (1 Bft) O-SO 112 1 min 0,000 mm 5,1 UV-I 865 W/m 8,7 C 18,5 C 16,1 km/h (3 Bft) 100,00 %
03.06.2023 14:33 18,3 C 54 % 1018,9 hPa 0,0 l/m 11,3 km/h (2 Bft) O-SO 112 1 min 0,000 mm 5,1 UV-I 863 W/m 8,8 C 18,3 C 20,9 km/h (4 Bft) 100,00 %
03.06.2023 14:32 18,2 C 53 % 1019,0 hPa 0,0 l/m 11,3 km/h (2 Bft) SO 135 1 min 0,000 mm 5,1 UV-I 865 W/m 8,5 C 18,2 C 19,3 km/h (3 Bft) 95,65 %
03.06.2023 14:31 18,1 C 52 % 1018,9 hPa 0,0 l/m 4,8 km/h (1 Bft) SO 135 1 min 0,000 mm 5,2 UV-I 867 W/m 8,1 C 18,1 C 9,7 km/h (2 Bft) 100,00 %
03.06.2023 14:30 18,2 C 50 % 1018,9 hPa 0,0 l/m 3,2 km/h (1 Bft) O-SO 112 1 min 0,000 mm 5,2 UV-I 868 W/m 7,6 C 18,2 C 9,7 km/h (2 Bft) 100,00 %
03.06.2023 14:29 18,3 C 52 % 1018,9 hPa 0,0 l/m 3,2 km/h (1 Bft) O-SO 112 1 min 0,000 mm 5,2 UV-I 868 W/m 8,3 C 18,3 C 8,0 km/h (2 Bft) 100,00 %
03.06.2023 14:28 18,4 C 47 % 1019,0 hPa 0,0 l/m 4,8 km/h (1 Bft) NO 45 1 min 0,000 mm 5,2 UV-I 870 W/m 6,9 C 18,4 C 11,3 km/h (2 Bft) 100,00 %
03.06.2023 14:27 18,6 C 54 % 1019,0 hPa 0,0 l/m 6,4 km/h (2 Bft) S-SO 157 1 min 0,000 mm 5,2 UV-I 872 W/m 9,1 C 18,6 C 14,5 km/h (3 Bft) 100,00 %
03.06.2023 14:26 18,7 C 50 % 1018,9 hPa 0,0 l/m 11,3 km/h (2 Bft) SO 135 1 min 0,000 mm 5,2 UV-I 872 W/m 8,1 C 18,7 C 17,7 km/h (3 Bft) 100,00 %
03.06.2023 14:25 18,7 C 52 % 1019,0 hPa 0,0 l/m 8,0 km/h (2 Bft) O 90 1 min 0,000 mm 5,2 UV-I 874 W/m 8,6 C 18,7 C 11,3 km/h (2 Bft) 95,65 %
03.06.2023 14:24 18,7 C 54 % 1018,9 hPa 0,0 l/m 11,3 km/h (2 Bft) SO 135 1 min 0,000 mm 5,3 UV-I 872 W/m 9,2 C 18,7 C 16,1 km/h (3 Bft) 100,00 %
03.06.2023 14:23 18,4 C 52 % 1018,9 hPa 0,0 l/m 11,3 km/h (2 Bft) SO 135 1 min 0,000 mm 5,2 UV-I 872 W/m 8,4 C 18,4 C 16,1 km/h (3 Bft) 100,00 %
03.06.2023 14:22 18,3 C 51 % 1019,0 hPa 0,0 l/m 6,4 km/h (2 Bft) SO 135 1 min 0,000 mm 5,3 UV-I 875 W/m 8,0 C 18,3 C 16,1 km/h (3 Bft) 100,00 %
03.06.2023 14:21 18,3 C 52 % 1019,0 hPa 0,0 l/m 6,4 km/h (2 Bft) SO 135 1 min 0,000 mm 5,3 UV-I 877 W/m 8,3 C 18,3 C 14,5 km/h (3 Bft) 100,00 %
03.06.2023 14:20 18,4 C 51 % 1019,0 hPa 0,0 l/m 8,0 km/h (2 Bft) N-NO 22 1 min 0,000 mm 5,3 UV-I 877 W/m 8,1 C 18,4 C 12,9 km/h (3 Bft) 100,00 %
03.06.2023 14:19 18,4 C 53 % 1018,9 hPa 0,0 l/m 4,8 km/h (1 Bft) SO 135 1 min 0,000 mm 5,3 UV-I 879 W/m 8,6 C 18,4 C 14,5 km/h (3 Bft) 100,00 %
03.06.2023 14:18 18,4 C 54 % 1019,0 hPa 0,0 l/m 3,2 km/h (1 Bft) SO 135 1 min 0,000 mm 5,3 UV-I 882 W/m 8,9 C 18,4 C 6,4 km/h (2 Bft) 95,65 %
03.06.2023 14:17 18,4 C 51 % 1019,0 hPa 0,0 l/m 3,2 km/h (1 Bft) N-NO 22 1 min 0,000 mm 5,4 UV-I 882 W/m 8,1 C 18,4 C 8,0 km/h (2 Bft) 100,00 %
03.06.2023 14:16 18,7 C 50 % 1019,1 hPa 0,0 l/m 1,6 km/h (1 Bft) SO 135 1 min 0,000 mm 5,3 UV-I 879 W/m 8,1 C 18,7 C 4,8 km/h (1 Bft) 95,65 %
03.06.2023 14:15 18,8 C 50 % 1019,1 hPa 0,0 l/m 4,8 km/h (1 Bft) O 90 1 min 0,000 mm 5,3 UV-I 881 W/m 8,2 C 18,8 C 11,3 km/h (2 Bft) 100,00 %
03.06.2023 14:14 19,1 C 50 % 1019,0 hPa 0,0 l/m 8,0 km/h (2 Bft) O-SO 112 1 min 0,000 mm 5,3 UV-I 881 W/m 8,4 C 19,1 C 12,9 km/h (3 Bft) 95,65 %
03.06.2023 14:13 19,2 C 56 % 1019,1 hPa 0,0 l/m 9,7 km/h (2 Bft) SO 135 1 min 0,000 mm 5,4 UV-I 884 W/m 10,2 C 19,2 C 14,5 km/h (3 Bft) 100,00 %
03.06.2023 14:12 19,2 C 54 % 1019,0 hPa 0,0 l/m 11,3 km/h (2 Bft) SO 135 1 min 0,000 mm 5,4 UV-I 891 W/m 9,7 C 19,2 C 17,7 km/h (3 Bft) 100,00 %
03.06.2023 14:11 19,1 C 56 % 1019,1 hPa 0,0 l/m 8,0 km/h (2 Bft) SO 135 1 min 0,000 mm 5,4 UV-I 895 W/m 10,1 C 19,1 C 14,5 km/h (3 Bft) 95,65 %
03.06.2023 14:10 18,9 C 58 % 1019,0 hPa 0,0 l/m 4,8 km/h (1 Bft) S-SO 157 1 min 0,000 mm 5,4 UV-I 900 W/m 10,5 C 18,9 C 8,0 km/h (2 Bft) 100,00 %
03.06.2023 14:09 18,6 C 55 % 1019,1 hPa 0,0 l/m 12,9 km/h (3 Bft) SO 135 1 min 0,000 mm 5,4 UV-I 900 W/m 9,4 C 18,6 C 17,7 km/h (3 Bft) 100,00 %
03.06.2023 14:08 18,3 C 51 % 1019,1 hPa 0,0 l/m 8,0 km/h (2 Bft) S-SO 157 1 min 0,000 mm 5,5 UV-I 905 W/m 8,0 C 18,3 C 14,5 km/h (3 Bft) 100,00 %
03.06.2023 14:07 18,4 C 51 % 1019,0 hPa 0,0 l/m 3,2 km/h (1 Bft) O-SO 112 1 min 0,000 mm 5,5 UV-I 905 W/m 8,1 C 18,4 C 4,8 km/h (1 Bft) 100,00 %
03.06.2023 14:06 18,5 C 54 % 1019,1 hPa 0,0 l/m 6,4 km/h (2 Bft) S-SO 157 1 min 0,000 mm 5,5 UV-I 900 W/m 9,0 C 18,5 C 14,5 km/h (3 Bft) 100,00 %
03.06.2023 14:05 18,5 C 52 % 1019,1 hPa 0,0 l/m 4,8 km/h (1 Bft) SO 135 1 min 0,000 mm 5,5 UV-I 900 W/m 8,5 C 18,5 C 12,9 km/h (3 Bft) 100,00 %
03.06.2023 14:04 18,7 C 53 % 1019,1 hPa 0,0 l/m 3,2 km/h (1 Bft) W-SW 247 1 min 0,000 mm 5,5 UV-I 900 W/m 8,9 C 18,7 C 3,2 km/h (1 Bft) 91,30 %
03.06.2023 14:03 18,6 C 53 % 1019,1 hPa 0,0 l/m 4,8 km/h (1 Bft) SO 135 1 min 0,000 mm 5,5 UV-I 898 W/m 8,8 C 18,6 C 8,0 km/h (2 Bft) 100,00 %
03.06.2023 14:02 18,6 C 52 % 1019,1 hPa 0,0 l/m 9,7 km/h (2 Bft) SO 135 1 min 0,000 mm 5,5 UV-I 902 W/m 8,5 C 18,6 C 17,7 km/h (3 Bft) 100,00 %
03.06.2023 14:01 18,5 C 57 % 1019,1 hPa 0,0 l/m 6,4 km/h (2 Bft) SO 135 1 min 0,000 mm 5,5 UV-I 898 W/m 9,8 C 18,5 C 11,3 km/h (2 Bft) 100,00 %
03.06.2023 14:00 18,3 C 54 % 1019,1 hPa 0,0 l/m 12,9 km/h (3 Bft) SO 135 1 min 0,508 mm 5,5 UV-I 904 W/m 8,8 C 18,3 C 19,3 km/h (3 Bft) 100,00 %
03.06.2023 13:59 18,2 C 51 % 1019,1 hPa 0,0 l/m 9,7 km/h (2 Bft) SO 135 1 min 0,000 mm 5,6 UV-I 904 W/m 7,9 C 18,2 C 16,1 km/h (3 Bft) 100,00 %
03.06.2023 13:58 18,2 C 48 % 1019,1 hPa 0,0 l/m 3,2 km/h (1 Bft) NW 315 1 min 0,000 mm 5,6 UV-I 905 W/m 7,0 C 18,2 C 9,7 km/h (2 Bft) 100,00 %
03.06.2023 13:57 18,3 C 54 % 1019,2 hPa 0,0 l/m 1,6 km/h (1 Bft) NW 315 1 min 0,000 mm 5,6 UV-I 912 W/m 8,8 C 18,3 C 4,8 km/h (1 Bft) 95,65 %
03.06.2023 13:56 18,2 C 51 % 1019,2 hPa 0,0 l/m 6,4 km/h (2 Bft) O-NO 67 1 min 0,000 mm 5,6 UV-I 921 W/m 7,9 C 18,2 C 12,9 km/h (3 Bft) 100,00 %
03.06.2023 13:55 18,2 C 54 % 1019,2 hPa 0,0 l/m 9,7 km/h (2 Bft) SO 135 1 min 0,000 mm 5,6 UV-I 919 W/m 8,7 C 18,2 C 16,1 km/h (3 Bft) 95,65 %
03.06.2023 13:54 18,0 C 56 % 1019,2 hPa 0,0 l/m 3,2 km/h (1 Bft) N 360 1 min 0,000 mm 5,5 UV-I 904 W/m 9,1 C 18,0 C 4,8 km/h (1 Bft) 100,00 %
03.06.2023 13:53 17,8 C 49 % 1019,2 hPa 0,0 l/m 0,0 km/h (0 Bft) NO 45 1 min 0,000 mm 5,5 UV-I 909 W/m 6,9 C 17,8 C 1,6 km/h (1 Bft) 100,00 %
03.06.2023 13:52 17,9 C 50 % 1019,3 hPa 0,0 l/m 3,2 km/h (1 Bft) NO 45 1 min 0,000 mm 5,6 UV-I 909 W/m 7,3 C 17,9 C 6,4 km/h (2 Bft) 95,65 %
03.06.2023 13:51 18,1 C 50 % 1019,2 hPa 0,0 l/m 3,2 km/h (1 Bft) NO 45 1 min 0,000 mm 5,6 UV-I 905 W/m 7,5 C 18,1 C 4,8 km/h (1 Bft) 100,00 %
03.06.2023 13:50 18,2 C 57 % 1019,3 hPa 0,0 l/m 4,8 km/h (1 Bft) SO 135 1 min 0,000 mm 5,5 UV-I 881 W/m 9,5 C 18,2 C 14,5 km/h (3 Bft) 91,30 %
03.06.2023 13:49 18,3 C 52 % 1019,3 hPa 0,0 l/m 3,2 km/h (1 Bft) SO 135 1 min 0,000 mm 5,3 UV-I 860 W/m 8,3 C 18,3 C 6,4 km/h (2 Bft) 95,65 %
03.06.2023 13:48 18,3 C 55 % 1019,3 hPa 0,0 l/m 9,7 km/h (2 Bft) O-SO 112 1 min 0,000 mm 5,2 UV-I 963 W/m 9,1 C 18,3 C 14,5 km/h (3 Bft) 95,65 %
03.06.2023 13:47 18,2 C 54 % 1019,3 hPa 0,0 l/m 8,0 km/h (2 Bft) SO 135 1 min 0,000 mm 5,6 UV-I 963 W/m 8,7 C 18,2 C 12,9 km/h (3 Bft) 95,65 %
03.06.2023 13:46 18,1 C 55 % 1019,2 hPa 0,0 l/m 8,0 km/h (2 Bft) O-SO 112 1 min 0,000 mm 5,7 UV-I 958 W/m 8,9 C 18,1 C 20,9 km/h (4 Bft) 95,65 %
03.06.2023 13:45 17,8 C 52 % 1019,3 hPa 0,0 l/m 12,9 km/h (3 Bft) N-NO 22 1 min 0,000 mm 5,7 UV-I 953 W/m 7,8 C 17,8 C 20,9 km/h (4 Bft) 95,65 %
03.06.2023 13:44 17,8 C 50 % 1019,2 hPa 0,0 l/m 6,4 km/h (2 Bft) SO 135 1 min 0,000 mm 5,7 UV-I 937 W/m 7,2 C 17,8 C 11,3 km/h (2 Bft) 100,00 %
03.06.2023 13:43 17,8 C 53 % 1019,3 hPa 0,0 l/m 3,2 km/h (1 Bft) O-SO 112 1 min 0,000 mm 5,6 UV-I 926 W/m 8,1 C 17,8 C 6,4 km/h (2 Bft) 95,65 %
03.06.2023 13:42 17,8 C 52 % 1019,2 hPa 0,0 l/m 8,0 km/h (2 Bft) O 90 1 min 0,000 mm 5,7 UV-I 921 W/m 7,8 C 17,8 C 14,5 km/h (3 Bft) 95,65 %
03.06.2023 13:41 17,8 C 53 % 1019,3 hPa 0,0 l/m 8,0 km/h (2 Bft) NO 45 1 min 0,000 mm 5,7 UV-I 919 W/m 8,1 C 17,8 C 16,1 km/h (3 Bft) 95,65 %
03.06.2023 13:40 17,7 C 53 % 1019,3 hPa 0,0 l/m 3,2 km/h (1 Bft) N-NO 22 1 min 0,000 mm 5,6 UV-I 918 W/m 8,0 C 17,7 C 6,4 km/h (2 Bft) 100,00 %
03.06.2023 13:39 17,7 C 49 % 1019,3 hPa 0,0 l/m 6,4 km/h (2 Bft) S-SO 157 1 min 0,000 mm 5,7 UV-I 918 W/m 6,9 C 17,7 C 11,3 km/h (2 Bft) 95,65 %
03.06.2023 13:38 17,8 C 51 % 1019,3 hPa 0,0 l/m 8,0 km/h (2 Bft) N-NO 22 1 min 0,000 mm 5,7 UV-I 918 W/m 7,5 C 17,8 C 14,5 km/h (3 Bft) 95,65 %
03.06.2023 13:37 17,9 C 51 % 1019,3 hPa 0,0 l/m 1,6 km/h (1 Bft) S 180 1 min 0,000 mm 5,5 UV-I 731 W/m 7,6 C 17,9 C 4,8 km/h (1 Bft) 95,65 %
03.06.2023 13:36 17,9 C 51 % 1019,3 hPa 0,0 l/m 3,2 km/h (1 Bft) O 90 1 min 0,000 mm 5,4 UV-I 817 W/m 7,6 C 17,9 C 6,4 km/h (2 Bft) 95,65 %
03.06.2023 13:35 18,1 C 57 % 1019,4 hPa 0,0 l/m 4,8 km/h (1 Bft) N 360 1 min 0,000 mm 5,2 UV-I 928 W/m 9,4 C 18,1 C 9,7 km/h (2 Bft) 95,65 %
03.06.2023 13:34 17,9 C 54 % 1019,3 hPa 0,0 l/m 4,8 km/h (1 Bft) O-SO 112 1 min 0,000 mm 5,6 UV-I 928 W/m 8,5 C 17,9 C 9,7 km/h (2 Bft) 91,30 %
03.06.2023 13:33 17,8 C 57 % 1019,3 hPa 0,0 l/m 8,0 km/h (2 Bft) O-SO 112 1 min 0,000 mm 5,8 UV-I 947 W/m 9,2 C 17,8 C 14,5 km/h (3 Bft) 100,00 %
03.06.2023 13:32 17,6 C 56 % 1019,3 hPa 0,0 l/m 6,4 km/h (2 Bft) O-SO 112 1 min 0,000 mm 5,8 UV-I 935 W/m 8,7 C 17,6 C 14,5 km/h (3 Bft) 95,65 %
03.06.2023 13:31 17,4 C 56 % 1019,3 hPa 0,0 l/m 3,2 km/h (1 Bft) O-SO 112 1 min 0,000 mm 5,7 UV-I 935 W/m 8,5 C 17,4 C 8,0 km/h (2 Bft) 95,65 %
03.06.2023 13:30 17,4 C 51 % 1019,3 hPa 0,0 l/m 4,8 km/h (1 Bft) O-NO 67 1 min 0,000 mm 5,8 UV-I 951 W/m 7,2 C 17,4 C 11,3 km/h (2 Bft) 95,65 %
03.06.2023 13:29 17,4 C 55 % 1019,3 hPa 0,0 l/m 6,4 km/h (2 Bft) O 90 1 min 0,000 mm 5,8 UV-I 967 W/m 8,3 C 17,4 C 11,3 km/h (2 Bft) 95,65 %
03.06.2023 13:28 17,3 C 54 % 1019,3 hPa 0,0 l/m 1,6 km/h (1 Bft) SO 135 1 min 0,000 mm 5,8 UV-I 338 W/m 7,9 C 17,3 C 3,2 km/h (1 Bft) 95,65 %
03.06.2023 13:27 17,3 C 53 % 1019,4 hPa 0,0 l/m 3,2 km/h (1 Bft) SO 135 1 min 0,000 mm 4,8 UV-I 338 W/m 7,6 C 17,3 C 8,0 km/h (2 Bft) 95,65 %
03.06.2023 13:26 17,4 C 52 % 1019,4 hPa 0,0 l/m 4,8 km/h (1 Bft) O-SO 112 1 min 0,000 mm 3,8 UV-I 338 W/m 7,4 C 17,4 C 8,0 km/h (2 Bft) 100,00 %
03.06.2023 13:25 17,5 C 52 % 1019,3 hPa 0,0 l/m 4,8 km/h (1 Bft) N-NO 22 1 min 0,000 mm 3,6 UV-I 276 W/m 7,5 C 17,5 C 8,0 km/h (2 Bft) 95,65 %
03.06.2023 13:24 17,4 C 55 % 1019,3 hPa 0,0 l/m 6,4 km/h (2 Bft) O-SO 112 1 min 0,000 mm 4,6 UV-I 1041 W/m 8,3 C 17,4 C 11,3 km/h (2 Bft) 100,00 %
03.06.2023 13:23 17,4 C 51 % 1019,4 hPa 0,0 l/m 4,8 km/h (1 Bft) SO 135 1 min 0,000 mm 6,1 UV-I 1041 W/m 7,2 C 17,4 C 12,9 km/h (3 Bft) 95,65 %
03.06.2023 13:22 17,4 C 48 % 1019,3 hPa 0,0 l/m 8,0 km/h (2 Bft) O-SO 112 1 min 0,000 mm 5,8 UV-I 974 W/m 6,3 C 17,4 C 12,9 km/h (3 Bft) 95,65 %
03.06.2023 13:21 17,6 C 50 % 1019,4 hPa 0,0 l/m 6,4 km/h (2 Bft) S-SO 157 1 min 0,000 mm 5,9 UV-I 976 W/m 7,1 C 17,6 C 12,9 km/h (3 Bft) 95,65 %
03.06.2023 13:20 17,6 C 51 % 1019,3 hPa 0,0 l/m 3,2 km/h (1 Bft) S 180 1 min 0,000 mm 5,8 UV-I 963 W/m 7,3 C 17,6 C 4,8 km/h (1 Bft) 95,65 %
03.06.2023 13:19 17,4 C 55 % 1019,3 hPa 0,0 l/m 3,2 km/h (1 Bft) S-SO 157 1 min 0,000 mm 5,8 UV-I 960 W/m 8,3 C 17,4 C 8,0 km/h (2 Bft) 95,65 %
03.06.2023 13:18 17,3 C 52 % 1019,3 hPa 0,0 l/m 4,8 km/h (1 Bft) N 360 1 min 0,000 mm 5,8 UV-I 958 W/m 7,3 C 17,3 C 8,0 km/h (2 Bft) 95,65 %
03.06.2023 13:17 17,2 C 54 % 1019,3 hPa 0,0 l/m 6,4 km/h (2 Bft) N 360 1 min 0,000 mm 5,8 UV-I 995 W/m 7,8 C 17,2 C 11,3 km/h (2 Bft) 100,00 %
03.06.2023 13:16 17,2 C 52 % 1019,3 hPa 0,0 l/m 6,4 km/h (2 Bft) N-NO 22 1 min 0,000 mm 5,6 UV-I 995 W/m 7,3 C 17,2 C 14,5 km/h (3 Bft) 95,65 %
03.06.2023 13:15 17,3 C 52 % 1019,3 hPa 0,0 l/m 3,2 km/h (1 Bft) N 360 1 min 0,000 mm 4,4 UV-I 995 W/m 7,3 C 17,3 C 6,4 km/h (2 Bft) 100,00 %
03.06.2023 13:14 17,6 C 50 % 1019,3 hPa 0,0 l/m 6,4 km/h (2 Bft) SO 135 1 min 0,000 mm 3,8 UV-I 995 W/m 7,1 C 17,6 C 9,7 km/h (2 Bft) 91,30 %
03.06.2023 13:13 17,9 C 48 % 1019,4 hPa 0,0 l/m 9,7 km/h (2 Bft) SO 135 1 min 0,000 mm 4,2 UV-I 995 W/m 6,7 C 17,9 C 14,5 km/h (3 Bft) 100,00 %
03.06.2023 13:12 18,1 C 51 % 1019,4 hPa 0,0 l/m 6,4 km/h (2 Bft) S-SO 157 1 min 0,000 mm 5,4 UV-I 995 W/m 7,8 C 18,1 C 14,5 km/h (3 Bft) 100,00 %
03.06.2023 13:11 18,0 C 55 % 1019,3 hPa 0,0 l/m 8,0 km/h (2 Bft) SO 135 1 min 0,000 mm 6,0 UV-I 1046 W/m 8,8 C 18,0 C 14,5 km/h (3 Bft) 100,00 %
03.06.2023 13:10 17,9 C 56 % 1019,2 hPa 0,0 l/m 6,4 km/h (2 Bft) SO 135 1 min 0,000 mm 6,0 UV-I 1034 W/m 9,0 C 17,9 C 11,3 km/h (2 Bft) 100,00 %
03.06.2023 13:09 17,9 C 56 % 1019,3 hPa 0,0 l/m 9,7 km/h (2 Bft) SO 135 1 min 0,000 mm 6,0 UV-I 944 W/m 9,0 C 17,9 C 14,5 km/h (3 Bft) 100,00 %
03.06.2023 13:08 17,9 C 52 % 1019,3 hPa 0,0 l/m 3,2 km/h (1 Bft) O-NO 67 1 min 0,000 mm 5,6 UV-I 944 W/m 7,9 C 17,9 C 6,4 km/h (2 Bft) 100,00 %
03.06.2023 13:07 17,9 C 55 % 1019,4 hPa 0,0 l/m 3,2 km/h (1 Bft) O 90 1 min 0,000 mm 6,0 UV-I 1048 W/m 8,7 C 17,9 C 9,7 km/h (2 Bft) 95,65 %
03.06.2023 13:06 17,8 C 56 % 1019,4 hPa 0,0 l/m 3,2 km/h (1 Bft) SO 135 1 min 0,000 mm 5,9 UV-I 1020 W/m 8,9 C 17,8 C 6,4 km/h (2 Bft) 100,00 %
03.06.2023 13:05 17,6 C 59 % 1019,4 hPa 0,0 l/m 8,0 km/h (2 Bft) SO 135 1 min 0,000 mm 5,9 UV-I 977 W/m 9,5 C 17,6 C 9,7 km/h (2 Bft) 95,65 %
03.06.2023 13:04 17,4 C 59 % 1019,4 hPa 0,0 l/m 11,3 km/h (2 Bft) O-SO 112 1 min 0,000 mm 5,5 UV-I 895 W/m 9,3 C 17,4 C 16,1 km/h (3 Bft) 100,00 %
03.06.2023 13:03 17,3 C 56 % 1019,4 hPa 0,0 l/m 6,4 km/h (2 Bft) SO 135 1 min 0,000 mm 5,9 UV-I 984 W/m 8,4 C 17,3 C 11,3 km/h (2 Bft) 100,00 %
03.06.2023 13:02 17,3 C 53 % 1019,4 hPa 0,0 l/m 6,4 km/h (2 Bft) O-SO 112 1 min 0,000 mm 5,8 UV-I 1002 W/m 7,6 C 17,3 C 11,3 km/h (2 Bft) 100,00 %
03.06.2023 13:01 17,3 C 54 % 1019,5 hPa 0,0 l/m 6,4 km/h (2 Bft) O 90 1 min 0,000 mm 5,9 UV-I 803 W/m 7,9 C 17,3 C 11,3 km/h (2 Bft) 100,00 %
03.06.2023 13:00 17,4 C 53 % 1019,5 hPa 0,0 l/m 3,2 km/h (1 Bft) O-SO 112 1 min 0,483 mm 5,0 UV-I 707 W/m 7,7 C 17,4 C 8,0 km/h (2 Bft) 95,65 %
03.06.2023 12:59 17,6 C 53 % 1019,5 hPa 0,0 l/m 4,8 km/h (1 Bft) SO 135 1 min 0,000 mm 5,0 UV-I 719 W/m 7,9 C 17,6 C 6,4 km/h (2 Bft) 100,00 %
03.06.2023 12:58 17,7 C 53 % 1019,5 hPa 0,0 l/m 4,8 km/h (1 Bft) SO 135 1 min 0,000 mm 4,5 UV-I 557 W/m 8,0 C 17,7 C 11,3 km/h (2 Bft) 95,65 %
03.06.2023 12:57 17,8 C 54 % 1019,5 hPa 0,0 l/m 3,2 km/h (1 Bft) SO 135 1 min 0,000 mm 5,1 UV-I 557 W/m 8,4 C 17,8 C 6,4 km/h (2 Bft) 100,00 %
03.06.2023 12:56 17,9 C 56 % 1019,5 hPa 0,0 l/m 4,8 km/h (1 Bft) S-SO 157 1 min 0,000 mm 4,5 UV-I 557 W/m 9,0 C 17,9 C 8,0 km/h (2 Bft) 100,00 %
03.06.2023 12:55 17,9 C 59 % 1019,4 hPa 0,0 l/m 9,7 km/h (2 Bft) SO 135 1 min 0,000 mm 4,3 UV-I 997 W/m 9,8 C 17,9 C 16,1 km/h (3 Bft) 95,65 %
03.06.2023 12:54 17,7 C 55 % 1019,5 hPa 0,0 l/m 8,0 km/h (2 Bft) O-SO 112 1 min 0,000 mm 5,4 UV-I 997 W/m 8,5 C 17,7 C 14,5 km/h (3 Bft) 100,00 %
03.06.2023 12:53 17,6 C 56 % 1019,5 hPa 0,0 l/m 8,0 km/h (2 Bft) SO 135 1 min 0,000 mm 5,9 UV-I 997 W/m 8,7 C 17,6 C 14,5 km/h (3 Bft) 86,96 %
03.06.2023 12:52 17,2 C 55 % 1019,4 hPa 0,0 l/m 6,4 km/h (2 Bft) SO 135 1 min 0,000 mm 6,0 UV-I 1065 W/m 8,1 C 17,2 C 11,3 km/h (2 Bft) 95,65 %
03.06.2023 12:51 17,1 C 54 % 1019,4 hPa 0,0 l/m 9,7 km/h (2 Bft) SO 135 1 min 0,000 mm 6,0 UV-I 1032 W/m 7,7 C 17,1 C 14,5 km/h (3 Bft) 100,00 %
03.06.2023 12:50 17,0 C 56 % 1019,5 hPa 0,0 l/m 4,8 km/h (1 Bft) N-NW 337 1 min 0,000 mm 6,0 UV-I 1048 W/m 8,2 C 17,0 C 14,5 km/h (3 Bft) 100,00 %
03.06.2023 12:49 16,9 C 53 % 1019,5 hPa 0,0 l/m 3,2 km/h (1 Bft) SO 135 1 min 0,000 mm 5,8 UV-I 441 W/m 7,3 C 16,9 C 8,0 km/h (2 Bft) 100,00 %
03.06.2023 12:48 17,0 C 51 % 1019,4 hPa 0,0 l/m 8,0 km/h (2 Bft) SO 135 1 min 0,000 mm 4,2 UV-I 441 W/m 6,8 C 17,0 C 14,5 km/h (3 Bft) 95,65 %
03.06.2023 12:47 17,1 C 55 % 1019,4 hPa 0,0 l/m 8,0 km/h (2 Bft) SO 135 1 min 0,000 mm 3,6 UV-I 341 W/m 8,0 C 17,1 C 17,7 km/h (3 Bft) 100,00 %
03.06.2023 12:46 17,1 C 54 % 1019,4 hPa 0,0 l/m 9,7 km/h (2 Bft) SO 135 1 min 0,000 mm 3,6 UV-I 348 W/m 7,7 C 17,1 C 14,5 km/h (3 Bft) 95,65 %
03.06.2023 12:45 17,1 C 54 % 1019,5 hPa 0,0 l/m 8,0 km/h (2 Bft) SO 135 1 min 0,000 mm 4,1 UV-I 1016 W/m 7,7 C 17,1 C 11,3 km/h (2 Bft) 100,00 %
03.06.2023 12:44 17,1 C 55 % 1019,4 hPa 0,0 l/m 4,8 km/h (1 Bft) O-SO 112 1 min 0,000 mm 4,6 UV-I 1016 W/m 8,0 C 17,1 C 8,0 km/h (2 Bft) 100,00 %
03.06.2023 12:43 17,2 C 49 % 1019,4 hPa 0,0 l/m 6,4 km/h (2 Bft) O-NO 67 1 min 0,000 mm 5,1 UV-I 1016 W/m 6,4 C 17,2 C 9,7 km/h (2 Bft) 100,00 %
03.06.2023 12:42 17,2 C 55 % 1019,4 hPa 0,0 l/m 3,2 km/h (1 Bft) SO 135 1 min 0,000 mm 6,0 UV-I 1016 W/m 8,1 C 17,2 C 8,0 km/h (2 Bft) 95,65 %
03.06.2023 12:41 17,0 C 52 % 1019,4 hPa 0,0 l/m 4,8 km/h (1 Bft) O 90 1 min 0,000 mm 6,0 UV-I 1044 W/m 7,1 C 17,0 C 9,7 km/h (2 Bft) 100,00 %
03.06.2023 12:40 17,0 C 56 % 1019,4 hPa 0,0 l/m 4,8 km/h (1 Bft) SO 135 1 min 0,000 mm 6,0 UV-I 1032 W/m 8,2 C 17,0 C 6,4 km/h (2 Bft) 100,00 %
03.06.2023 12:39 16,8 C 56 % 1019,3 hPa 0,0 l/m 4,8 km/h (1 Bft) N 360 1 min 0,000 mm 6,0 UV-I 1027 W/m 8,0 C 16,8 C 6,4 km/h (2 Bft) 95,65 %
03.06.2023 12:38 16,7 C 55 % 1019,3 hPa 0,0 l/m 6,4 km/h (2 Bft) SO 135 1 min 0,000 mm 5,9 UV-I 998 W/m 7,6 C 16,7 C 11,3 km/h (2 Bft) 100,00 %
03.06.2023 12:37 16,6 C 53 % 1019,4 hPa 0,0 l/m 4,8 km/h (1 Bft) NO 45 1 min 0,000 mm 5,8 UV-I 967 W/m 7,0 C 16,6 C 6,4 km/h (2 Bft) 95,65 %
03.06.2023 12:36 16,4 C 53 % 1019,4 hPa 0,0 l/m 8,0 km/h (2 Bft) N-NO 22 1 min 0,000 mm 5,8 UV-I 366 W/m 6,8 C 16,4 C 14,5 km/h (3 Bft) 100,00 %
03.06.2023 12:35 16,5 C 51 % 1019,3 hPa 0,0 l/m 9,7 km/h (2 Bft) N-NO 22 1 min 0,000 mm 5,0 UV-I 366 W/m 6,3 C 16,5 C 12,9 km/h (3 Bft) 100,00 %
03.06.2023 12:34 16,7 C 51 % 1019,4 hPa 0,0 l/m 3,2 km/h (1 Bft) O 90 1 min 0,000 mm 4,0 UV-I 366 W/m 6,5 C 16,7 C 6,4 km/h (2 Bft) 100,00 %
03.06.2023 12:33 16,9 C 49 % 1019,4 hPa 0,0 l/m 4,8 km/h (1 Bft) N-NO 22 1 min 0,000 mm 4,1 UV-I 969 W/m 6,1 C 16,9 C 8,0 km/h (2 Bft) 100,00 %
03.06.2023 12:32 17,2 C 49 % 1019,5 hPa 0,0 l/m 4,8 km/h (1 Bft) N 360 1 min 0,000 mm 5,7 UV-I 969 W/m 6,4 C 17,2 C 6,4 km/h (2 Bft) 95,65 %
03.06.2023 12:31 17,4 C 50 % 1019,5 hPa 0,0 l/m 4,8 km/h (1 Bft) O-SO 112 1 min 0,000 mm 5,8 UV-I 963 W/m 6,9 C 17,4 C 8,0 km/h (2 Bft) 100,00 %
03.06.2023 12:30 17,7 C 53 % 1019,4 hPa 0,0 l/m 4,8 km/h (1 Bft) O-SO 112 1 min 0,000 mm 5,8 UV-I 954 W/m 8,0 C 17,7 C 12,9 km/h (3 Bft) 100,00 %
03.06.2023 12:29 17,7 C 54 % 1019,5 hPa 0,0 l/m 4,8 km/h (1 Bft) N-NO 22 1 min 0,000 mm 5,8 UV-I 947 W/m 8,3 C 17,7 C 11,3 km/h (2 Bft) 95,65 %
03.06.2023 12:28 17,8 C 59 % 1019,5 hPa 0,0 l/m 9,7 km/h (2 Bft) SO 135 1 min 0,000 mm 5,7 UV-I 942 W/m 9,7 C 17,8 C 12,9 km/h (3 Bft) 95,65 %
03.06.2023 12:27 17,7 C 55 % 1019,5 hPa 0,0 l/m 12,9 km/h (3 Bft) S-SO 157 1 min 0,000 mm 5,7 UV-I 937 W/m 8,5 C 17,7 C 17,7 km/h (3 Bft) 100,00 %
03.06.2023 12:26 17,5 C 58 % 1019,5 hPa 0,0 l/m 11,3 km/h (2 Bft) SO 135 1 min 0,000 mm 5,6 UV-I 930 W/m 9,1 C 17,5 C 16,1 km/h (3 Bft) 100,00 %
03.06.2023 12:25 17,2 C 58 % 1019,5 hPa 0,0 l/m 4,8 km/h (1 Bft) SO 135 1 min 0,000 mm 5,6 UV-I 923 W/m 8,9 C 17,2 C 14,5 km/h (3 Bft) 95,65 %
03.06.2023 12:24 17,1 C 56 % 1019,5 hPa 0,0 l/m 8,0 km/h (2 Bft) SO 135 1 min 0,000 mm 5,6 UV-I 925 W/m 8,3 C 17,1 C 12,9 km/h (3 Bft) 100,00 %
03.06.2023 12:23 17,1 C 57 % 1019,5 hPa 0,0 l/m 6,4 km/h (2 Bft) SO 135 1 min 0,000 mm 5,6 UV-I 853 W/m 8,5 C 17,1 C 14,5 km/h (3 Bft) 95,65 %
03.06.2023 12:22 16,9 C 57 % 1019,4 hPa 0,0 l/m 6,4 km/h (2 Bft) SO 135 1 min 0,000 mm 5,2 UV-I 853 W/m 8,3 C 16,9 C 11,3 km/h (2 Bft) 100,00 %
03.06.2023 12:21 16,7 C 56 % 1019,4 hPa 0,0 l/m 12,9 km/h (3 Bft) O-SO 112 1 min 0,000 mm 5,6 UV-I 853 W/m 7,9 C 16,7 C 20,9 km/h (4 Bft) 100,00 %
03.06.2023 12:20 16,6 C 52 % 1019,4 hPa 0,0 l/m 3,2 km/h (1 Bft) O-SO 112 1 min 0,000 mm 4,4 UV-I 608 W/m 6,7 C 16,6 C 8,0 km/h (2 Bft) 100,00 %
03.06.2023 12:19 16,7 C 54 % 1019,5 hPa 0,0 l/m 6,4 km/h (2 Bft) SO 135 1 min 0,000 mm 4,4 UV-I 608 W/m 7,3 C 16,7 C 11,3 km/h (2 Bft) 100,00 %
03.06.2023 12:18 16,7 C 53 % 1019,4 hPa 0,0 l/m 3,2 km/h (1 Bft) N 360 1 min 0,000 mm 4,6 UV-I 745 W/m 7,1 C 16,7 C 4,8 km/h (1 Bft) 91,30 %
03.06.2023 12:17 16,8 C 56 % 1019,4 hPa 0,0 l/m 4,8 km/h (1 Bft) S-SO 157 1 min 0,000 mm 4,3 UV-I 745 W/m 8,0 C 16,8 C 9,7 km/h (2 Bft) 100,00 %
03.06.2023 12:16 16,8 C 53 % 1019,4 hPa 0,0 l/m 4,8 km/h (1 Bft) SO 135 1 min 0,000 mm 5,2 UV-I 745 W/m 7,2 C 16,8 C 8,0 km/h (2 Bft) 100,00 %
03.06.2023 12:15 16,9 C 50 % 1019,5 hPa 0,0 l/m 6,4 km/h (2 Bft) N-NO 22 1 min 0,000 mm 5,1 UV-I 784 W/m 6,4 C 16,9 C 12,9 km/h (3 Bft) 100,00 %
03.06.2023 12:14 16,9 C 55 % 1019,4 hPa 0,0 l/m 4,8 km/h (1 Bft) N-NO 22 1 min 0,000 mm 5,6 UV-I 928 W/m 7,8 C 16,9 C 8,0 km/h (2 Bft) 100,00 %
03.06.2023 12:13 16,9 C 53 % 1019,5 hPa 0,0 l/m 9,7 km/h (2 Bft) O-SO 112 1 min 0,000 mm 5,6 UV-I 963 W/m 7,3 C 16,9 C 14,5 km/h (3 Bft) 100,00 %
03.06.2023 12:12 17,0 C 53 % 1019,4 hPa 0,0 l/m 3,2 km/h (1 Bft) O-SO 112 1 min 0,000 mm 5,7 UV-I 976 W/m 7,4 C 17,0 C 11,3 km/h (2 Bft) 95,65 %
03.06.2023 12:11 17,0 C 56 % 1019,5 hPa 0,0 l/m 8,0 km/h (2 Bft) O-SO 112 1 min 0,000 mm 5,7 UV-I 995 W/m 8,2 C 17,0 C 14,5 km/h (3 Bft) 95,65 %
03.06.2023 12:10 16,9 C 59 % 1019,4 hPa 0,0 l/m 6,4 km/h (2 Bft) NO 45 1 min 0,000 mm 5,7 UV-I 1020 W/m 8,8 C 16,9 C 11,3 km/h (2 Bft) 100,00 %
03.06.2023 12:09 16,8 C 55 % 1019,4 hPa 0,0 l/m 11,3 km/h (2 Bft) O-SO 112 1 min 0,000 mm 5,2 UV-I 940 W/m 7,7 C 16,8 C 17,7 km/h (3 Bft) 95,65 %
03.06.2023 12:08 16,9 C 55 % 1019,5 hPa 0,0 l/m 4,8 km/h (1 Bft) O-NO 67 1 min 0,000 mm 4,8 UV-I 940 W/m 7,8 C 16,9 C 8,0 km/h (2 Bft) 100,00 %
03.06.2023 12:07 17,1 C 51 % 1019,5 hPa 0,0 l/m 6,4 km/h (2 Bft) N-NO 22 1 min 0,000 mm 5,2 UV-I 940 W/m 6,9 C 17,1 C 11,3 km/h (2 Bft) 100,00 %
03.06.2023 12:06 17,2 C 60 % 1019,5 hPa 0,0 l/m 3,2 km/h (1 Bft) O-SO 112 1 min 0,000 mm 5,5 UV-I 940 W/m 9,4 C 17,2 C 6,4 km/h (2 Bft) 95,65 %
03.06.2023 12:05 17,1 C 57 % 1019,5 hPa 0,0 l/m 4,8 km/h (1 Bft) O-SO 112 1 min 0,000 mm 5,6 UV-I 937 W/m 8,5 C 17,1 C 9,7 km/h (2 Bft) 95,65 %
03.06.2023 12:04 16,9 C 56 % 1019,5 hPa 0,0 l/m 3,2 km/h (1 Bft) O-SO 112 1 min 0,000 mm 5,5 UV-I 933 W/m 8,1 C 16,9 C 8,0 km/h (2 Bft) 95,65 %
03.06.2023 12:03 16,8 C 56 % 1019,5 hPa 0,0 l/m 4,8 km/h (1 Bft) NO 45 1 min 0,000 mm 5,5 UV-I 935 W/m 8,0 C 16,8 C 9,7 km/h (2 Bft) 95,65 %
03.06.2023 12:02 16,8 C 52 % 1019,6 hPa 0,0 l/m 6,4 km/h (2 Bft) N-NO 22 1 min 0,000 mm 5,5 UV-I 933 W/m 6,9 C 16,8 C 9,7 km/h (2 Bft) 100,00 %
03.06.2023 12:01 16,9 C 53 % 1019,5 hPa 0,0 l/m 6,4 km/h (2 Bft) NO 45 1 min 0,000 mm 5,5 UV-I 921 W/m 7,3 C 16,9 C 9,7 km/h (2 Bft) 100,00 %
03.06.2023 12:00 16,9 C 55 % 1019,6 hPa 0,0 l/m 4,8 km/h (1 Bft) N 360 1 min 0,508 mm 5,4 UV-I 909 W/m 7,8 C 16,9 C 6,4 km/h (2 Bft) 95,65 %
03.06.2023 11:59 16,9 C 55 % 1019,6 hPa 0,0 l/m 4,8 km/h (1 Bft) NW 315 1 min 0,000 mm 5,5 UV-I 933 W/m 7,8 C 16,9 C 6,4 km/h (2 Bft) 100,00 %
03.06.2023 11:58 17,1 C 55 % 1019,7 hPa 0,0 l/m 6,4 km/h (2 Bft) NO 45 1 min 0,000 mm 5,5 UV-I 935 W/m 8,0 C 17,1 C 14,5 km/h (3 Bft) 100,00 %
03.06.2023 11:57 17,2 C 54 % 1019,6 hPa 0,0 l/m 3,2 km/h (1 Bft) S-SO 157 1 min 0,000 mm 5,5 UV-I 940 W/m 7,8 C 17,2 C 6,4 km/h (2 Bft) 95,65 %
03.06.2023 11:56 17,3 C 57 % 1019,6 hPa 0,0 l/m 6,4 km/h (2 Bft) S-SO 157 1 min 0,000 mm 5,4 UV-I 935 W/m 8,7 C 17,3 C 11,3 km/h (2 Bft) 91,30 %
03.06.2023 11:55 17,4 C 56 % 1019,6 hPa 0,0 l/m 8,0 km/h (2 Bft) S-SO 157 1 min 0,000 mm 5,4 UV-I 925 W/m 8,5 C 17,4 C 16,1 km/h (3 Bft) 100,00 %
03.06.2023 11:54 17,3 C 57 % 1019,6 hPa 0,0 l/m 16,1 km/h (3 Bft) O-SO 112 1 min 0,000 mm 5,4 UV-I 925 W/m 8,7 C 17,3 C 19,3 km/h (3 Bft) 100,00 %
03.06.2023 11:53 17,2 C 58 % 1019,6 hPa 0,0 l/m 14,5 km/h (3 Bft) SO 135 1 min 0,000 mm 5,4 UV-I 926 W/m 8,9 C 17,2 C 19,3 km/h (3 Bft) 100,00 %
03.06.2023 11:52 16,9 C 59 % 1019,6 hPa 0,0 l/m 4,8 km/h (1 Bft) O-SO 112 1 min 0,000 mm 5,4 UV-I 923 W/m 8,8 C 16,9 C 9,7 km/h (2 Bft) 100,00 %
03.06.2023 11:51 16,8 C 59 % 1019,5 hPa 0,0 l/m 12,9 km/h (3 Bft) S-SO 157 1 min 0,000 mm 5,3 UV-I 928 W/m 8,7 C 16,8 C 17,7 km/h (3 Bft) 100,00 %
03.06.2023 11:50 16,5 C 59 % 1019,6 hPa 0,0 l/m 8,0 km/h (2 Bft) SO 135 1 min 0,000 mm 5,4 UV-I 942 W/m 8,5 C 16,5 C 12,9 km/h (3 Bft) 95,65 %
03.06.2023 11:49 16,3 C 56 % 1019,6 hPa 0,0 l/m 6,4 km/h (2 Bft) S 180 1 min 0,000 mm 5,4 UV-I 954 W/m 7,5 C 16,3 C 12,9 km/h (3 Bft) 100,00 %
03.06.2023 11:48 16,3 C 53 % 1019,5 hPa 0,0 l/m 6,4 km/h (2 Bft) S-SO 157 1 min 0,000 mm 5,4 UV-I 371 W/m 6,7 C 16,3 C 11,3 km/h (2 Bft) 100,00 %
03.06.2023 11:47 16,4 C 52 % 1019,5 hPa 0,0 l/m 3,2 km/h (1 Bft) W-NW 292 1 min 0,000 mm 4,2 UV-I 371 W/m 6,5 C 16,4 C 4,8 km/h (1 Bft) 100,00 %
03.06.2023 11:46 16,6 C 54 % 1019,5 hPa 0,0 l/m 3,2 km/h (1 Bft) S-SO 157 1 min 0,000 mm 4,0 UV-I 928 W/m 7,3 C 16,6 C 4,8 km/h (1 Bft) 95,65 %
03.06.2023 11:45 16,6 C 58 % 1019,5 hPa 0,0 l/m 6,4 km/h (2 Bft) SO 135 1 min 0,000 mm 5,3 UV-I 928 W/m 8,3 C 16,6 C 12,9 km/h (3 Bft) 100,00 %
03.06.2023 11:44 16,6 C 59 % 1019,6 hPa 0,0 l/m 4,8 km/h (1 Bft) NO 45 1 min 0,000 mm 5,3 UV-I 928 W/m 8,6 C 16,6 C 11,3 km/h (2 Bft) 100,00 %
03.06.2023 11:43 16,6 C 54 % 1019,5 hPa 0,0 l/m 8,0 km/h (2 Bft) S-SO 157 1 min 0,000 mm 5,2 UV-I 911 W/m 7,3 C 16,6 C 14,5 km/h (3 Bft) 91,30 %
03.06.2023 11:42 16,6 C 54 % 1019,5 hPa 0,0 l/m 6,4 km/h (2 Bft) SO 135 1 min 0,000 mm 5,2 UV-I 891 W/m 7,3 C 16,6 C 9,7 km/h (2 Bft) 100,00 %
03.06.2023 11:41 16,7 C 53 % 1019,6 hPa 0,0 l/m 9,7 km/h (2 Bft) SO 135 1 min 0,000 mm 5,2 UV-I 900 W/m 7,1 C 16,7 C 14,5 km/h (3 Bft) 95,65 %
03.06.2023 11:40 16,9 C 55 % 1019,5 hPa 0,0 l/m 11,3 km/h (2 Bft) SO 135 1 min 0,000 mm 5,2 UV-I 900 W/m 7,8 C 16,9 C 16,1 km/h (3 Bft) 95,65 %
03.06.2023 11:39 16,8 C 53 % 1019,6 hPa 0,0 l/m 3,2 km/h (1 Bft) NW 315 1 min 0,000 mm 5,2 UV-I 893 W/m 7,2 C 16,8 C 8,0 km/h (2 Bft) 95,65 %
03.06.2023 11:38 16,8 C 55 % 1019,5 hPa 0,0 l/m 8,0 km/h (2 Bft) O-SO 112 1 min 0,000 mm 5,1 UV-I 888 W/m 7,7 C 16,8 C 14,5 km/h (3 Bft) 95,65 %
03.06.2023 11:37 16,8 C 55 % 1019,6 hPa 0,0 l/m 4,8 km/h (1 Bft) SO 135 1 min 0,000 mm 5,1 UV-I 884 W/m 7,7 C 16,8 C 12,9 km/h (3 Bft) 100,00 %
03.06.2023 11:36 16,8 C 54 % 1019,5 hPa 0,0 l/m 8,0 km/h (2 Bft) SO 135 1 min 0,000 mm 5,1 UV-I 881 W/m 7,4 C 16,8 C 12,9 km/h (3 Bft) 91,30 %
03.06.2023 11:35 16,9 C 53 % 1019,5 hPa 0,0 l/m 8,0 km/h (2 Bft) O-SO 112 1 min 0,000 mm 5,1 UV-I 882 W/m 7,3 C 16,9 C 12,9 km/h (3 Bft) 100,00 %
03.06.2023 11:34 16,9 C 56 % 1019,5 hPa 0,0 l/m 12,9 km/h (3 Bft) SO 135 1 min 0,000 mm 5,1 UV-I 881 W/m 8,1 C 16,9 C 17,7 km/h (3 Bft) 95,65 %
03.06.2023 11:33 16,8 C 57 % 1019,6 hPa 0,0 l/m 6,4 km/h (2 Bft) O-SO 112 1 min 0,000 mm 5,1 UV-I 875 W/m 8,2 C 16,8 C 12,9 km/h (3 Bft) 91,30 %
03.06.2023 11:32 16,7 C 58 % 1019,5 hPa 0,0 l/m 3,2 km/h (1 Bft) O 90 1 min 0,000 mm 5,0 UV-I 870 W/m 8,4 C 16,7 C 4,8 km/h (1 Bft) 91,30 %
03.06.2023 11:31 16,6 C 56 % 1019,4 hPa 0,0 l/m 9,7 km/h (2 Bft) SO 135 1 min 0,000 mm 5,0 UV-I 868 W/m 7,8 C 16,6 C 16,1 km/h (3 Bft) 100,00 %
03.06.2023 11:30 16,5 C 54 % 1019,5 hPa 0,0 l/m 11,3 km/h (2 Bft) O-SO 112 1 min 0,000 mm 5,0 UV-I 863 W/m 7,2 C 16,5 C 17,7 km/h (3 Bft) 95,65 %
03.06.2023 11:29 16,4 C 54 % 1019,5 hPa 0,0 l/m 8,0 km/h (2 Bft) N 360 1 min 0,000 mm 5,0 UV-I 865 W/m 7,1 C 16,4 C 14,5 km/h (3 Bft) 91,30 %
03.06.2023 11:28 16,4 C 54 % 1019,4 hPa 0,0 l/m 6,4 km/h (2 Bft) SO 135 1 min 0,000 mm 5,0 UV-I 861 W/m 7,1 C 16,4 C 14,5 km/h (3 Bft) 100,00 %
03.06.2023 11:27 16,5 C 54 % 1019,5 hPa 0,0 l/m 4,8 km/h (1 Bft) S-SO 157 1 min 0,000 mm 5,0 UV-I 863 W/m 7,2 C 16,5 C 9,7 km/h (2 Bft) 86,96 %
03.06.2023 11:26 16,6 C 53 % 1019,4 hPa 0,0 l/m 8,0 km/h (2 Bft) S-SO 157 1 min 0,000 mm 5,0 UV-I 860 W/m 7,0 C 16,6 C 19,3 km/h (3 Bft) 100,00 %
03.06.2023 11:25 16,7 C 55 % 1019,6 hPa 0,0 l/m 9,7 km/h (2 Bft) SO 135 1 min 0,000 mm 5,0 UV-I 860 W/m 7,6 C 16,7 C 16,1 km/h (3 Bft) 95,65 %
03.06.2023 11:24 16,6 C 58 % 1019,4 hPa 0,0 l/m 4,8 km/h (1 Bft) O-SO 112 1 min 0,000 mm 4,9 UV-I 860 W/m 8,3 C 16,6 C 9,7 km/h (2 Bft) 95,65 %
03.06.2023 11:23 16,5 C 57 % 1019,5 hPa 0,0 l/m 4,8 km/h (1 Bft) O 90 1 min 0,000 mm 4,9 UV-I 860 W/m 8,0 C 16,5 C 9,7 km/h (2 Bft) 95,65 %
03.06.2023 11:22 16,4 C 55 % 1019,5 hPa 0,0 l/m 6,4 km/h (2 Bft) S-SO 157 1 min 0,000 mm 4,9 UV-I 856 W/m 7,3 C 16,4 C 8,0 km/h (2 Bft) 95,65 %
03.06.2023 11:21 16,3 C 57 % 1019,6 hPa 0,0 l/m 8,0 km/h (2 Bft) S-SO 157 1 min 0,000 mm 4,9 UV-I 849 W/m 7,8 C 16,3 C 12,9 km/h (3 Bft) 91,30 %
03.06.2023 11:20 16,4 C 54 % 1019,6 hPa 0,0 l/m 9,7 km/h (2 Bft) SO 135 1 min 0,000 mm 4,8 UV-I 847 W/m 7,1 C 16,4 C 19,3 km/h (3 Bft) 95,65 %
03.06.2023 11:19 16,4 C 59 % 1019,5 hPa 0,0 l/m 6,4 km/h (2 Bft) SO 135 1 min 0,000 mm 4,8 UV-I 849 W/m 8,4 C 16,4 C 9,7 km/h (2 Bft) 100,00 %
03.06.2023 11:18 16,4 C 55 % 1019,5 hPa 0,0 l/m 3,2 km/h (1 Bft) NO 45 1 min 0,000 mm 4,8 UV-I 847 W/m 7,3 C 16,4 C 6,4 km/h (2 Bft) 95,65 %
03.06.2023 11:17 16,6 C 56 % 1019,5 hPa 0,0 l/m 4,8 km/h (1 Bft) SO 135 1 min 0,000 mm 4,8 UV-I 846 W/m 7,8 C 16,6 C 9,7 km/h (2 Bft) 100,00 %
03.06.2023 11:16 16,4 C 56 % 1019,6 hPa 0,0 l/m 4,8 km/h (1 Bft) O 90 1 min 0,000 mm 4,8 UV-I 842 W/m 7,6 C 16,4 C 14,5 km/h (3 Bft) 95,65 %
03.06.2023 11:15 16,3 C 57 % 1019,6 hPa 0,0 l/m 12,9 km/h (3 Bft) O-SO 112 1 min 0,000 mm 4,8 UV-I 838 W/m 7,8 C 16,3 C 17,7 km/h (3 Bft) 95,65 %
03.06.2023 11:14 16,1 C 58 % 1019,4 hPa 0,0 l/m 16,1 km/h (3 Bft) S-SO 157 1 min 0,000 mm 4,8 UV-I 838 W/m 7,8 C 16,1 C 22,5 km/h (4 Bft) 95,65 %
03.06.2023 11:13 15,9 C 54 % 1019,5 hPa 0,0 l/m 11,3 km/h (2 Bft) S-SO 157 1 min 0,000 mm 4,7 UV-I 837 W/m 6,6 C 15,9 C 17,7 km/h (3 Bft) 100,00 %
03.06.2023 11:12 15,9 C 54 % 1019,5 hPa 0,0 l/m 1,6 km/h (1 Bft) SO 135 1 min 0,000 mm 4,7 UV-I 835 W/m 6,6 C 15,9 C 9,7 km/h (2 Bft) 95,65 %
03.06.2023 11:11 15,8 C 55 % 1019,5 hPa 0,0 l/m 4,8 km/h (1 Bft) SO 135 1 min 0,000 mm 4,7 UV-I 833 W/m 6,8 C 15,8 C 11,3 km/h (2 Bft) 95,65 %
03.06.2023 11:10 15,8 C 54 % 1019,5 hPa 0,0 l/m 6,4 km/h (2 Bft) O 90 1 min 0,000 mm 4,7 UV-I 828 W/m 6,5 C 15,8 C 12,9 km/h (3 Bft) 100,00 %
03.06.2023 11:09 15,9 C 56 % 1019,6 hPa 0,0 l/m 3,2 km/h (1 Bft) N 360 1 min 0,000 mm 4,7 UV-I 830 W/m 7,1 C 15,9 C 6,4 km/h (2 Bft) 95,65 %
03.06.2023 11:08 15,9 C 53 % 1019,6 hPa 0,0 l/m 3,2 km/h (1 Bft) N 360 1 min 0,000 mm 4,6 UV-I 824 W/m 6,3 C 15,9 C 6,4 km/h (2 Bft) 95,65 %
03.06.2023 11:07 16,0 C 54 % 1019,5 hPa 0,0 l/m 3,2 km/h (1 Bft) N-NO 22 1 min 0,000 mm 4,6 UV-I 821 W/m 6,7 C 16,0 C 4,8 km/h (1 Bft) 100,00 %
03.06.2023 11:06 16,0 C 55 % 1019,6 hPa 0,0 l/m 3,2 km/h (1 Bft) SO 135 1 min 0,000 mm 4,6 UV-I 819 W/m 7,0 C 16,0 C 6,4 km/h (2 Bft) 100,00 %
03.06.2023 11:05 16,2 C 56 % 1019,6 hPa 0,0 l/m 3,2 km/h (1 Bft) SO 135 1 min 0,000 mm 4,6 UV-I 821 W/m 7,4 C 16,2 C 8,0 km/h (2 Bft) 100,00 %
03.06.2023 11:04 16,1 C 56 % 1019,6 hPa 0,0 l/m 4,8 km/h (1 Bft) SO 135 1 min 0,000 mm 4,6 UV-I 819 W/m 7,3 C 16,1 C 9,7 km/h (2 Bft) 100,00 %
03.06.2023 11:03 16,1 C 59 % 1019,5 hPa 0,0 l/m 8,0 km/h (2 Bft) S-SO 157 1 min 0,000 mm 4,6 UV-I 819 W/m 8,1 C 16,1 C 12,9 km/h (3 Bft) 100,00 %
03.06.2023 11:02 15,9 C 58 % 1019,4 hPa 0,0 l/m 4,8 km/h (1 Bft) SO 135 1 min 0,000 mm 4,6 UV-I 819 W/m 7,6 C 15,9 C 9,7 km/h (2 Bft) 100,00 %
03.06.2023 11:01 15,9 C 55 % 1019,5 hPa 0,0 l/m 6,4 km/h (2 Bft) O 90 1 min 0,000 mm 4,5 UV-I 816 W/m 6,9 C 15,9 C 17,7 km/h (3 Bft) 95,65 %
03.06.2023 11:00 15,9 C 57 % 1019,6 hPa 0,0 l/m 6,4 km/h (2 Bft) O-SO 112 1 min 0,432 mm 4,5 UV-I 814 W/m 7,4 C 15,9 C 17,7 km/h (3 Bft) 100,00 %
03.06.2023 10:59 16,0 C 58 % 1019,6 hPa 0,0 l/m 4,8 km/h (1 Bft) O-SO 112 1 min 0,000 mm 4,5 UV-I 810 W/m 7,7 C 16,0 C 9,7 km/h (2 Bft) 100,00 %
03.06.2023 10:58 16,1 C 54 % 1019,6 hPa 0,0 l/m 3,2 km/h (1 Bft) N-NO 22 1 min 0,000 mm 4,4 UV-I 805 W/m 6,8 C 16,1 C 6,4 km/h (2 Bft) 100,00 %
03.06.2023 10:57 16,2 C 56 % 1019,6 hPa 0,0 l/m 3,2 km/h (1 Bft) O-SO 112 1 min 0,000 mm 4,4 UV-I 809 W/m 7,4 C 16,2 C 9,7 km/h (2 Bft) 100,00 %
03.06.2023 10:56 16,2 C 60 % 1019,5 hPa 0,0 l/m 16,1 km/h (3 Bft) S-SO 157 1 min 0,000 mm 4,4 UV-I 809 W/m 8,4 C 16,2 C 22,5 km/h (4 Bft) 95,65 %
03.06.2023 10:55 16,1 C 62 % 1019,6 hPa 0,0 l/m 16,1 km/h (3 Bft) SO 135 1 min 0,000 mm 4,4 UV-I 810 W/m 8,8 C 16,1 C 19,3 km/h (3 Bft) 100,00 %
03.06.2023 10:54 15,8 C 55 % 1019,6 hPa 0,0 l/m 9,7 km/h (2 Bft) S-SO 157 1 min 0,000 mm 4,4 UV-I 807 W/m 6,8 C 15,8 C 17,7 km/h (3 Bft) 95,65 %
03.06.2023 10:53 15,8 C 59 % 1019,6 hPa 0,0 l/m 9,7 km/h (2 Bft) SO 135 1 min 0,000 mm 4,4 UV-I 805 W/m 7,8 C 15,8 C 12,9 km/h (3 Bft) 95,65 %
03.06.2023 10:52 15,7 C 60 % 1019,5 hPa 0,0 l/m 16,1 km/h (3 Bft) O-SO 112 1 min 0,000 mm 4,3 UV-I 802 W/m 8,0 C 15,7 C 19,3 km/h (3 Bft) 100,00 %
03.06.2023 10:51 15,7 C 57 % 1019,6 hPa 0,0 l/m 8,0 km/h (2 Bft) S-SO 157 1 min 0,000 mm 4,3 UV-I 800 W/m 7,2 C 15,7 C 19,3 km/h (3 Bft) 95,65 %
03.06.2023 10:50 15,7 C 57 % 1019,6 hPa 0,0 l/m 4,8 km/h (1 Bft) SO 135 1 min 0,000 mm 4,3 UV-I 800 W/m 7,2 C 15,7 C 9,7 km/h (2 Bft) 100,00 %
03.06.2023 10:49 15,7 C 58 % 1019,5 hPa 0,0 l/m 6,4 km/h (2 Bft) SO 135 1 min 0,000 mm 4,3 UV-I 796 W/m 7,5 C 15,7 C 9,7 km/h (2 Bft) 95,65 %
03.06.2023 10:48 15,7 C 56 % 1019,5 hPa 0,0 l/m 3,2 km/h (1 Bft) S 180 1 min 0,000 mm 4,3 UV-I 793 W/m 6,9 C 15,7 C 6,4 km/h (2 Bft) 95,65 %
03.06.2023 10:47 15,8 C 57 % 1019,5 hPa 0,0 l/m 8,0 km/h (2 Bft) SO 135 1 min 0,000 mm 4,2 UV-I 791 W/m 7,3 C 15,8 C 12,9 km/h (3 Bft) 95,65 %
03.06.2023 10:46 15,8 C 56 % 1019,5 hPa 0,0 l/m 11,3 km/h (2 Bft) O-SO 112 1 min 0,000 mm 4,2 UV-I 786 W/m 7,0 C 15,8 C 16,1 km/h (3 Bft) 100,00 %
03.06.2023 10:45 15,9 C 61 % 1019,5 hPa 0,0 l/m 6,4 km/h (2 Bft) SO 135 1 min 0,000 mm 4,2 UV-I 786 W/m 8,4 C 15,9 C 22,5 km/h (4 Bft) 95,65 %
03.06.2023 10:44 15,9 C 62 % 1019,5 hPa 0,0 l/m 12,9 km/h (3 Bft) SO 135 1 min 0,000 mm 4,1 UV-I 780 W/m 8,6 C 15,9 C 20,9 km/h (4 Bft) 95,65 %
03.06.2023 10:43 15,8 C 60 % 1019,5 hPa 0,0 l/m 11,3 km/h (2 Bft) SO 135 1 min 0,000 mm 4,1 UV-I 780 W/m 8,1 C 15,8 C 16,1 km/h (3 Bft) 95,65 %
03.06.2023 10:42 15,6 C 59 % 1019,5 hPa 0,0 l/m 9,7 km/h (2 Bft) SO 135 1 min 0,000 mm 4,1 UV-I 780 W/m 7,6 C 15,6 C 16,1 km/h (3 Bft) 100,00 %
03.06.2023 10:41 15,4 C 59 % 1019,6 hPa 0,0 l/m 11,3 km/h (2 Bft) SO 135 1 min 0,000 mm 4,0 UV-I 779 W/m 7,4 C 15,4 C 17,7 km/h (3 Bft) 95,65 %
03.06.2023 10:40 15,4 C 58 % 1019,5 hPa 0,0 l/m 11,3 km/h (2 Bft) SO 135 1 min 0,000 mm 4,0 UV-I 770 W/m 7,2 C 15,4 C 17,7 km/h (3 Bft) 95,65 %
03.06.2023 10:39 15,3 C 56 % 1019,5 hPa 0,0 l/m 12,9 km/h (3 Bft) SO 135 1 min 0,000 mm 4,0 UV-I 768 W/m 6,6 C 15,3 C 17,7 km/h (3 Bft) 100,00 %
03.06.2023 10:38 15,2 C 56 % 1019,5 hPa 0,0 l/m 6,4 km/h (2 Bft) SO 135 1 min 0,000 mm 4,0 UV-I 768 W/m 6,5 C 15,2 C 9,7 km/h (2 Bft) 95,65 %
03.06.2023 10:37 15,2 C 58 % 1019,5 hPa 0,0 l/m 6,4 km/h (2 Bft) S-SO 157 1 min 0,000 mm 4,0 UV-I 772 W/m 7,0 C 15,2 C 11,3 km/h (2 Bft) 100,00 %
03.06.2023 10:36 15,2 C 57 % 1019,5 hPa 0,0 l/m 6,4 km/h (2 Bft) SO 135 1 min 0,000 mm 4,0 UV-I 766 W/m 6,7 C 15,2 C 12,9 km/h (3 Bft) 100,00 %
03.06.2023 10:35 15,1 C 59 % 1019,5 hPa 0,0 l/m 8,0 km/h (2 Bft) SO 135 1 min 0,000 mm 3,9 UV-I 761 W/m 7,1 C 15,1 C 17,7 km/h (3 Bft) 100,00 %
03.06.2023 10:34 15,2 C 57 % 1019,4 hPa 0,0 l/m 4,8 km/h (1 Bft) W 270 1 min 0,000 mm 3,9 UV-I 759 W/m 6,7 C 15,2 C 9,7 km/h (2 Bft) 100,00 %
03.06.2023 10:33 15,1 C 57 % 1019,4 hPa 0,0 l/m 6,4 km/h (2 Bft) O 90 1 min 0,000 mm 3,9 UV-I 763 W/m 6,6 C 15,1 C 14,5 km/h (3 Bft) 95,65 %
03.06.2023 10:32 14,9 C 60 % 1019,4 hPa 0,0 l/m 3,2 km/h (1 Bft) SO 135 1 min 0,000 mm 3,9 UV-I 766 W/m 7,2 C 14,9 C 6,4 km/h (2 Bft) 95,65 %
03.06.2023 10:31 14,8 C 58 % 1019,4 hPa 0,0 l/m 4,8 km/h (1 Bft) O 90 1 min 0,000 mm 3,9 UV-I 765 W/m 6,6 C 14,8 C 14,5 km/h (3 Bft) 100,00 %
03.06.2023 10:30 14,8 C 57 % 1019,3 hPa 0,0 l/m 8,0 km/h (2 Bft) N-NO 22 1 min 0,000 mm 3,9 UV-I 763 W/m 6,4 C 14,8 C 14,5 km/h (3 Bft) 100,00 %
03.06.2023 10:29 14,8 C 57 % 1019,4 hPa 0,0 l/m 6,4 km/h (2 Bft) NO 45 1 min 0,000 mm 3,8 UV-I 754 W/m 6,4 C 14,8 C 12,9 km/h (3 Bft) 100,00 %
03.06.2023 10:28 14,8 C 59 % 1019,3 hPa 0,0 l/m 8,0 km/h (2 Bft) S-SO 157 1 min 0,000 mm 3,8 UV-I 747 W/m 6,9 C 14,8 C 12,9 km/h (3 Bft) 100,00 %
03.06.2023 10:27 14,8 C 58 % 1019,3 hPa 0,0 l/m 3,2 km/h (1 Bft) N 360 1 min 0,000 mm 3,8 UV-I 740 W/m 6,6 C 14,8 C 6,4 km/h (2 Bft) 100,00 %
03.06.2023 10:26 14,9 C 58 % 1019,4 hPa 0,0 l/m 6,4 km/h (2 Bft) O-NO 67 1 min 0,000 mm 3,8 UV-I 742 W/m 6,7 C 14,9 C 11,3 km/h (2 Bft) 95,65 %
03.06.2023 10:25 14,9 C 57 % 1019,3 hPa 0,0 l/m 6,4 km/h (2 Bft) N-NO 22 1 min 0,000 mm 3,8 UV-I 745 W/m 6,5 C 14,9 C 14,5 km/h (3 Bft) 91,30 %
03.06.2023 10:24 15,1 C 56 % 1019,4 hPa 0,0 l/m 4,8 km/h (1 Bft) S-SO 157 1 min 0,000 mm 3,8 UV-I 747 W/m 6,4 C 15,1 C 8,0 km/h (2 Bft) 100,00 %
03.06.2023 10:23 15,1 C 59 % 1019,2 hPa 0,0 l/m 6,4 km/h (2 Bft) SO 135 1 min 0,000 mm 3,7 UV-I 742 W/m 7,1 C 15,1 C 16,1 km/h (3 Bft) 100,00 %
03.06.2023 10:22 15,1 C 62 % 1019,3 hPa 0,0 l/m 11,3 km/h (2 Bft) O-SO 112 1 min 0,000 mm 3,7 UV-I 737 W/m 7,9 C 15,1 C 16,1 km/h (3 Bft) 95,65 %
03.06.2023 10:21 14,8 C 62 % 1019,3 hPa 0,0 l/m 4,8 km/h (1 Bft) SO 135 1 min 0,000 mm 3,7 UV-I 738 W/m 7,6 C 14,8 C 11,3 km/h (2 Bft) 100,00 %
03.06.2023 10:20 14,8 C 58 % 1019,3 hPa 0,0 l/m 1,6 km/h (1 Bft) O-SO 112 1 min 0,000 mm 3,7 UV-I 740 W/m 6,6 C 14,8 C 3,2 km/h (1 Bft) 100,00 %
03.06.2023 10:19 14,8 C 57 % 1019,4 hPa 0,0 l/m 4,8 km/h (1 Bft) O-SO 112 1 min 0,000 mm 3,6 UV-I 738 W/m 6,4 C 14,8 C 12,9 km/h (3 Bft) 95,65 %
03.06.2023 10:18 14,8 C 62 % 1019,4 hPa 0,0 l/m 1,6 km/h (1 Bft) O-SO 112 1 min 0,000 mm 3,6 UV-I 742 W/m 7,6 C 14,8 C 3,2 km/h (1 Bft) 100,00 %
03.06.2023 10:17 14,7 C 65 % 1019,4 hPa 0,0 l/m 3,2 km/h (1 Bft) SO 135 1 min 0,000 mm 3,6 UV-I 744 W/m 8,2 C 14,7 C 8,0 km/h (2 Bft) 100,00 %
03.06.2023 10:16 14,4 C 59 % 1019,3 hPa 0,0 l/m 6,4 km/h (2 Bft) NO 45 1 min 0,000 mm 3,5 UV-I 738 W/m 6,5 C 14,4 C 11,3 km/h (2 Bft) 100,00 %
03.06.2023 10:15 14,4 C 58 % 1019,3 hPa 0,0 l/m 8,0 km/h (2 Bft) O-NO 67 1 min 0,000 mm 3,5 UV-I 712 W/m 6,2 C 14,4 C 16,1 km/h (3 Bft) 100,00 %
03.06.2023 10:14 14,4 C 58 % 1019,3 hPa 0,0 l/m 8,0 km/h (2 Bft) S-SO 157 1 min 0,000 mm 3,3 UV-I 686 W/m 6,2 C 14,4 C 14,5 km/h (3 Bft) 100,00 %
03.06.2023 10:13 14,6 C 58 % 1019,3 hPa 0,0 l/m 4,8 km/h (1 Bft) S-SO 157 1 min 0,000 mm 3,4 UV-I 696 W/m 6,4 C 14,6 C 6,4 km/h (2 Bft) 100,00 %
03.06.2023 10:12 14,6 C 59 % 1019,3 hPa 0,0 l/m 4,8 km/h (1 Bft) NO 45 1 min 0,000 mm 3,4 UV-I 735 W/m 6,7 C 14,6 C 9,7 km/h (2 Bft) 91,30 %
03.06.2023 10:11 14,6 C 61 % 1019,3 hPa 0,0 l/m 4,8 km/h (1 Bft) O 90 1 min 0,000 mm 3,3 UV-I 696 W/m 7,2 C 14,6 C 11,3 km/h (2 Bft) 100,00 %
03.06.2023 10:10 14,4 C 61 % 1019,3 hPa 0,0 l/m 3,2 km/h (1 Bft) N 360 1 min 0,000 mm 3,3 UV-I 729 W/m 7,0 C 14,4 C 6,4 km/h (2 Bft) 100,00 %
03.06.2023 10:09 14,5 C 59 % 1019,3 hPa 0,0 l/m 6,4 km/h (2 Bft) O-SO 112 1 min 0,000 mm 3,3 UV-I 703 W/m 6,6 C 14,5 C 11,3 km/h (2 Bft) 95,65 %
03.06.2023 10:08 14,5 C 58 % 1019,3 hPa 0,0 l/m 3,2 km/h (1 Bft) O-NO 67 1 min 0,000 mm 3,4 UV-I 773 W/m 6,3 C 14,5 C 8,0 km/h (2 Bft) 100,00 %
03.06.2023 10:07 14,5 C 61 % 1019,2 hPa 0,0 l/m 3,2 km/h (1 Bft) O-NO 67 1 min 0,000 mm 3,4 UV-I 763 W/m 7,1 C 14,5 C 4,8 km/h (1 Bft) 100,00 %
03.06.2023 10:06 14,3 C 61 % 1019,3 hPa 0,0 l/m 3,2 km/h (1 Bft) N-NO 22 1 min 0,000 mm 3,0 UV-I 765 W/m 6,9 C 14,3 C 4,8 km/h (1 Bft) 91,30 %
03.06.2023 10:05 14,2 C 60 % 1019,3 hPa 0,0 l/m 3,2 km/h (1 Bft) NO 45 1 min 0,000 mm 3,3 UV-I 765 W/m 6,5 C 14,2 C 4,8 km/h (1 Bft) 95,65 %
03.06.2023 10:04 14,1 C 59 % 1019,3 hPa 0,0 l/m 1,6 km/h (1 Bft) S-SO 157 1 min 0,000 mm 3,3 UV-I 701 W/m 6,2 C 14,1 C 6,4 km/h (2 Bft) 95,65 %
03.06.2023 10:03 14,2 C 60 % 1019,3 hPa 0,0 l/m 3,2 km/h (1 Bft) S-SO 157 1 min 0,000 mm 3,3 UV-I 737 W/m 6,5 C 14,2 C 6,4 km/h (2 Bft) 100,00 %
03.06.2023 10:02 14,1 C 60 % 1019,2 hPa 0,0 l/m 3,2 km/h (1 Bft) S-SO 157 1 min 0,000 mm 3,3 UV-I 752 W/m 6,5 C 14,1 C 4,8 km/h (1 Bft) 100,00 %
03.06.2023 10:01 14,1 C 60 % 1019,3 hPa 0,0 l/m 4,8 km/h (1 Bft) S-SO 157 1 min 0,000 mm 3,2 UV-I 756 W/m 6,5 C 14,1 C 9,7 km/h (2 Bft) 100,00 %
03.06.2023 10:00 13,9 C 60 % 1019,2 hPa 0,0 l/m 6,4 km/h (2 Bft) NO 45 1 min 0,229 mm 3,2 UV-I 747 W/m 6,3 C 13,9 C 12,9 km/h (3 Bft) 100,00 %
03.06.2023 09:59 13,9 C 60 % 1019,2 hPa 0,0 l/m 4,8 km/h (1 Bft) SO 135 1 min 0,000 mm 3,2 UV-I 737 W/m 6,3 C 13,9 C 11,3 km/h (2 Bft) 100,00 %
03.06.2023 09:58 13,8 C 60 % 1019,3 hPa 0,0 l/m 3,2 km/h (1 Bft) NO 45 1 min 0,000 mm 3,1 UV-I 700 W/m 6,2 C 13,8 C 6,4 km/h (2 Bft) 95,65 %
03.06.2023 09:57 13,7 C 61 % 1019,3 hPa 0,0 l/m 4,8 km/h (1 Bft) N-NO 22 1 min 0,000 mm 3,2 UV-I 747 W/m 6,3 C 13,7 C 8,0 km/h (2 Bft) 100,00 %
03.06.2023 09:56 13,6 C 60 % 1019,2 hPa 0,0 l/m 6,4 km/h (2 Bft) N-NO 22 1 min 0,000 mm 3,2 UV-I 747 W/m 6,0 C 13,6 C 9,7 km/h (2 Bft) 95,65 %
03.06.2023 09:55 13,5 C 61 % 1019,2 hPa 0,0 l/m 8,0 km/h (2 Bft) N-NO 22 1 min 0,000 mm 3,1 UV-I 763 W/m 6,1 C 13,5 C 16,1 km/h (3 Bft) 100,00 %
03.06.2023 09:54 13,3 C 63 % 1019,2 hPa 0,0 l/m 3,2 km/h (1 Bft) N 360 1 min 0,000 mm 3,1 UV-I 770 W/m 6,4 C 13,3 C 6,4 km/h (2 Bft) 100,00 %
03.06.2023 09:53 13,2 C 61 % 1019,2 hPa 0,0 l/m 4,8 km/h (1 Bft) SO 135 1 min 0,000 mm 3,1 UV-I 392 W/m 5,8 C 13,2 C 8,0 km/h (2 Bft) 100,00 %
03.06.2023 09:52 13,2 C 62 % 1019,2 hPa 0,0 l/m 3,2 km/h (1 Bft) NO 45 1 min 0,000 mm 2,7 UV-I 392 W/m 6,1 C 13,2 C 8,0 km/h (2 Bft) 100,00 %
03.06.2023 09:51 13,2 C 64 % 1019,2 hPa 0,0 l/m 3,2 km/h (1 Bft) N 360 1 min 0,000 mm 2,2 UV-I 315 W/m 6,5 C 13,2 C 8,0 km/h (2 Bft) 91,30 %
03.06.2023 09:50 13,2 C 64 % 1019,2 hPa 0,0 l/m 1,6 km/h (1 Bft) N 360 1 min 0,000 mm 2,3 UV-I 355 W/m 6,5 C 13,2 C 3,2 km/h (1 Bft) 100,00 %
03.06.2023 09:49 13,1 C 64 % 1019,2 hPa 0,0 l/m 3,2 km/h (1 Bft) SO 135 1 min 0,000 mm 2,2 UV-I 320 W/m 6,4 C 13,1 C 8,0 km/h (2 Bft) 100,00 %
03.06.2023 09:48 13,0 C 63 % 1019,3 hPa 0,0 l/m 3,2 km/h (1 Bft) NO 45 1 min 0,000 mm 2,3 UV-I 480 W/m 6,1 C 13,0 C 6,4 km/h (2 Bft) 100,00 %
03.06.2023 09:47 12,9 C 64 % 1019,4 hPa 0,0 l/m 4,8 km/h (1 Bft) O-SO 112 1 min 0,000 mm 2,3 UV-I 387 W/m 6,3 C 12,9 C 8,0 km/h (2 Bft) 100,00 %
03.06.2023 09:46 12,8 C 65 % 1019,2 hPa 0,0 l/m 6,4 km/h (2 Bft) S-SO 157 1 min 0,000 mm 2,2 UV-I 378 W/m 6,4 C 12,8 C 8,0 km/h (2 Bft) 95,65 %
03.06.2023 09:45 12,8 C 62 % 1019,2 hPa 0,0 l/m 3,2 km/h (1 Bft) S-SO 157 1 min 0,000 mm 2,2 UV-I 369 W/m 5,7 C 12,8 C 9,7 km/h (2 Bft) 100,00 %
03.06.2023 09:44 12,8 C 64 % 1019,3 hPa 0,0 l/m 3,2 km/h (1 Bft) S-SO 157 1 min 0,000 mm 2,1 UV-I 327 W/m 6,2 C 12,8 C 4,8 km/h (1 Bft) 95,65 %
03.06.2023 09:43 12,7 C 63 % 1019,3 hPa 0,0 l/m 4,8 km/h (1 Bft) O-NO 67 1 min 0,000 mm 1,9 UV-I 315 W/m 5,8 C 12,7 C 9,7 km/h (2 Bft) 95,65 %
03.06.2023 09:42 12,7 C 63 % 1019,3 hPa 0,0 l/m 3,2 km/h (1 Bft) O 90 1 min 0,000 mm 1,9 UV-I 309 W/m 5,8 C 12,7 C 8,0 km/h (2 Bft) 100,00 %
03.06.2023 09:41 12,7 C 62 % 1019,3 hPa 0,0 l/m 6,4 km/h (2 Bft) NO 45 1 min 0,000 mm 1,9 UV-I 308 W/m 5,6 C 12,7 C 11,3 km/h (2 Bft) 91,30 %
03.06.2023 09:40 12,8 C 64 % 1019,3 hPa 0,0 l/m 4,8 km/h (1 Bft) NO 45 1 min 0,000 mm 1,8 UV-I 306 W/m 6,2 C 12,8 C 9,7 km/h (2 Bft) 100,00 %
03.06.2023 09:39 12,8 C 62 % 1019,3 hPa 0,0 l/m 8,0 km/h (2 Bft) N-NO 22 1 min 0,000 mm 1,8 UV-I 302 W/m 5,7 C 12,8 C 12,9 km/h (3 Bft) 95,65 %
03.06.2023 09:38 12,8 C 63 % 1019,4 hPa 0,0 l/m 3,2 km/h (1 Bft) W-SW 247 1 min 0,000 mm 1,8 UV-I 299 W/m 5,9 C 12,8 C 6,4 km/h (2 Bft) 100,00 %
03.06.2023 09:37 12,8 C 64 % 1019,3 hPa 0,0 l/m 4,8 km/h (1 Bft) N-NW 337 1 min 0,000 mm 1,7 UV-I 297 W/m 6,2 C 12,8 C 9,7 km/h (2 Bft) 91,30 %
03.06.2023 09:36 12,8 C 65 % 1019,3 hPa 0,0 l/m 1,6 km/h (1 Bft) N 360 1 min 0,000 mm 1,7 UV-I 301 W/m 6,4 C 12,8 C 3,2 km/h (1 Bft) 95,65 %
03.06.2023 09:35 12,7 C 62 % 1019,4 hPa 0,0 l/m 3,2 km/h (1 Bft) N-NW 337 1 min 0,000 mm 1,7 UV-I 304 W/m 5,6 C 12,7 C 6,4 km/h (2 Bft) 95,65 %
03.06.2023 09:34 12,7 C 63 % 1019,3 hPa 0,0 l/m 3,2 km/h (1 Bft) N-NW 337 1 min 0,000 mm 1,7 UV-I 308 W/m 5,8 C 12,7 C 8,0 km/h (2 Bft) 95,65 %
03.06.2023 09:33 12,8 C 64 % 1019,3 hPa 0,0 l/m 6,4 km/h (2 Bft) S-SO 157 1 min 0,000 mm 1,7 UV-I 311 W/m 6,2 C 12,8 C 11,3 km/h (2 Bft) 100,00 %
03.06.2023 09:32 12,7 C 63 % 1019,3 hPa 0,0 l/m 4,8 km/h (1 Bft) O 90 1 min 0,000 mm 1,7 UV-I 315 W/m 5,8 C 12,7 C 9,7 km/h (2 Bft) 95,65 %
03.06.2023 09:31 12,7 C 61 % 1019,4 hPa 0,0 l/m 4,8 km/h (1 Bft) O 90 1 min 0,000 mm 1,7 UV-I 322 W/m 5,4 C 12,7 C 12,9 km/h (3 Bft) 100,00 %
03.06.2023 09:30 12,7 C 63 % 1019,4 hPa 0,0 l/m 1,6 km/h (1 Bft) N-NO 22 1 min 0,000 mm 1,7 UV-I 325 W/m 5,8 C 12,7 C 4,8 km/h (1 Bft) 91,30 %
03.06.2023 09:29 12,7 C 63 % 1019,3 hPa 0,0 l/m 4,8 km/h (1 Bft) NO 45 1 min 0,000 mm 1,7 UV-I 329 W/m 5,8 C 12,7 C 8,0 km/h (2 Bft) 100,00 %
03.06.2023 09:28 12,6 C 64 % 1019,3 hPa 0,0 l/m 4,8 km/h (1 Bft) S-SO 157 1 min 0,000 mm 1,7 UV-I 332 W/m 6,0 C 12,6 C 12,9 km/h (3 Bft) 95,65 %
03.06.2023 09:27 12,6 C 63 % 1019,3 hPa 0,0 l/m 9,7 km/h (2 Bft) O 90 1 min 0,000 mm 1,7 UV-I 336 W/m 5,7 C 12,6 C 17,7 km/h (3 Bft) 95,65 %
03.06.2023 09:26 12,6 C 62 % 1019,3 hPa 0,0 l/m 1,6 km/h (1 Bft) S-SO 157 1 min 0,000 mm 1,7 UV-I 341 W/m 5,5 C 12,6 C 4,8 km/h (1 Bft) 95,65 %
03.06.2023 09:25 12,6 C 61 % 1019,4 hPa 0,0 l/m 3,2 km/h (1 Bft) S-SO 157 1 min 0,000 mm 1,7 UV-I 346 W/m 5,3 C 12,6 C 4,8 km/h (1 Bft) 95,65 %
03.06.2023 09:24 12,6 C 62 % 1019,4 hPa 0,0 l/m 4,8 km/h (1 Bft) SO 135 1 min 0,000 mm 1,7 UV-I 350 W/m 5,5 C 12,6 C 8,0 km/h (2 Bft) 100,00 %
03.06.2023 09:23 12,6 C 61 % 1019,3 hPa 0,0 l/m 4,8 km/h (1 Bft) O-SO 112 1 min 0,000 mm 1,7 UV-I 353 W/m 5,3 C 12,6 C 8,0 km/h (2 Bft) 95,65 %
03.06.2023 09:22 12,6 C 62 % 1019,3 hPa 0,0 l/m 3,2 km/h (1 Bft) O-SO 112 1 min 0,000 mm 1,7 UV-I 360 W/m 5,5 C 12,6 C 6,4 km/h (2 Bft) 95,65 %
03.06.2023 09:21 12,6 C 62 % 1019,3 hPa 0,0 l/m 6,4 km/h (2 Bft) O-SO 112 1 min 0,000 mm 1,7 UV-I 366 W/m 5,5 C 12,6 C 12,9 km/h (3 Bft) 95,65 %
03.06.2023 09:20 12,6 C 65 % 1019,4 hPa 0,0 l/m 3,2 km/h (1 Bft) O-SO 112 1 min 0,000 mm 1,7 UV-I 373 W/m 6,2 C 12,6 C 8,0 km/h (2 Bft) 91,30 %
03.06.2023 09:19 12,5 C 64 % 1019,3 hPa 0,0 l/m 4,8 km/h (1 Bft) SO 135 1 min 0,000 mm 1,8 UV-I 381 W/m 5,9 C 12,5 C 11,3 km/h (2 Bft) 95,65 %
03.06.2023 09:18 12,4 C 62 % 1019,3 hPa 0,0 l/m 3,2 km/h (1 Bft) S-SO 157 1 min 0,000 mm 1,7 UV-I 366 W/m 5,3 C 12,4 C 4,8 km/h (1 Bft) 95,65 %
03.06.2023 09:17 12,4 C 63 % 1019,3 hPa 0,0 l/m 4,8 km/h (1 Bft) O-NO 67 1 min 0,000 mm 1,7 UV-I 360 W/m 5,6 C 12,4 C 6,4 km/h (2 Bft) 95,65 %
03.06.2023 09:16 12,4 C 63 % 1019,3 hPa 0,0 l/m 4,8 km/h (1 Bft) SO 135 1 min 0,000 mm 1,7 UV-I 355 W/m 5,6 C 12,4 C 8,0 km/h (2 Bft) 91,30 %
03.06.2023 09:15 12,3 C 64 % 1019,3 hPa 0,0 l/m 3,2 km/h (1 Bft) O-NO 67 1 min 0,000 mm 1,6 UV-I 350 W/m 5,7 C 12,3 C 8,0 km/h (2 Bft) 100,00 %
03.06.2023 09:14 12,3 C 63 % 1019,4 hPa 0,0 l/m 4,8 km/h (1 Bft) SO 135 1 min 0,000 mm 1,6 UV-I 343 W/m 5,5 C 12,3 C 6,4 km/h (2 Bft) 95,65 %
03.06.2023 09:13 12,2 C 62 % 1019,3 hPa 0,0 l/m 4,8 km/h (1 Bft) SO 135 1 min 0,000 mm 1,6 UV-I 339 W/m 5,1 C 12,2 C 9,7 km/h (2 Bft) 100,00 %
03.06.2023 09:12 12,2 C 62 % 1019,3 hPa 0,0 l/m 4,8 km/h (1 Bft) N-NO 22 1 min 0,000 mm 1,6 UV-I 341 W/m 5,1 C 12,2 C 11,3 km/h (2 Bft) 95,65 %
03.06.2023 09:11 12,2 C 61 % 1019,3 hPa 0,0 l/m 6,4 km/h (2 Bft) O 90 1 min 0,000 mm 1,6 UV-I 348 W/m 4,9 C 12,2 C 11,3 km/h (2 Bft) 95,65 %
03.06.2023 09:10 12,2 C 62 % 1019,3 hPa 0,0 l/m 4,8 km/h (1 Bft) S-SO 157 1 min 0,000 mm 1,6 UV-I 346 W/m 5,1 C 12,2 C 9,7 km/h (2 Bft) 95,65 %
03.06.2023 09:09 12,2 C 62 % 1019,3 hPa 0,0 l/m 3,2 km/h (1 Bft) S 180 1 min 0,000 mm 1,5 UV-I 343 W/m 5,1 C 12,2 C 8,0 km/h (2 Bft) 95,65 %
03.06.2023 09:08 12,2 C 62 % 1019,3 hPa 0,0 l/m 3,2 km/h (1 Bft) N 360 1 min 0,000 mm 1,5 UV-I 345 W/m 5,1 C 12,2 C 4,8 km/h (1 Bft) 95,65 %
03.06.2023 09:07 12,2 C 63 % 1019,3 hPa 0,0 l/m 6,4 km/h (2 Bft) N 360 1 min 0,000 mm 1,5 UV-I 343 W/m 5,4 C 12,2 C 8,0 km/h (2 Bft) 95,65 %
03.06.2023 09:06 12,2 C 61 % 1019,3 hPa 0,0 l/m 3,2 km/h (1 Bft) O-NO 67 1 min 0,000 mm 1,5 UV-I 339 W/m 4,9 C 12,2 C 8,0 km/h (2 Bft) 100,00 %
03.06.2023 09:05 12,2 C 63 % 1019,4 hPa 0,0 l/m 6,4 km/h (2 Bft) N-NO 22 1 min 0,000 mm 1,5 UV-I 336 W/m 5,4 C 12,2 C 12,9 km/h (3 Bft) 95,65 %
03.06.2023 09:04 12,1 C 62 % 1019,4 hPa 0,0 l/m 4,8 km/h (1 Bft) O-SO 112 1 min 0,000 mm 1,5 UV-I 334 W/m 5,0 C 12,1 C 6,4 km/h (2 Bft) 100,00 %
03.06.2023 09:03 12,1 C 62 % 1019,3 hPa 0,0 l/m 3,2 km/h (1 Bft) NO 45 1 min 0,000 mm 1,4 UV-I 329 W/m 5,0 C 12,1 C 8,0 km/h (2 Bft) 95,65 %
03.06.2023 09:02 12,1 C 63 % 1019,3 hPa 0,0 l/m 4,8 km/h (1 Bft) S-SO 157 1 min 0,000 mm 1,4 UV-I 327 W/m 5,3 C 12,1 C 11,3 km/h (2 Bft) 95,65 %
03.06.2023 09:01 12,1 C 61 % 1019,5 hPa 0,0 l/m 3,2 km/h (1 Bft) S 180 1 min 0,000 mm 1,4 UV-I 330 W/m 4,8 C 12,1 C 6,4 km/h (2 Bft) 86,96 %
03.06.2023 09:00 12,1 C 62 % 1019,2 hPa 0,0 l/m 3,2 km/h (1 Bft) O-SO 112 1 min 0,152 mm 1,4 UV-I 334 W/m 5,0 C 12,1 C 4,8 km/h (1 Bft) 100,00 %
03.06.2023 08:59 12,0 C 62 % 1019,3 hPa 0,0 l/m 3,2 km/h (1 Bft) O 90 1 min 0,000 mm 1,4 UV-I 336 W/m 4,9 C 12,0 C 4,8 km/h (1 Bft) 100,00 %
03.06.2023 08:58 12,0 C 61 % 1019,3 hPa 0,0 l/m 3,2 km/h (1 Bft) O 90 1 min 0,000 mm 1,4 UV-I 336 W/m 4,7 C 12,0 C 8,0 km/h (2 Bft) 100,00 %
03.06.2023 08:57 11,9 C 62 % 1019,4 hPa 0,0 l/m 6,4 km/h (2 Bft) S-SO 157 1 min 0,000 mm 1,4 UV-I 338 W/m 4,9 C 11,9 C 8,0 km/h (2 Bft) 95,65 %
03.06.2023 08:56 11,9 C 62 % 1019,3 hPa 0,0 l/m 3,2 km/h (1 Bft) S-SO 157 1 min 0,000 mm 1,4 UV-I 338 W/m 4,9 C 11,9 C 8,0 km/h (2 Bft) 100,00 %
03.06.2023 08:55 11,9 C 61 % 1019,3 hPa 0,0 l/m 6,4 km/h (2 Bft) O-SO 112 1 min 0,000 mm 1,4 UV-I 334 W/m 4,6 C 11,9 C 11,3 km/h (2 Bft) 100,00 %
03.06.2023 08:54 11,9 C 61 % 1019,4 hPa 0,0 l/m 8,0 km/h (2 Bft) NO 45 1 min 0,000 mm 1,3 UV-I 316 W/m 4,6 C 11,9 C 17,7 km/h (3 Bft) 95,65 %
03.06.2023 08:53 11,9 C 63 % 1019,3 hPa 0,0 l/m 4,8 km/h (1 Bft) NW 315 1 min 0,000 mm 1,3 UV-I 306 W/m 5,1 C 11,9 C 6,4 km/h (2 Bft) 100,00 %
03.06.2023 08:52 11,9 C 62 % 1019,3 hPa 0,0 l/m 4,8 km/h (1 Bft) O 90 1 min 0,000 mm 1,3 UV-I 301 W/m 4,9 C 11,9 C 11,3 km/h (2 Bft) 100,00 %
03.06.2023 08:51 11,9 C 62 % 1019,3 hPa 0,0 l/m 6,4 km/h (2 Bft) O-NO 67 1 min 0,000 mm 1,2 UV-I 295 W/m 4,9 C 11,9 C 11,3 km/h (2 Bft) 95,65 %
03.06.2023 08:50 11,9 C 62 % 1019,2 hPa 0,0 l/m 4,8 km/h (1 Bft) O-NO 67 1 min 0,000 mm 1,2 UV-I 290 W/m 4,9 C 11,9 C 9,7 km/h (2 Bft) 100,00 %
03.06.2023 08:49 11,9 C 63 % 1019,3 hPa 0,0 l/m 3,2 km/h (1 Bft) S-SO 157 1 min 0,000 mm 1,2 UV-I 281 W/m 5,1 C 11,9 C 4,8 km/h (1 Bft) 100,00 %
03.06.2023 08:48 11,9 C 63 % 1019,3 hPa 0,0 l/m 6,4 km/h (2 Bft) SW 225 1 min 0,000 mm 1,1 UV-I 279 W/m 5,1 C 11,9 C 11,3 km/h (2 Bft) 95,65 %
03.06.2023 08:47 11,9 C 63 % 1019,3 hPa 0,0 l/m 6,4 km/h (2 Bft) SO 135 1 min 0,000 mm 1,1 UV-I 278 W/m 5,1 C 11,9 C 12,9 km/h (3 Bft) 95,65 %
03.06.2023 08:46 11,9 C 61 % 1019,3 hPa 0,0 l/m 9,7 km/h (2 Bft) SO 135 1 min 0,000 mm 1,1 UV-I 276 W/m 4,6 C 11,9 C 14,5 km/h (3 Bft) 100,00 %
03.06.2023 08:45 11,9 C 62 % 1019,4 hPa 0,0 l/m 11,3 km/h (2 Bft) NO 45 1 min 0,000 mm 1,1 UV-I 276 W/m 4,9 C 11,9 C 19,3 km/h (3 Bft) 100,00 %
03.06.2023 08:44 12,0 C 63 % 1019,3 hPa 0,0 l/m 4,8 km/h (1 Bft) N-NO 22 1 min 0,000 mm 1,1 UV-I 276 W/m 5,2 C 12,0 C 9,7 km/h (2 Bft) 100,00 %
03.06.2023 08:43 12,0 C 62 % 1019,4 hPa 0,0 l/m 11,3 km/h (2 Bft) N-NO 22 1 min 0,000 mm 1,1 UV-I 278 W/m 4,9 C 12,0 C 19,3 km/h (3 Bft) 100,00 %
03.06.2023 08:42 12,1 C 65 % 1019,3 hPa 0,0 l/m 3,2 km/h (1 Bft) SO 135 1 min 0,000 mm 1,1 UV-I 279 W/m 5,7 C 12,1 C 4,8 km/h (1 Bft) 100,00 %
03.06.2023 08:41 12,1 C 65 % 1019,3 hPa 0,0 l/m 3,2 km/h (1 Bft) SO 135 1 min 0,000 mm 1,1 UV-I 283 W/m 5,7 C 12,1 C 6,4 km/h (2 Bft) 100,00 %
03.06.2023 08:40 12,1 C 64 % 1019,3 hPa 0,0 l/m 3,2 km/h (1 Bft) O-SO 112 1 min 0,000 mm 1,1 UV-I 288 W/m 5,5 C 12,1 C 6,4 km/h (2 Bft) 91,30 %
03.06.2023 08:39 12,1 C 66 % 1019,3 hPa 0,0 l/m 3,2 km/h (1 Bft) N-NO 22 1 min 0,000 mm 1,1 UV-I 294 W/m 5,9 C 12,1 C 4,8 km/h (1 Bft) 95,65 %
03.06.2023 08:38 12,1 C 64 % 1019,3 hPa 0,0 l/m 3,2 km/h (1 Bft) N-NO 22 1 min 0,000 mm 1,2 UV-I 304 W/m 5,5 C 12,1 C 6,4 km/h (2 Bft) 100,00 %
03.06.2023 08:37 12,1 C 65 % 1019,3 hPa 0,0 l/m 4,8 km/h (1 Bft) NO 45 1 min 0,000 mm 1,2 UV-I 309 W/m 5,7 C 12,1 C 11,3 km/h (2 Bft) 100,00 %
03.06.2023 08:36 12,2 C 65 % 1019,3 hPa 0,0 l/m 3,2 km/h (1 Bft) SO 135 1 min 0,000 mm 1,2 UV-I 313 W/m 5,8 C 12,2 C 11,3 km/h (2 Bft) 100,00 %
03.06.2023 08:35 12,1 C 64 % 1019,3 hPa 0,0 l/m 1,6 km/h (1 Bft) O 90 1 min 0,000 mm 1,2 UV-I 313 W/m 5,5 C 12,1 C 3,2 km/h (1 Bft) 100,00 %
03.06.2023 08:34 12,1 C 65 % 1019,3 hPa 0,0 l/m 4,8 km/h (1 Bft) NO 45 1 min 0,000 mm 1,2 UV-I 311 W/m 5,7 C 12,1 C 8,0 km/h (2 Bft) 100,00 %
03.06.2023 08:33 12,1 C 65 % 1019,3 hPa 0,0 l/m 1,6 km/h (1 Bft) N 360 1 min 0,000 mm 1,2 UV-I 308 W/m 5,7 C 12,1 C 3,2 km/h (1 Bft) 95,65 %
03.06.2023 08:32 12,1 C 65 % 1019,2 hPa 0,0 l/m 3,2 km/h (1 Bft) N 360 1 min 0,000 mm 1,2 UV-I 306 W/m 5,7 C 12,1 C 4,8 km/h (1 Bft) 100,00 %
03.06.2023 08:31 12,1 C 66 % 1019,3 hPa 0,0 l/m 1,6 km/h (1 Bft) N 360 1 min 0,000 mm 1,2 UV-I 309 W/m 5,9 C 12,1 C 3,2 km/h (1 Bft) 100,00 %
03.06.2023 08:30 12,1 C 66 % 1019,3 hPa 0,0 l/m 3,2 km/h (1 Bft) N 360 1 min 0,000 mm 1,2 UV-I 327 W/m 5,9 C 12,1 C 6,4 km/h (2 Bft) 95,65 %
03.06.2023 08:29 12,0 C 66 % 1019,2 hPa 0,0 l/m 3,2 km/h (1 Bft) W-NW 292 1 min 0,000 mm 1,2 UV-I 355 W/m 5,8 C 12,0 C 6,4 km/h (2 Bft) 100,00 %
03.06.2023 08:28 11,9 C 66 % 1019,2 hPa 0,0 l/m 3,2 km/h (1 Bft) S-SO 157 1 min 0,000 mm 1,2 UV-I 343 W/m 5,8 C 11,9 C 8,0 km/h (2 Bft) 100,00 %
03.06.2023 08:27 11,9 C 66 % 1019,3 hPa 0,0 l/m 4,8 km/h (1 Bft) S-SO 157 1 min 0,000 mm 1,2 UV-I 320 W/m 5,8 C 11,9 C 12,9 km/h (3 Bft) 100,00 %
03.06.2023 08:26 11,9 C 65 % 1019,2 hPa 0,0 l/m 4,8 km/h (1 Bft) S 180 1 min 0,000 mm 1,2 UV-I 309 W/m 5,5 C 11,9 C 12,9 km/h (3 Bft) 95,65 %
03.06.2023 08:25 11,9 C 66 % 1019,2 hPa 0,0 l/m 3,2 km/h (1 Bft) O-SO 112 1 min 0,000 mm 1,2 UV-I 309 W/m 5,8 C 11,9 C 6,4 km/h (2 Bft) 100,00 %
03.06.2023 08:24 11,9 C 67 % 1019,2 hPa 0,0 l/m 3,2 km/h (1 Bft) S-SO 157 1 min 0,000 mm 1,1 UV-I 306 W/m 6,0 C 11,9 C 4,8 km/h (1 Bft) 95,65 %
03.06.2023 08:23 11,9 C 67 % 1019,2 hPa 0,0 l/m 3,2 km/h (1 Bft) O 90 1 min 0,000 mm 1,1 UV-I 302 W/m 6,0 C 11,9 C 9,7 km/h (2 Bft) 100,00 %
03.06.2023 08:22 11,9 C 66 % 1019,2 hPa 0,0 l/m 6,4 km/h (2 Bft) SO 135 1 min 0,000 mm 1,1 UV-I 301 W/m 5,8 C 11,9 C 12,9 km/h (3 Bft) 100,00 %
03.06.2023 08:21 11,8 C 66 % 1019,1 hPa 0,0 l/m 1,6 km/h (1 Bft) N-NO 22 1 min 0,000 mm 1,1 UV-I 297 W/m 5,7 C 11,8 C 4,8 km/h (1 Bft) 100,00 %
03.06.2023 08:20 11,8 C 66 % 1019,1 hPa 0,0 l/m 4,8 km/h (1 Bft) N-NW 337 1 min 0,000 mm 1,1 UV-I 294 W/m 5,7 C 11,8 C 8,0 km/h (2 Bft) 100,00 %
03.06.2023 08:19 11,8 C 67 % 1019,3 hPa 0,0 l/m 3,2 km/h (1 Bft) N-NW 337 1 min 0,000 mm 1,1 UV-I 292 W/m 5,9 C 11,8 C 8,0 km/h (2 Bft) 91,30 %
03.06.2023 08:18 11,7 C 68 % 1019,1 hPa 0,0 l/m 3,2 km/h (1 Bft) NO 45 1 min 0,000 mm 1,1 UV-I 290 W/m 6,0 C 11,7 C 4,8 km/h (1 Bft) 100,00 %
03.06.2023 08:17 11,7 C 65 % 1019,1 hPa 0,0 l/m 3,2 km/h (1 Bft) W-SW 247 1 min 0,000 mm 1,1 UV-I 292 W/m 5,3 C 11,7 C 4,8 km/h (1 Bft) 100,00 %
03.06.2023 08:16 11,7 C 67 % 1019,1 hPa 0,0 l/m 3,2 km/h (1 Bft) NW 315 1 min 0,000 mm 1,1 UV-I 285 W/m 5,8 C 11,7 C 6,4 km/h (2 Bft) 100,00 %
03.06.2023 08:15 11,6 C 67 % 1019,1 hPa 0,0 l/m 3,2 km/h (1 Bft) O-SO 112 1 min 0,000 mm 1,0 UV-I 281 W/m 5,7 C 11,6 C 4,8 km/h (1 Bft) 100,00 %
03.06.2023 08:14 11,6 C 67 % 1019,1 hPa 0,0 l/m 3,2 km/h (1 Bft) O 90 1 min 0,000 mm 1,0 UV-I 274 W/m 5,7 C 11,6 C 4,8 km/h (1 Bft) 100,00 %
03.06.2023 08:13 11,6 C 65 % 1019,1 hPa 0,0 l/m 4,8 km/h (1 Bft) N-NW 337 1 min 0,000 mm 1,0 UV-I 274 W/m 5,2 C 11,6 C 9,7 km/h (2 Bft) 100,00 %
03.06.2023 08:12 11,6 C 66 % 1019,2 hPa 0,0 l/m 1,6 km/h (1 Bft) O-SO 112 1 min 0,000 mm 1,0 UV-I 274 W/m 5,5 C 11,6 C 4,8 km/h (1 Bft) 91,30 %
03.06.2023 08:11 11,6 C 67 % 1019,2 hPa 0,0 l/m 1,6 km/h (1 Bft) O-SO 112 1 min 0,000 mm 1,0 UV-I 276 W/m 5,7 C 11,6 C 3,2 km/h (1 Bft) 100,00 %
03.06.2023 08:10 11,6 C 67 % 1019,1 hPa 0,0 l/m 1,6 km/h (1 Bft) S 180 1 min 0,000 mm 1,0 UV-I 276 W/m 5,7 C 11,6 C 3,2 km/h (1 Bft) 100,00 %
03.06.2023 08:09 11,5 C 66 % 1019,2 hPa 0,0 l/m 4,8 km/h (1 Bft) S-SO 157 1 min 0,000 mm 0,9 UV-I 276 W/m 5,4 C 11,5 C 9,7 km/h (2 Bft) 100,00 %
03.06.2023 08:08 11,5 C 68 % 1019,2 hPa 0,0 l/m 6,4 km/h (2 Bft) O-SO 112 1 min 0,000 mm 0,9 UV-I 278 W/m 5,8 C 11,5 C 11,3 km/h (2 Bft) 100,00 %
03.06.2023 08:07 11,5 C 67 % 1019,1 hPa 0,0 l/m 3,2 km/h (1 Bft) W-NW 292 1 min 0,000 mm 0,9 UV-I 279 W/m 5,6 C 11,5 C 6,4 km/h (2 Bft) 95,65 %
03.06.2023 08:06 11,5 C 66 % 1019,2 hPa 0,0 l/m 3,2 km/h (1 Bft) S-SO 157 1 min 0,000 mm 0,9 UV-I 283 W/m 5,4 C 11,5 C 6,4 km/h (2 Bft) 100,00 %
03.06.2023 08:05 11,4 C 67 % 1019,2 hPa 0,0 l/m 3,2 km/h (1 Bft) O 90 1 min 0,000 mm 0,9 UV-I 288 W/m 5,5 C 11,4 C 8,0 km/h (2 Bft) 95,65 %
03.06.2023 08:04 11,4 C 67 % 1019,1 hPa 0,0 l/m 1,6 km/h (1 Bft) O 90 1 min 0,000 mm 0,9 UV-I 316 W/m 5,5 C 11,4 C 3,2 km/h (1 Bft) 100,00 %
03.06.2023 08:03 11,4 C 68 % 1019,0 hPa 0,0 l/m 4,8 km/h (1 Bft) O 90 1 min 0,000 mm 0,9 UV-I 295 W/m 5,7 C 11,4 C 9,7 km/h (2 Bft) 100,00 %
03.06.2023 08:02 11,3 C 68 % 1019,1 hPa 0,0 l/m 3,2 km/h (1 Bft) N-NW 337 1 min 0,000 mm 0,9 UV-I 267 W/m 5,6 C 11,3 C 4,8 km/h (1 Bft) 100,00 %
03.06.2023 08:01 11,3 C 67 % 1019,1 hPa 0,0 l/m 4,8 km/h (1 Bft) S-SO 157 1 min 0,000 mm 0,8 UV-I 265 W/m 5,4 C 11,3 C 8,0 km/h (2 Bft) 100,00 %
03.06.2023 08:00 11,3 C 68 % 1019,0 hPa 0,0 l/m 3,2 km/h (1 Bft) SO 135 1 min 0,102 mm 0,8 UV-I 262 W/m 5,6 C 11,3 C 8,0 km/h (2 Bft) 100,00 %
03.06.2023 07:59 11,3 C 67 % 1019,1 hPa 0,0 l/m 3,2 km/h (1 Bft) O-SO 112 1 min 0,000 mm 0,8 UV-I 260 W/m 5,4 C 11,3 C 4,8 km/h (1 Bft) 100,00 %
03.06.2023 07:58 11,2 C 69 % 1019,1 hPa 0,0 l/m 1,6 km/h (1 Bft) S-SO 157 1 min 0,000 mm 0,8 UV-I 257 W/m 5,7 C 11,2 C 4,8 km/h (1 Bft) 95,65 %
03.06.2023 07:57 11,1 C 69 % 1019,1 hPa 0,0 l/m 1,6 km/h (1 Bft) SO 135 1 min 0,000 mm 0,8 UV-I 253 W/m 5,6 C 11,1 C 3,2 km/h (1 Bft) 100,00 %
03.06.2023 07:56 11,1 C 68 % 1019,1 hPa 0,0 l/m 3,2 km/h (1 Bft) SO 135 1 min 0,000 mm 0,8 UV-I 250 W/m 5,4 C 11,1 C 6,4 km/h (2 Bft) 100,00 %
03.06.2023 07:55 11,1 C 68 % 1019,1 hPa 0,0 l/m 6,4 km/h (2 Bft) O-NO 67 1 min 0,000 mm 0,8 UV-I 251 W/m 5,4 C 11,1 C 12,9 km/h (3 Bft) 100,00 %
03.06.2023 07:54 11,0 C 68 % 1019,0 hPa 0,0 l/m 1,6 km/h (1 Bft) N 360 1 min 0,000 mm 0,8 UV-I 258 W/m 5,3 C 11,0 C 3,2 km/h (1 Bft) 100,00 %
03.06.2023 07:53 10,9 C 69 % 1019,1 hPa 0,0 l/m 1,6 km/h (1 Bft) N 360 1 min 0,000 mm 0,8 UV-I 264 W/m 5,4 C 10,9 C 4,8 km/h (1 Bft) 100,00 %
03.06.2023 07:52 10,9 C 68 % 1019,1 hPa 0,0 l/m 4,8 km/h (1 Bft) N 360 1 min 0,000 mm 0,8 UV-I 295 W/m 5,2 C 10,9 C 11,3 km/h (2 Bft) 100,00 %
03.06.2023 07:51 10,8 C 69 % 1019,0 hPa 0,0 l/m 3,2 km/h (1 Bft) N 360 1 min 0,000 mm 0,7 UV-I 248 W/m 5,3 C 10,8 C 6,4 km/h (2 Bft) 95,65 %
03.06.2023 07:50 10,8 C 69 % 1018,9 hPa 0,0 l/m 4,8 km/h (1 Bft) N 360 1 min 0,000 mm 0,7 UV-I 220 W/m 5,3 C 10,8 C 8,0 km/h (2 Bft) 95,65 %
03.06.2023 07:49 10,7 C 69 % 1019,0 hPa 0,0 l/m 3,2 km/h (1 Bft) N 360 1 min 0,000 mm 0,6 UV-I 207 W/m 5,2 C 10,7 C 6,4 km/h (2 Bft) 100,00 %
03.06.2023 07:48 10,7 C 70 % 1019,0 hPa 0,0 l/m 3,2 km/h (1 Bft) N 360 1 min 0,000 mm 0,6 UV-I 197 W/m 5,5 C 10,7 C 9,7 km/h (2 Bft) 95,65 %
03.06.2023 07:47 10,7 C 69 % 1018,9 hPa 0,0 l/m 3,2 km/h (1 Bft) N 360 1 min 0,000 mm 0,6 UV-I 188 W/m 5,2 C 10,7 C 6,4 km/h (2 Bft) 100,00 %
03.06.2023 07:46 10,7 C 69 % 1019,0 hPa 0,0 l/m 4,8 km/h (1 Bft) N 360 1 min 0,000 mm 0,6 UV-I 176 W/m 5,2 C 10,7 C 8,0 km/h (2 Bft) 100,00 %
03.06.2023 07:45 10,7 C 69 % 1019,0 hPa 0,0 l/m 3,2 km/h (1 Bft) N 360 1 min 0,000 mm 0,6 UV-I 172 W/m 5,2 C 10,7 C 8,0 km/h (2 Bft) 100,00 %
03.06.2023 07:44 10,7 C 69 % 1018,9 hPa 0,0 l/m 3,2 km/h (1 Bft) N 360 1 min 0,000 mm 0,6 UV-I 171 W/m 5,2 C 10,7 C 4,8 km/h (1 Bft) 95,65 %
03.06.2023 07:43 10,7 C 69 % 1018,9 hPa 0,0 l/m 4,8 km/h (1 Bft) N 360 1 min 0,000 mm 0,6 UV-I 171 W/m 5,2 C 10,7 C 8,0 km/h (2 Bft) 100,00 %
03.06.2023 07:42 10,7 C 70 % 1019,0 hPa 0,0 l/m 1,6 km/h (1 Bft) N 360 1 min 0,000 mm 0,5 UV-I 169 W/m 5,5 C 10,7 C 4,8 km/h (1 Bft) 100,00 %
03.06.2023 07:41 10,6 C 69 % 1019,0 hPa 0,0 l/m 4,8 km/h (1 Bft) N 360 1 min 0,000 mm 0,5 UV-I 169 W/m 5,2 C 10,6 C 8,0 km/h (2 Bft) 100,00 %
03.06.2023 07:40 10,6 C 69 % 1019,0 hPa 0,0 l/m 4,8 km/h (1 Bft) N 360 1 min 0,000 mm 0,5 UV-I 167 W/m 5,2 C 10,6 C 8,0 km/h (2 Bft) 100,00 %
03.06.2023 07:39 10,6 C 69 % 1019,0 hPa 0,0 l/m 3,2 km/h (1 Bft) S-SO 157 1 min 0,000 mm 0,5 UV-I 162 W/m 5,2 C 10,6 C 4,8 km/h (1 Bft) 100,00 %
03.06.2023 07:38 10,6 C 69 % 1019,0 hPa 0,0 l/m 3,2 km/h (1 Bft) S-SO 157 1 min 0,000 mm 0,5 UV-I 160 W/m 5,2 C 10,6 C 6,4 km/h (2 Bft) 100,00 %
03.06.2023 07:37 10,6 C 69 % 1018,9 hPa 0,0 l/m 4,8 km/h (1 Bft) NO 45 1 min 0,000 mm 0,5 UV-I 156 W/m 5,2 C 10,6 C 8,0 km/h (2 Bft) 95,65 %
03.06.2023 07:36 10,6 C 70 % 1019,0 hPa 0,0 l/m 3,2 km/h (1 Bft) O-NO 67 1 min 0,000 mm 0,5 UV-I 155 W/m 5,4 C 10,6 C 4,8 km/h (1 Bft) 100,00 %
03.06.2023 07:35 10,6 C 70 % 1019,0 hPa 0,0 l/m 4,8 km/h (1 Bft) SO 135 1 min 0,000 mm 0,5 UV-I 153 W/m 5,4 C 10,6 C 8,0 km/h (2 Bft) 100,00 %
03.06.2023 07:34 10,6 C 69 % 1019,1 hPa 0,0 l/m 6,4 km/h (2 Bft) SO 135 0 min 0,000 mm 0,5 UV-I 151 W/m 5,2 C 10,6 C 11,3 km/h (2 Bft) 95,65 %
03.06.2023 07:33 10,6 C 69 % 1019,0 hPa 0,0 l/m 3,2 km/h (1 Bft) NO 45 0 min 0,000 mm 0,5 UV-I 151 W/m 5,2 C 10,6 C 6,4 km/h (2 Bft) 100,00 %
03.06.2023 07:32 10,6 C 69 % 1018,9 hPa 0,0 l/m 4,8 km/h (1 Bft) S-SO 157 0 min 0,000 mm 0,5 UV-I 151 W/m 5,2 C 10,6 C 12,9 km/h (3 Bft) 95,65 %
03.06.2023 07:31 10,6 C 69 % 1019,0 hPa 0,0 l/m 3,2 km/h (1 Bft) N-NO 22 0 min 0,000 mm 0,5 UV-I 151 W/m 5,2 C 10,6 C 9,7 km/h (2 Bft) 100,00 %
03.06.2023 07:30 10,6 C 70 % 1019,0 hPa 0,0 l/m 1,6 km/h (1 Bft) N-NO 22 1 min 0,000 mm 0,5 UV-I 153 W/m 5,4 C 10,6 C 4,8 km/h (1 Bft) 91,30 %
03.06.2023 07:29 10,6 C 69 % 1019,0 hPa 0,0 l/m 3,2 km/h (1 Bft) SO 135 1 min 0,000 mm 0,5 UV-I 155 W/m 5,2 C 10,6 C 6,4 km/h (2 Bft) 100,00 %
03.06.2023 07:28 10,6 C 70 % 1019,0 hPa 0,0 l/m 3,2 km/h (1 Bft) O-NO 67 1 min 0,000 mm 0,5 UV-I 158 W/m 5,4 C 10,6 C 11,3 km/h (2 Bft) 95,65 %
03.06.2023 07:27 10,6 C 69 % 1018,9 hPa 0,0 l/m 0,0 km/h (0 Bft) O-NO 67 1 min 0,000 mm 0,5 UV-I 162 W/m 5,2 C 10,6 C 1,6 km/h (1 Bft) 95,65 %
03.06.2023 07:26 10,6 C 69 % 1018,9 hPa 0,0 l/m 4,8 km/h (1 Bft) N 360 1 min 0,000 mm 0,5 UV-I 163 W/m 5,2 C 10,6 C 12,9 km/h (3 Bft) 95,65 %
03.06.2023 07:25 10,6 C 68 % 1018,9 hPa 0,0 l/m 0,0 km/h (0 Bft) N 360 1 min 0,000 mm 0,5 UV-I 167 W/m 4,9 C 10,6 C 1,6 km/h (1 Bft) 95,65 %
03.06.2023 07:24 10,6 C 69 % 1019,0 hPa 0,0 l/m 3,2 km/h (1 Bft) N 360 1 min 0,000 mm 0,5 UV-I 169 W/m 5,2 C 10,6 C 9,7 km/h (2 Bft) 100,00 %
03.06.2023 07:23 10,6 C 69 % 1018,9 hPa 0,0 l/m 1,6 km/h (1 Bft) N 360 1 min 0,000 mm 0,5 UV-I 171 W/m 5,2 C 10,6 C 4,8 km/h (1 Bft) 91,30 %
03.06.2023 07:22 10,6 C 68 % 1018,9 hPa 0,0 l/m 4,8 km/h (1 Bft) N 360 1 min 0,000 mm 0,5 UV-I 176 W/m 4,9 C 10,6 C 8,0 km/h (2 Bft) 100,00 %
03.06.2023 07:21 10,6 C 68 % 1018,9 hPa 0,0 l/m 6,4 km/h (2 Bft) O-NO 67 1 min 0,000 mm 0,5 UV-I 176 W/m 4,9 C 10,6 C 12,9 km/h (3 Bft) 95,65 %
03.06.2023 07:20 10,7 C 69 % 1018,9 hPa 0,0 l/m 4,8 km/h (1 Bft) N-NO 22 1 min 0,000 mm 0,5 UV-I 178 W/m 5,2 C 10,7 C 8,0 km/h (2 Bft) 100,00 %
03.06.2023 07:19 10,6 C 69 % 1018,9 hPa 0,0 l/m 1,6 km/h (1 Bft) S 180 1 min 0,000 mm 0,5 UV-I 188 W/m 5,2 C 10,6 C 8,0 km/h (2 Bft) 95,65 %
03.06.2023 07:18 10,6 C 69 % 1018,9 hPa 0,0 l/m 4,8 km/h (1 Bft) NO 45 1 min 0,000 mm 0,5 UV-I 213 W/m 5,2 C 10,6 C 11,3 km/h (2 Bft) 95,65 %
03.06.2023 07:17 10,7 C 70 % 1018,9 hPa 0,0 l/m 4,8 km/h (1 Bft) O-NO 67 1 min 0,000 mm 0,5 UV-I 209 W/m 5,5 C 10,7 C 8,0 km/h (2 Bft) 100,00 %
03.06.2023 07:16 10,7 C 69 % 1019,0 hPa 0,0 l/m 3,2 km/h (1 Bft) N-NW 337 1 min 0,000 mm 0,5 UV-I 211 W/m 5,2 C 10,7 C 4,8 km/h (1 Bft) 91,30 %
03.06.2023 07:15 10,6 C 70 % 1019,0 hPa 0,0 l/m 4,8 km/h (1 Bft) N 360 1 min 0,000 mm 0,5 UV-I 232 W/m 5,4 C 10,6 C 8,0 km/h (2 Bft) 100,00 %
03.06.2023 07:14 10,7 C 68 % 1019,0 hPa 0,0 l/m 4,8 km/h (1 Bft) NO 45 1 min 0,000 mm 0,5 UV-I 202 W/m 5,0 C 10,7 C 11,3 km/h (2 Bft) 86,96 %
03.06.2023 07:13 10,7 C 68 % 1019,0 hPa 0,0 l/m 4,8 km/h (1 Bft) N 360 1 min 0,000 mm 0,5 UV-I 202 W/m 5,0 C 10,7 C 8,0 km/h (2 Bft) 100,00 %
03.06.2023 07:12 10,7 C 68 % 1019,0 hPa 0,0 l/m 6,4 km/h (2 Bft) N 360 1 min 0,000 mm 0,5 UV-I 193 W/m 5,0 C 10,7 C 12,9 km/h (3 Bft) 95,65 %
03.06.2023 07:11 10,8 C 68 % 1018,9 hPa 0,0 l/m 4,8 km/h (1 Bft) SO 135 1 min 0,000 mm 0,0 UV-I 172 W/m 5,1 C 10,8 C 12,9 km/h (3 Bft) 100,00 %
03.06.2023 07:10 10,8 C 68 % 1018,9 hPa 0,0 l/m 3,2 km/h (1 Bft) N-NO 22 1 min 0,000 mm 0,0 UV-I 167 W/m 5,1 C 10,8 C 6,4 km/h (2 Bft) 95,65 %
03.06.2023 07:09 10,8 C 68 % 1018,9 hPa 0,0 l/m 3,2 km/h (1 Bft) N-NO 22 1 min 0,000 mm 0,0 UV-I 174 W/m 5,1 C 10,8 C 4,8 km/h (1 Bft) 91,30 %
03.06.2023 07:08 10,8 C 69 % 1018,9 hPa 0,0 l/m 4,8 km/h (1 Bft) O-SO 112 1 min 0,000 mm 0,0 UV-I 213 W/m 5,3 C 10,8 C 6,4 km/h (2 Bft) 100,00 %
03.06.2023 07:07 10,8 C 69 % 1019,0 hPa 0,0 l/m 8,0 km/h (2 Bft) SO 135 1 min 0,000 mm 0,5 UV-I 246 W/m 5,3 C 10,8 C 12,9 km/h (3 Bft) 95,65 %
03.06.2023 07:06 10,7 C 69 % 1018,9 hPa 0,0 l/m 3,2 km/h (1 Bft) O-SO 112 1 min 0,000 mm 0,5 UV-I 262 W/m 5,2 C 10,7 C 6,4 km/h (2 Bft) 100,00 %
03.06.2023 07:05 10,7 C 70 % 1018,9 hPa 0,0 l/m 3,2 km/h (1 Bft) N 360 1 min 0,000 mm 0,5 UV-I 272 W/m 5,5 C 10,7 C 6,4 km/h (2 Bft) 95,65 %
03.06.2023 07:04 10,7 C 69 % 1019,0 hPa 0,0 l/m 3,2 km/h (1 Bft) W-NW 292 1 min 0,000 mm 0,5 UV-I 269 W/m 5,2 C 10,7 C 4,8 km/h (1 Bft) 100,00 %
03.06.2023 07:03 10,6 C 70 % 1019,0 hPa 0,0 l/m 1,6 km/h (1 Bft) W-NW 292 1 min 0,000 mm 0,0 UV-I 264 W/m 5,4 C 10,6 C 3,2 km/h (1 Bft) 95,65 %
03.06.2023 07:02 10,6 C 70 % 1018,9 hPa 0,0 l/m 3,2 km/h (1 Bft) SO 135 1 min 0,000 mm 0,0 UV-I 260 W/m 5,4 C 10,6 C 4,8 km/h (1 Bft) 95,65 %
03.06.2023 07:01 10,5 C 70 % 1018,9 hPa 0,0 l/m 4,8 km/h (1 Bft) S-SO 157 1 min 0,000 mm 0,0 UV-I 255 W/m 5,3 C 10,5 C 8,0 km/h (2 Bft) 95,65 %
03.06.2023 07:00 10,5 C 70 % 1018,8 hPa 0,0 l/m 3,2 km/h (1 Bft) N-NW 337 1 min 0,076 mm 0,0 UV-I 248 W/m 5,3 C 10,5 C 12,9 km/h (3 Bft) 95,65 %
03.06.2023 06:59 10,5 C 70 % 1018,9 hPa 0,0 l/m 3,2 km/h (1 Bft) N-NW 337 1 min 0,000 mm 0,0 UV-I 241 W/m 5,3 C 10,5 C 4,8 km/h (1 Bft) 95,65 %
03.06.2023 06:58 10,4 C 70 % 1018,8 hPa 0,0 l/m 3,2 km/h (1 Bft) O-SO 112 1 min 0,000 mm 0,0 UV-I 234 W/m 5,2 C 10,4 C 4,8 km/h (1 Bft) 95,65 %
03.06.2023 06:57 10,4 C 70 % 1018,8 hPa 0,0 l/m 3,2 km/h (1 Bft) O 90 1 min 0,000 mm 0,0 UV-I 230 W/m 5,2 C 10,4 C 3,2 km/h (1 Bft) 100,00 %
03.06.2023 06:56 10,3 C 70 % 1018,8 hPa 0,0 l/m 3,2 km/h (1 Bft) W-NW 292 1 min 0,000 mm 0,0 UV-I 229 W/m 5,1 C 10,3 C 4,8 km/h (1 Bft) 100,00 %
03.06.2023 06:55 10,3 C 71 % 1018,8 hPa 0,0 l/m 4,8 km/h (1 Bft) NW 315 1 min 0,000 mm 0,0 UV-I 227 W/m 5,3 C 10,3 C 8,0 km/h (2 Bft) 95,65 %
03.06.2023 06:54 10,3 C 71 % 1018,8 hPa 0,0 l/m 1,6 km/h (1 Bft) O 90 1 min 0,000 mm 0,0 UV-I 221 W/m 5,3 C 10,3 C 6,4 km/h (2 Bft) 100,00 %
03.06.2023 06:53 10,2 C 71 % 1018,8 hPa 0,0 l/m 4,8 km/h (1 Bft) SO 135 1 min 0,000 mm 0,0 UV-I 216 W/m 5,2 C 10,2 C 8,0 km/h (2 Bft) 100,00 %
03.06.2023 06:52 10,1 C 71 % 1018,8 hPa 0,0 l/m 4,8 km/h (1 Bft) O-SO 112 1 min 0,000 mm 0,0 UV-I 207 W/m 5,1 C 10,1 C 9,7 km/h (2 Bft) 100,00 %
03.06.2023 06:51 10,1 C 70 % 1018,8 hPa 0,0 l/m 3,2 km/h (1 Bft) NO 45 1 min 0,000 mm 0,0 UV-I 207 W/m 4,9 C 10,1 C 4,8 km/h (1 Bft) 100,00 %
03.06.2023 06:50 10,1 C 71 % 1018,8 hPa 0,0 l/m 6,4 km/h (2 Bft) SO 135 1 min 0,000 mm 0,0 UV-I 204 W/m 5,1 C 10,1 C 12,9 km/h (3 Bft) 100,00 %
03.06.2023 06:49 10,0 C 71 % 1018,8 hPa 0,0 l/m 6,4 km/h (2 Bft) SO 135 1 min 0,000 mm 0,0 UV-I 200 W/m 5,0 C 9,4 C 11,3 km/h (2 Bft) 100,00 %
03.06.2023 06:48 9,9 C 71 % 1018,8 hPa 0,0 l/m 4,8 km/h (1 Bft) O 90 1 min 0,000 mm 0,0 UV-I 195 W/m 4,9 C 9,7 C 12,9 km/h (3 Bft) 95,65 %
03.06.2023 06:47 9,9 C 71 % 1018,8 hPa 0,0 l/m 1,6 km/h (1 Bft) N 360 1 min 0,000 mm 0,0 UV-I 190 W/m 4,9 C 9,9 C 6,4 km/h (2 Bft) 100,00 %
03.06.2023 06:46 9,9 C 71 % 1018,8 hPa 0,0 l/m 3,2 km/h (1 Bft) N 360 1 min 0,000 mm 0,0 UV-I 179 W/m 4,9 C 9,9 C 6,4 km/h (2 Bft) 100,00 %
03.06.2023 06:45 9,9 C 71 % 1018,8 hPa 0,0 l/m 3,2 km/h (1 Bft) N 360 1 min 0,000 mm 0,0 UV-I 174 W/m 4,9 C 9,9 C 4,8 km/h (1 Bft) 100,00 %
03.06.2023 06:44 9,9 C 71 % 1018,8 hPa 0,0 l/m 6,4 km/h (2 Bft) N-NO 22 1 min 0,000 mm 0,0 UV-I 165 W/m 4,9 C 9,3 C 11,3 km/h (2 Bft) 100,00 %
03.06.2023 06:43 9,9 C 71 % 1018,8 hPa 0,0 l/m 4,8 km/h (1 Bft) O-SO 112 1 min 0,000 mm 0,0 UV-I 153 W/m 4,9 C 9,7 C 8,0 km/h (2 Bft) 100,00 %
03.06.2023 06:42 9,9 C 71 % 1018,7 hPa 0,0 l/m 3,2 km/h (1 Bft) N 360 0 min 0,000 mm 0,0 UV-I 141 W/m 4,9 C 9,9 C 6,4 km/h (2 Bft) 100,00 %
03.06.2023 06:41 9,9 C 71 % 1018,7 hPa 0,0 l/m 4,8 km/h (1 Bft) S-SO 157 0 min 0,000 mm 0,0 UV-I 134 W/m 4,9 C 9,7 C 11,3 km/h (2 Bft) 95,65 %
03.06.2023 06:40 9,9 C 71 % 1018,8 hPa 0,0 l/m 4,8 km/h (1 Bft) O 90 0 min 0,000 mm 0,0 UV-I 127 W/m 4,9 C 9,7 C 11,3 km/h (2 Bft) 100,00 %
03.06.2023 06:39 9,9 C 71 % 1018,7 hPa 0,0 l/m 1,6 km/h (1 Bft) O 90 0 min 0,000 mm 0,0 UV-I 125 W/m 4,9 C 9,9 C 4,8 km/h (1 Bft) 100,00 %
03.06.2023 06:38 9,9 C 71 % 1018,6 hPa 0,0 l/m 3,2 km/h (1 Bft) NO 45 0 min 0,000 mm 0,0 UV-I 130 W/m 4,9 C 9,9 C 6,4 km/h (2 Bft) 100,00 %
03.06.2023 06:37 9,9 C 71 % 1018,6 hPa 0,0 l/m 6,4 km/h (2 Bft) N-NO 22 0 min 0,000 mm 0,0 UV-I 132 W/m 4,9 C 9,3 C 8,0 km/h (2 Bft) 100,00 %
03.06.2023 06:36 9,9 C 71 % 1018,6 hPa 0,0 l/m 3,2 km/h (1 Bft) N 360 0 min 0,000 mm 0,0 UV-I 134 W/m 4,9 C 9,9 C 11,3 km/h (2 Bft) 100,00 %
03.06.2023 06:35 9,9 C 71 % 1018,7 hPa 0,0 l/m 6,4 km/h (2 Bft) N 360 0 min 0,000 mm 0,0 UV-I 139 W/m 4,9 C 9,3 C 14,5 km/h (3 Bft) 100,00 %
03.06.2023 06:34 9,9 C 71 % 1018,7 hPa 0,0 l/m 3,2 km/h (1 Bft) O-SO 112 0 min 0,000 mm 0,0 UV-I 141 W/m 4,9 C 9,9 C 6,4 km/h (2 Bft) 91,30 %
03.06.2023 06:33 9,9 C 71 % 1018,7 hPa 0,0 l/m 6,4 km/h (2 Bft) SO 135 0 min 0,000 mm 0,0 UV-I 141 W/m 4,9 C 9,3 C 12,9 km/h (3 Bft) 100,00 %
03.06.2023 06:32 9,9 C 72 % 1018,7 hPa 0,0 l/m 3,2 km/h (1 Bft) O 90 0 min 0,000 mm 0,0 UV-I 141 W/m 5,1 C 9,9 C 8,0 km/h (2 Bft) 100,00 %
03.06.2023 06:31 9,9 C 72 % 1018,6 hPa 0,0 l/m 8,0 km/h (2 Bft) O-SO 112 0 min 0,000 mm 0,0 UV-I 137 W/m 5,1 C 8,9 C 11,3 km/h (2 Bft) 95,65 %
03.06.2023 06:30 9,8 C 72 % 1018,6 hPa 0,0 l/m 3,2 km/h (1 Bft) O-NO 67 0 min 0,000 mm 0,0 UV-I 135 W/m 5,0 C 9,8 C 6,4 km/h (2 Bft) 95,65 %
03.06.2023 06:29 9,8 C 72 % 1018,6 hPa 0,0 l/m 3,2 km/h (1 Bft) N 360 0 min 0,000 mm 0,0 UV-I 130 W/m 5,0 C 9,8 C 6,4 km/h (2 Bft) 100,00 %
03.06.2023 06:28 9,8 C 72 % 1018,7 hPa 0,0 l/m 4,8 km/h (1 Bft) N 360 0 min 0,000 mm 0,0 UV-I 130 W/m 5,0 C 9,6 C 8,0 km/h (2 Bft) 100,00 %
03.06.2023 06:27 9,8 C 72 % 1018,6 hPa 0,0 l/m 8,0 km/h (2 Bft) O 90 0 min 0,000 mm 0,0 UV-I 128 W/m 5,0 C 8,8 C 12,9 km/h (3 Bft) 86,96 %
03.06.2023 06:26 9,8 C 72 % 1018,5 hPa 0,0 l/m 4,8 km/h (1 Bft) O-SO 112 0 min 0,000 mm 0,0 UV-I 128 W/m 5,0 C 9,6 C 9,7 km/h (2 Bft) 100,00 %
03.06.2023 06:25 9,8 C 72 % 1018,7 hPa 0,0 l/m 3,2 km/h (1 Bft) SO 135 0 min 0,000 mm 0,0 UV-I 127 W/m 5,0 C 9,8 C 6,4 km/h (2 Bft) 100,00 %
03.06.2023 06:24 9,7 C 72 % 1018,5 hPa 0,0 l/m 3,2 km/h (1 Bft) O-SO 112 0 min 0,000 mm 0,0 UV-I 123 W/m 4,9 C 9,7 C 4,8 km/h (1 Bft) 100,00 %
03.06.2023 06:23 9,7 C 72 % 1018,6 hPa 0,0 l/m 3,2 km/h (1 Bft) O-SO 112 0 min 0,000 mm 0,0 UV-I 118 W/m 4,9 C 9,7 C 4,8 km/h (1 Bft) 95,65 %
03.06.2023 06:22 9,7 C 72 % 1018,6 hPa 0,0 l/m 6,4 km/h (2 Bft) SO 135 0 min 0,000 mm 0,0 UV-I 113 W/m 4,9 C 9,0 C 11,3 km/h (2 Bft) 95,65 %
03.06.2023 06:21 9,7 C 72 % 1018,6 hPa 0,0 l/m 6,4 km/h (2 Bft) NO 45 0 min 0,000 mm 0,0 UV-I 109 W/m 4,9 C 9,0 C 12,9 km/h (3 Bft) 100,00 %
03.06.2023 06:20 9,7 C 72 % 1018,5 hPa 0,0 l/m 4,8 km/h (1 Bft) S-SO 157 0 min 0,000 mm 0,0 UV-I 104 W/m 4,9 C 9,5 C 6,4 km/h (2 Bft) 95,65 %
03.06.2023 06:19 9,7 C 72 % 1018,6 hPa 0,0 l/m 4,8 km/h (1 Bft) O 90 0 min 0,000 mm 0,0 UV-I 100 W/m 4,9 C 9,5 C 9,7 km/h (2 Bft) 100,00 %
03.06.2023 06:18 9,7 C 72 % 1018,5 hPa 0,0 l/m 3,2 km/h (1 Bft) O-NO 67 0 min 0,000 mm 0,0 UV-I 97 W/m 4,9 C 9,7 C 6,4 km/h (2 Bft) 100,00 %
03.06.2023 06:17 9,7 C 72 % 1018,5 hPa 0,0 l/m 6,4 km/h (2 Bft) O-NO 67 0 min 0,000 mm 0,0 UV-I 84 W/m 4,9 C 9,0 C 9,7 km/h (2 Bft) 100,00 %
03.06.2023 06:16 9,7 C 72 % 1018,5 hPa 0,0 l/m 4,8 km/h (1 Bft) O-NO 67 0 min 0,000 mm 0,0 UV-I 70 W/m 4,9 C 9,5 C 6,4 km/h (2 Bft) 100,00 %
03.06.2023 06:15 9,7 C 72 % 1018,5 hPa 0,0 l/m 4,8 km/h (1 Bft) NO 45 0 min 0,000 mm 0,0 UV-I 62 W/m 4,9 C 9,5 C 6,4 km/h (2 Bft) 100,00 %
03.06.2023 06:14 9,7 C 72 % 1018,5 hPa 0,0 l/m 4,8 km/h (1 Bft) SO 135 0 min 0,000 mm 0,0 UV-I 56 W/m 4,9 C 9,5 C 11,3 km/h (2 Bft) 100,00 %
03.06.2023 06:13 9,7 C 72 % 1018,5 hPa 0,0 l/m 3,2 km/h (1 Bft) NO 45 0 min 0,000 mm 0,0 UV-I 54 W/m 4,9 C 9,7 C 6,4 km/h (2 Bft) 95,65 %
03.06.2023 06:12 9,7 C 72 % 1018,5 hPa 0,0 l/m 3,2 km/h (1 Bft) NO 45 0 min 0,000 mm 0,0 UV-I 53 W/m 4,9 C 9,7 C 6,4 km/h (2 Bft) 100,00 %
03.06.2023 06:11 9,8 C 72 % 1018,5 hPa 0,0 l/m 6,4 km/h (2 Bft) NO 45 0 min 0,000 mm 0,0 UV-I 53 W/m 5,0 C 9,1 C 11,3 km/h (2 Bft) 100,00 %
03.06.2023 06:10 9,8 C 72 % 1018,5 hPa 0,0 l/m 3,2 km/h (1 Bft) O-NO 67 0 min 0,000 mm 0,0 UV-I 54 W/m 5,0 C 9,8 C 6,4 km/h (2 Bft) 100,00 %
03.06.2023 06:09 9,8 C 72 % 1018,6 hPa 0,0 l/m 3,2 km/h (1 Bft) N-NW 337 0 min 0,000 mm 0,0 UV-I 54 W/m 5,0 C 9,8 C 6,4 km/h (2 Bft) 100,00 %
03.06.2023 06:08 9,8 C 72 % 1018,5 hPa 0,0 l/m 8,0 km/h (2 Bft) N 360 0 min 0,000 mm 0,0 UV-I 56 W/m 5,0 C 8,8 C 17,7 km/h (3 Bft) 100,00 %
03.06.2023 06:07 9,8 C 72 % 1018,5 hPa 0,0 l/m 4,8 km/h (1 Bft) N 360 0 min 0,000 mm 0,0 UV-I 56 W/m 5,0 C 9,6 C 6,4 km/h (2 Bft) 100,00 %
03.06.2023 06:06 9,8 C 72 % 1018,5 hPa 0,0 l/m 3,2 km/h (1 Bft) O-SO 112 0 min 0,000 mm 0,0 UV-I 56 W/m 5,0 C 9,8 C 4,8 km/h (1 Bft) 95,65 %
03.06.2023 06:05 9,8 C 72 % 1018,5 hPa 0,0 l/m 6,4 km/h (2 Bft) NO 45 0 min 0,000 mm 0,0 UV-I 54 W/m 5,0 C 9,1 C 14,5 km/h (3 Bft) 100,00 %
03.06.2023 06:04 9,8 C 72 % 1018,4 hPa 0,0 l/m 4,8 km/h (1 Bft) S-SO 157 0 min 0,000 mm 0,0 UV-I 54 W/m 5,0 C 9,6 C 9,7 km/h (2 Bft) 100,00 %
03.06.2023 06:03 9,8 C 72 % 1018,4 hPa 0,0 l/m 8,0 km/h (2 Bft) O-NO 67 0 min 0,000 mm 0,0 UV-I 54 W/m 5,0 C 8,8 C 14,5 km/h (3 Bft) 100,00 %
03.06.2023 06:02 9,8 C 72 % 1018,5 hPa 0,0 l/m 4,8 km/h (1 Bft) O 90 0 min 0,000 mm 0,0 UV-I 53 W/m 5,0 C 9,6 C 11,3 km/h (2 Bft) 95,65 %
03.06.2023 06:01 9,8 C 72 % 1018,4 hPa 0,0 l/m 6,4 km/h (2 Bft) N-NW 337 0 min 0,000 mm 0,0 UV-I 53 W/m 5,0 C 9,1 C 9,7 km/h (2 Bft) 100,00 %
03.06.2023 06:00 9,8 C 72 % 1018,5 hPa 0,0 l/m 6,4 km/h (2 Bft) O 90 0 min 0,025 mm 0,0 UV-I 51 W/m 5,0 C 9,1 C 12,9 km/h (3 Bft) 100,00 %
03.06.2023 05:59 9,8 C 72 % 1018,5 hPa 0,0 l/m 3,2 km/h (1 Bft) N 360 0 min 0,000 mm 0,0 UV-I 49 W/m 5,0 C 9,8 C 4,8 km/h (1 Bft) 95,65 %
03.06.2023 05:58 9,8 C 72 % 1018,4 hPa 0,0 l/m 4,8 km/h (1 Bft) N 360 0 min 0,000 mm 0,0 UV-I 49 W/m 5,0 C 9,6 C 11,3 km/h (2 Bft) 100,00 %
03.06.2023 05:57 9,8 C 72 % 1018,5 hPa 0,0 l/m 4,8 km/h (1 Bft) O-NO 67 0 min 0,000 mm 0,0 UV-I 47 W/m 5,0 C 9,6 C 16,1 km/h (3 Bft) 100,00 %
03.06.2023 05:56 9,8 C 72 % 1018,4 hPa 0,0 l/m 4,8 km/h (1 Bft) O 90 0 min 0,000 mm 0,0 UV-I 46 W/m 5,0 C 9,6 C 11,3 km/h (2 Bft) 100,00 %
03.06.2023 05:55 9,8 C 73 % 1018,4 hPa 0,0 l/m 4,8 km/h (1 Bft) O 90 0 min 0,000 mm 0,0 UV-I 44 W/m 5,2 C 9,6 C 6,4 km/h (2 Bft) 100,00 %
03.06.2023 05:54 9,8 C 73 % 1018,4 hPa 0,0 l/m 8,0 km/h (2 Bft) O-SO 112 0 min 0,000 mm 0,0 UV-I 42 W/m 5,2 C 8,8 C 19,3 km/h (3 Bft) 100,00 %
03.06.2023 05:53 9,7 C 72 % 1018,5 hPa 0,0 l/m 6,4 km/h (2 Bft) SO 135 0 min 0,000 mm 0,0 UV-I 39 W/m 4,9 C 9,0 C 12,9 km/h (3 Bft) 100,00 %
03.06.2023 05:52 9,7 C 73 % 1018,5 hPa 0,0 l/m 6,4 km/h (2 Bft) NO 45 0 min 0,000 mm 0,0 UV-I 37 W/m 5,1 C 9,0 C 11,3 km/h (2 Bft) 95,65 %
03.06.2023 05:51 9,7 C 73 % 1018,5 hPa 0,0 l/m 4,8 km/h (1 Bft) O-SO 112 0 min 0,000 mm 0,0 UV-I 35 W/m 5,1 C 9,5 C 11,3 km/h (2 Bft) 100,00 %
03.06.2023 05:50 9,8 C 73 % 1018,5 hPa 0,0 l/m 6,4 km/h (2 Bft) O-SO 112 0 min 0,000 mm 0,0 UV-I 33 W/m 5,2 C 9,1 C 11,3 km/h (2 Bft) 100,00 %
03.06.2023 05:49 9,7 C 73 % 1018,5 hPa 0,0 l/m 4,8 km/h (1 Bft) O 90 0 min 0,000 mm 0,0 UV-I 32 W/m 5,1 C 9,5 C 9,7 km/h (2 Bft) 100,00 %
03.06.2023 05:48 9,7 C 73 % 1018,4 hPa 0,0 l/m 6,4 km/h (2 Bft) SO 135 0 min 0,000 mm 0,0 UV-I 30 W/m 5,1 C 9,0 C 12,9 km/h (3 Bft) 95,65 %
03.06.2023 05:47 9,8 C 73 % 1018,5 hPa 0,0 l/m 4,8 km/h (1 Bft) NO 45 0 min 0,000 mm 0,0 UV-I 28 W/m 5,2 C 9,6 C 9,7 km/h (2 Bft) 100,00 %
03.06.2023 05:46 9,8 C 73 % 1018,4 hPa 0,0 l/m 6,4 km/h (2 Bft) N-NO 22 0 min 0,000 mm 0,0 UV-I 28 W/m 5,2 C 9,1 C 16,1 km/h (3 Bft) 100,00 %
03.06.2023 05:45 9,8 C 73 % 1018,4 hPa 0,0 l/m 4,8 km/h (1 Bft) O-SO 112 0 min 0,000 mm 0,0 UV-I 26 W/m 5,2 C 9,6 C 12,9 km/h (3 Bft) 95,65 %
03.06.2023 05:44 9,8 C 73 % 1018,4 hPa 0,0 l/m 4,8 km/h (1 Bft) N-NO 22 0 min 0,000 mm 0,0 UV-I 25 W/m 5,2 C 9,6 C 8,0 km/h (2 Bft) 100,00 %
03.06.2023 05:43 9,8 C 73 % 1018,4 hPa 0,0 l/m 3,2 km/h (1 Bft) N-NW 337 0 min 0,000 mm 0,0 UV-I 23 W/m 5,2 C 9,8 C 8,0 km/h (2 Bft) 95,65 %
03.06.2023 05:42 9,8 C 73 % 1018,3 hPa 0,0 l/m 6,4 km/h (2 Bft) O-SO 112 0 min 0,000 mm 0,0 UV-I 19 W/m 5,2 C 9,1 C 14,5 km/h (3 Bft) 100,00 %
03.06.2023 05:41 9,8 C 73 % 1018,3 hPa 0,0 l/m 6,4 km/h (2 Bft) O 90 0 min 0,000 mm 0,0 UV-I 19 W/m 5,2 C 9,1 C 11,3 km/h (2 Bft) 95,65 %
03.06.2023 05:40 9,8 C 73 % 1018,3 hPa 0,0 l/m 4,8 km/h (1 Bft) O-SO 112 0 min 0,000 mm 0,0 UV-I 18 W/m 5,2 C 9,6 C 16,1 km/h (3 Bft) 95,65 %
03.06.2023 05:39 9,8 C 73 % 1018,3 hPa 0,0 l/m 6,4 km/h (2 Bft) N-NO 22 0 min 0,000 mm 0,0 UV-I 18 W/m 5,2 C 9,1 C 12,9 km/h (3 Bft) 95,65 %
03.06.2023 05:38 9,8 C 73 % 1018,3 hPa 0,0 l/m 4,8 km/h (1 Bft) NO 45 0 min 0,000 mm 0,0 UV-I 18 W/m 5,2 C 9,6 C 6,4 km/h (2 Bft) 95,65 %
03.06.2023 05:37 9,8 C 73 % 1018,4 hPa 0,0 l/m 8,0 km/h (2 Bft) N-NO 22 0 min 0,000 mm 0,0 UV-I 18 W/m 5,2 C 8,8 C 14,5 km/h (3 Bft) 86,96 %
03.06.2023 05:36 9,8 C 73 % 1018,4 hPa 0,0 l/m 4,8 km/h (1 Bft) N-NO 22 0 min 0,000 mm 0,0 UV-I 16 W/m 5,2 C 9,6 C 14,5 km/h (3 Bft) 100,00 %
03.06.2023 05:35 9,8 C 73 % 1018,3 hPa 0,0 l/m 3,2 km/h (1 Bft) N 360 0 min 0,000 mm 0,0 UV-I 16 W/m 5,2 C 9,8 C 9,7 km/h (2 Bft) 91,30 %
03.06.2023 05:34 9,8 C 73 % 1018,4 hPa 0,0 l/m 3,2 km/h (1 Bft) N-NW 337 0 min 0,000 mm 0,0 UV-I 14 W/m 5,2 C 9,8 C 8,0 km/h (2 Bft) 95,65 %
03.06.2023 05:33 9,8 C 73 % 1018,3 hPa 0,0 l/m 8,0 km/h (2 Bft) SO 135 0 min 0,000 mm 0,0 UV-I 14 W/m 5,2 C 8,8 C 19,3 km/h (3 Bft) 100,00 %
03.06.2023 05:32 9,8 C 73 % 1018,3 hPa 0,0 l/m 3,2 km/h (1 Bft) O-NO 67 0 min 0,000 mm 0,0 UV-I 14 W/m 5,2 C 9,8 C 4,8 km/h (1 Bft) 91,30 %
03.06.2023 05:31 9,8 C 73 % 1018,3 hPa 0,0 l/m 6,4 km/h (2 Bft) N-NO 22 0 min 0,000 mm 0,0 UV-I 12 W/m 5,2 C 9,1 C 16,1 km/h (3 Bft) 95,65 %
03.06.2023 05:30 9,8 C 73 % 1018,2 hPa 0,0 l/m 6,4 km/h (2 Bft) O-SO 112 0 min 0,000 mm 0,0 UV-I 12 W/m 5,2 C 9,1 C 9,7 km/h (2 Bft) 95,65 %
03.06.2023 05:29 9,8 C 73 % 1018,3 hPa 0,0 l/m 3,2 km/h (1 Bft) O-NO 67 0 min 0,000 mm 0,0 UV-I 11 W/m 5,2 C 9,8 C 6,4 km/h (2 Bft) 100,00 %
03.06.2023 05:28 9,8 C 73 % 1018,1 hPa 0,0 l/m 6,4 km/h (2 Bft) SO 135 0 min 0,000 mm 0,0 UV-I 11 W/m 5,2 C 9,1 C 12,9 km/h (3 Bft) 95,65 %
03.06.2023 05:27 9,8 C 73 % 1018,3 hPa 0,0 l/m 6,4 km/h (2 Bft) N-NW 337 0 min 0,000 mm 0,0 UV-I 11 W/m 5,2 C 9,1 C 11,3 km/h (2 Bft) 100,00 %
03.06.2023 05:26 9,8 C 73 % 1018,2 hPa 0,0 l/m 3,2 km/h (1 Bft) O-NO 67 0 min 0,000 mm 0,0 UV-I 9 W/m 5,2 C 9,8 C 6,4 km/h (2 Bft) 95,65 %
03.06.2023 05:25 9,8 C 73 % 1018,2 hPa 0,0 l/m 4,8 km/h (1 Bft) O-NO 67 0 min 0,000 mm 0,0 UV-I 9 W/m 5,2 C 9,6 C 12,9 km/h (3 Bft) 95,65 %
03.06.2023 05:24 9,8 C 73 % 1018,2 hPa 0,0 l/m 3,2 km/h (1 Bft) N-NW 337 0 min 0,000 mm 0,0 UV-I 9 W/m 5,2 C 9,8 C 4,8 km/h (1 Bft) 91,30 %
03.06.2023 05:23 9,8 C 73 % 1018,0 hPa 0,0 l/m 4,8 km/h (1 Bft) O 90 0 min 0,000 mm 0,0 UV-I 7 W/m 5,2 C 9,6 C 14,5 km/h (3 Bft) 95,65 %
03.06.2023 05:22 9,8 C 73 % 1018,0 hPa 0,0 l/m 3,2 km/h (1 Bft) NO 45 0 min 0,000 mm 0,0 UV-I 7 W/m 5,2 C 9,8 C 6,4 km/h (2 Bft) 100,00 %
03.06.2023 05:21 9,8 C 73 % 1018,0 hPa 0,0 l/m 8,0 km/h (2 Bft) O-NO 67 0 min 0,000 mm 0,0 UV-I 7 W/m 5,2 C 8,8 C 14,5 km/h (3 Bft) 91,30 %
03.06.2023 05:20 9,8 C 73 % 1018,1 hPa 0,0 l/m 6,4 km/h (2 Bft) N-NW 337 0 min 0,000 mm 0,0 UV-I 7 W/m 5,2 C 9,1 C 14,5 km/h (3 Bft) 100,00 %
03.06.2023 05:19 9,8 C 73 % 1018,0 hPa 0,0 l/m 4,8 km/h (1 Bft) S-SO 157 0 min 0,000 mm 0,0 UV-I 7 W/m 5,2 C 9,6 C 11,3 km/h (2 Bft) 95,65 %
03.06.2023 05:18 9,8 C 73 % 1018,0 hPa 0,0 l/m 4,8 km/h (1 Bft) N 360 0 min 0,000 mm 0,0 UV-I 5 W/m 5,2 C 9,6 C 8,0 km/h (2 Bft) 100,00 %
03.06.2023 05:17 9,8 C 73 % 1018,0 hPa 0,0 l/m 8,0 km/h (2 Bft) O-SO 112 0 min 0,000 mm 0,0 UV-I 5 W/m 5,2 C 8,8 C 17,7 km/h (3 Bft) 91,30 %
03.06.2023 05:16 9,8 C 74 % 1018,0 hPa 0,0 l/m 3,2 km/h (1 Bft) NO 45 0 min 0,000 mm 0,0 UV-I 5 W/m 5,4 C 9,8 C 8,0 km/h (2 Bft) 95,65 %
03.06.2023 05:15 9,8 C 74 % 1018,0 hPa 0,0 l/m 4,8 km/h (1 Bft) S-SO 157 0 min 0,000 mm 0,0 UV-I 5 W/m 5,4 C 9,6 C 12,9 km/h (3 Bft) 100,00 %
03.06.2023 05:14 9,8 C 74 % 1018,0 hPa 0,0 l/m 6,4 km/h (2 Bft) N-NO 22 0 min 0,000 mm 0,0 UV-I 5 W/m 5,4 C 9,1 C 9,7 km/h (2 Bft) 95,65 %
03.06.2023 05:13 9,8 C 74 % 1018,0 hPa 0,0 l/m 4,8 km/h (1 Bft) NO 45 0 min 0,000 mm 0,0 UV-I 5 W/m 5,4 C 9,6 C 8,0 km/h (2 Bft) 100,00 %
03.06.2023 05:12 9,7 C 74 % 1017,9 hPa 0,0 l/m 4,8 km/h (1 Bft) SO 135 0 min 0,000 mm 0,0 UV-I 5 W/m 5,3 C 9,5 C 8,0 km/h (2 Bft) 95,65 %
03.06.2023 05:11 9,7 C 74 % 1018,0 hPa 0,0 l/m 6,4 km/h (2 Bft) O-SO 112 0 min 0,000 mm 0,0 UV-I 5 W/m 5,3 C 9,0 C 14,5 km/h (3 Bft) 95,65 %
03.06.2023 05:10 9,7 C 74 % 1017,9 hPa 0,0 l/m 4,8 km/h (1 Bft) O 90 0 min 0,000 mm 0,0 UV-I 0 W/m 5,3 C 9,5 C 9,7 km/h (2 Bft) 91,30 %
03.06.2023 05:09 9,7 C 74 % 1017,9 hPa 0,0 l/m 3,2 km/h (1 Bft) O 90 0 min 0,000 mm 0,0 UV-I 0 W/m 5,3 C 9,7 C 4,8 km/h (1 Bft) 100,00 %
03.06.2023 05:08 9,7 C 74 % 1017,9 hPa 0,0 l/m 3,2 km/h (1 Bft) NW 315 0 min 0,000 mm 0,0 UV-I 0 W/m 5,3 C 9,7 C 6,4 km/h (2 Bft) 95,65 %
03.06.2023 05:07 9,7 C 74 % 1018,0 hPa 0,0 l/m 4,8 km/h (1 Bft) O-NO 67 0 min 0,000 mm 0,0 UV-I 0 W/m 5,3 C 9,5 C 12,9 km/h (3 Bft) 95,65 %
03.06.2023 05:06 9,7 C 74 % 1018,0 hPa 0,0 l/m 4,8 km/h (1 Bft) O 90 0 min 0,000 mm 0,0 UV-I 0 W/m 5,3 C 9,5 C 8,0 km/h (2 Bft) 100,00 %
03.06.2023 05:05 9,7 C 74 % 1018,0 hPa 0,0 l/m 4,8 km/h (1 Bft) SO 135 0 min 0,000 mm 0,0 UV-I 0 W/m 5,3 C 9,5 C 11,3 km/h (2 Bft) 91,30 %
03.06.2023 05:04 9,7 C 74 % 1017,9 hPa 0,0 l/m 4,8 km/h (1 Bft) O-NO 67 0 min 0,000 mm 0,0 UV-I 0 W/m 5,3 C 9,5 C 8,0 km/h (2 Bft) 100,00 %
03.06.2023 05:03 9,7 C 74 % 1018,0 hPa 0,0 l/m 4,8 km/h (1 Bft) N-NO 22 0 min 0,000 mm 0,0 UV-I 0 W/m 5,3 C 9,5 C 9,7 km/h (2 Bft) 91,30 %
03.06.2023 05:02 9,7 C 74 % 1018,0 hPa 0,0 l/m 3,2 km/h (1 Bft) NO 45 0 min 0,000 mm 0,0 UV-I 0 W/m 5,3 C 9,7 C 6,4 km/h (2 Bft) 95,65 %
03.06.2023 05:01 9,7 C 75 % 1018,0 hPa 0,0 l/m 3,2 km/h (1 Bft) NO 45 0 min 0,000 mm 0,0 UV-I 0 W/m 5,5 C 9,7 C 4,8 km/h (1 Bft) 100,00 %
03.06.2023 05:00 9,7 C 75 % 1017,9 hPa 0,0 l/m 4,8 km/h (1 Bft) N 360 0 min 0,025 mm 0,0 UV-I 0 W/m 5,5 C 9,5 C 8,0 km/h (2 Bft) 100,00 %
03.06.2023 04:59 9,7 C 75 % 1018,0 hPa 0,0 l/m 8,0 km/h (2 Bft) O-NO 67 0 min 0,000 mm 0,0 UV-I 0 W/m 5,5 C 8,7 C 19,3 km/h (3 Bft) 100,00 %
03.06.2023 04:58 9,7 C 75 % 1018,0 hPa 0,0 l/m 4,8 km/h (1 Bft) SO 135 0 min 0,000 mm 0,0 UV-I 0 W/m 5,5 C 9,5 C 11,3 km/h (2 Bft) 95,65 %
03.06.2023 04:57 9,7 C 75 % 1018,0 hPa 0,0 l/m 4,8 km/h (1 Bft) O-SO 112 0 min 0,000 mm 0,0 UV-I 0 W/m 5,5 C 9,5 C 11,3 km/h (2 Bft) 100,00 %
03.06.2023 04:56 9,7 C 75 % 1017,9 hPa 0,0 l/m 3,2 km/h (1 Bft) O-SO 112 0 min 0,000 mm 0,0 UV-I 0 W/m 5,5 C 9,7 C 9,7 km/h (2 Bft) 95,65 %
03.06.2023 04:55 9,7 C 75 % 1018,0 hPa 0,0 l/m 6,4 km/h (2 Bft) NO 45 0 min 0,000 mm 0,0 UV-I 0 W/m 5,5 C 9,0 C 11,3 km/h (2 Bft) 95,65 %
03.06.2023 04:54 9,7 C 75 % 1017,9 hPa 0,0 l/m 3,2 km/h (1 Bft) O-SO 112 0 min 0,000 mm 0,0 UV-I 0 W/m 5,5 C 9,7 C 4,8 km/h (1 Bft) 100,00 %
03.06.2023 04:53 9,7 C 75 % 1018,0 hPa 0,0 l/m 6,4 km/h (2 Bft) O-SO 112 0 min 0,000 mm 0,0 UV-I 0 W/m 5,5 C 9,0 C 11,3 km/h (2 Bft) 100,00 %
03.06.2023 04:52 9,7 C 75 % 1018,0 hPa 0,0 l/m 6,4 km/h (2 Bft) SO 135 0 min 0,000 mm 0,0 UV-I 0 W/m 5,5 C 9,0 C 9,7 km/h (2 Bft) 100,00 %
03.06.2023 04:51 9,7 C 75 % 1018,0 hPa 0,0 l/m 4,8 km/h (1 Bft) N-NW 337 0 min 0,000 mm 0,0 UV-I 0 W/m 5,5 C 9,5 C 6,4 km/h (2 Bft) 95,65 %
03.06.2023 04:50 9,7 C 75 % 1017,9 hPa 0,0 l/m 3,2 km/h (1 Bft) SO 135 0 min 0,000 mm 0,0 UV-I 0 W/m 5,5 C 9,7 C 9,7 km/h (2 Bft) 100,00 %
03.06.2023 04:49 9,7 C 75 % 1017,9 hPa 0,0 l/m 3,2 km/h (1 Bft) SO 135 0 min 0,000 mm 0,0 UV-I 0 W/m 5,5 C 9,7 C 4,8 km/h (1 Bft) 91,30 %
03.06.2023 04:48 9,7 C 75 % 1018,0 hPa 0,0 l/m 6,4 km/h (2 Bft) N-NO 22 0 min 0,000 mm 0,0 UV-I 0 W/m 5,5 C 9,0 C 12,9 km/h (3 Bft) 95,65 %
03.06.2023 04:47 9,7 C 75 % 1017,9 hPa 0,0 l/m 3,2 km/h (1 Bft) SO 135 0 min 0,000 mm 0,0 UV-I 0 W/m 5,5 C 9,7 C 6,4 km/h (2 Bft) 100,00 %
03.06.2023 04:46 9,7 C 76 % 1018,0 hPa 0,0 l/m 4,8 km/h (1 Bft) O-NO 67 0 min 0,000 mm 0,0 UV-I 0 W/m 5,7 C 9,5 C 11,3 km/h (2 Bft) 95,65 %
03.06.2023 04:45 9,7 C 75 % 1017,9 hPa 0,0 l/m 4,8 km/h (1 Bft) SO 135 0 min 0,000 mm 0,0 UV-I 0 W/m 5,5 C 9,5 C 11,3 km/h (2 Bft) 100,00 %
03.06.2023 04:44 9,8 C 75 % 1017,9 hPa 0,0 l/m 4,8 km/h (1 Bft) O-SO 112 0 min 0,000 mm 0,0 UV-I 0 W/m 5,6 C 9,6 C 12,9 km/h (3 Bft) 100,00 %
03.06.2023 04:43 9,7 C 75 % 1017,9 hPa 0,0 l/m 4,8 km/h (1 Bft) O-SO 112 0 min 0,000 mm 0,0 UV-I 0 W/m 5,5 C 9,5 C 12,9 km/h (3 Bft) 100,00 %
03.06.2023 04:42 9,8 C 75 % 1017,9 hPa 0,0 l/m 4,8 km/h (1 Bft) O-SO 112 0 min 0,000 mm 0,0 UV-I 0 W/m 5,6 C 9,6 C 9,7 km/h (2 Bft) 91,30 %
03.06.2023 04:41 9,7 C 75 % 1017,9 hPa 0,0 l/m 3,2 km/h (1 Bft) NW 315 0 min 0,000 mm 0,0 UV-I 0 W/m 5,5 C 9,7 C 4,8 km/h (1 Bft) 100,00 %
03.06.2023 04:40 9,8 C 75 % 1018,0 hPa 0,0 l/m 4,8 km/h (1 Bft) O-SO 112 0 min 0,000 mm 0,0 UV-I 0 W/m 5,6 C 9,6 C 8,0 km/h (2 Bft) 100,00 %
03.06.2023 04:39 9,8 C 76 % 1017,9 hPa 0,0 l/m 4,8 km/h (1 Bft) SO 135 0 min 0,000 mm 0,0 UV-I 0 W/m 5,8 C 9,6 C 6,4 km/h (2 Bft) 100,00 %
03.06.2023 04:38 9,8 C 76 % 1017,9 hPa 0,0 l/m 3,2 km/h (1 Bft) N-NO 22 0 min 0,000 mm 0,0 UV-I 0 W/m 5,8 C 9,8 C 6,4 km/h (2 Bft) 100,00 %
03.06.2023 04:37 9,8 C 75 % 1017,9 hPa 0,0 l/m 6,4 km/h (2 Bft) O-SO 112 0 min 0,000 mm 0,0 UV-I 0 W/m 5,6 C 9,1 C 14,5 km/h (3 Bft) 95,65 %
03.06.2023 04:36 9,8 C 75 % 1018,0 hPa 0,0 l/m 4,8 km/h (1 Bft) N-NO 22 0 min 0,000 mm 0,0 UV-I 0 W/m 5,6 C 9,6 C 9,7 km/h (2 Bft) 91,30 %
03.06.2023 04:35 9,8 C 75 % 1018,0 hPa 0,0 l/m 1,6 km/h (1 Bft) NO 45 0 min 0,000 mm 0,0 UV-I 0 W/m 5,6 C 9,8 C 3,2 km/h (1 Bft) 95,65 %
03.06.2023 04:34 9,8 C 75 % 1018,0 hPa 0,0 l/m 4,8 km/h (1 Bft) NO 45 0 min 0,000 mm 0,0 UV-I 0 W/m 5,6 C 9,6 C 11,3 km/h (2 Bft) 100,00 %
03.06.2023 04:33 9,9 C 75 % 1018,0 hPa 0,0 l/m 3,2 km/h (1 Bft) O-NO 67 0 min 0,000 mm 0,0 UV-I 0 W/m 5,7 C 9,9 C 8,0 km/h (2 Bft) 95,65 %
03.06.2023 04:32 9,9 C 75 % 1018,0 hPa 0,0 l/m 6,4 km/h (2 Bft) O-SO 112 0 min 0,000 mm 0,0 UV-I 0 W/m 5,7 C 9,3 C 11,3 km/h (2 Bft) 100,00 %
03.06.2023 04:31 9,9 C 75 % 1018,0 hPa 0,0 l/m 3,2 km/h (1 Bft) O-NO 67 0 min 0,000 mm 0,0 UV-I 0 W/m 5,7 C 9,9 C 6,4 km/h (2 Bft) 100,00 %
03.06.2023 04:30 9,9 C 75 % 1017,9 hPa 0,0 l/m 6,4 km/h (2 Bft) O-SO 112 0 min 0,000 mm 0,0 UV-I 0 W/m 5,7 C 9,3 C 14,5 km/h (3 Bft) 100,00 %
03.06.2023 04:29 9,9 C 75 % 1018,0 hPa 0,0 l/m 4,8 km/h (1 Bft) N-NO 22 0 min 0,000 mm 0,0 UV-I 0 W/m 5,7 C 9,7 C 11,3 km/h (2 Bft) 100,00 %
03.06.2023 04:28 9,9 C 75 % 1018,0 hPa 0,0 l/m 3,2 km/h (1 Bft) O 90 0 min 0,000 mm 0,0 UV-I 0 W/m 5,7 C 9,9 C 8,0 km/h (2 Bft) 95,65 %
03.06.2023 04:27 9,9 C 75 % 1018,0 hPa 0,0 l/m 4,8 km/h (1 Bft) O 90 0 min 0,000 mm 0,0 UV-I 0 W/m 5,7 C 9,7 C 11,3 km/h (2 Bft) 100,00 %
03.06.2023 04:26 9,9 C 75 % 1018,0 hPa 0,0 l/m 6,4 km/h (2 Bft) NO 45 0 min 0,000 mm 0,0 UV-I 0 W/m 5,7 C 9,3 C 14,5 km/h (3 Bft) 91,30 %
03.06.2023 04:25 9,9 C 75 % 1018,1 hPa 0,0 l/m 4,8 km/h (1 Bft) N-NO 22 0 min 0,000 mm 0,0 UV-I 0 W/m 5,7 C 9,7 C 8,0 km/h (2 Bft) 100,00 %
03.06.2023 04:24 10,0 C 75 % 1018,0 hPa 0,0 l/m 3,2 km/h (1 Bft) O-SO 112 0 min 0,000 mm 0,0 UV-I 0 W/m 5,8 C 10,0 C 6,4 km/h (2 Bft) 100,00 %
03.06.2023 04:23 9,9 C 75 % 1018,0 hPa 0,0 l/m 4,8 km/h (1 Bft) O 90 0 min 0,000 mm 0,0 UV-I 0 W/m 5,7 C 9,7 C 9,7 km/h (2 Bft) 100,00 %
03.06.2023 04:22 10,0 C 75 % 1018,0 hPa 0,0 l/m 3,2 km/h (1 Bft) W-NW 292 0 min 0,000 mm 0,0 UV-I 0 W/m 5,8 C 10,0 C 8,0 km/h (2 Bft) 100,00 %
03.06.2023 04:21 10,1 C 75 % 1018,0 hPa 0,0 l/m 3,2 km/h (1 Bft) O-NO 67 0 min 0,000 mm 0,0 UV-I 0 W/m 5,9 C 10,1 C 6,4 km/h (2 Bft) 95,65 %
03.06.2023 04:20 10,1 C 75 % 1018,0 hPa 0,0 l/m 3,2 km/h (1 Bft) NW 315 0 min 0,000 mm 0,0 UV-I 0 W/m 5,9 C 10,1 C 12,9 km/h (3 Bft) 95,65 %
03.06.2023 04:19 10,1 C 75 % 1018,1 hPa 0,0 l/m 3,2 km/h (1 Bft) S 180 0 min 0,000 mm 0,0 UV-I 0 W/m 5,9 C 10,1 C 4,8 km/h (1 Bft) 100,00 %
03.06.2023 04:18 10,1 C 75 % 1018,1 hPa 0,0 l/m 4,8 km/h (1 Bft) NO 45 0 min 0,000 mm 0,0 UV-I 0 W/m 5,9 C 10,1 C 8,0 km/h (2 Bft) 100,00 %
03.06.2023 04:17 10,1 C 75 % 1018,1 hPa 0,0 l/m 1,6 km/h (1 Bft) NO 45 0 min 0,000 mm 0,0 UV-I 0 W/m 5,9 C 10,1 C 3,2 km/h (1 Bft) 100,00 %
03.06.2023 04:16 10,1 C 75 % 1018,1 hPa 0,0 l/m 4,8 km/h (1 Bft) NO 45 0 min 0,000 mm 0,0 UV-I 0 W/m 5,9 C 10,1 C 12,9 km/h (3 Bft) 100,00 %
03.06.2023 04:15 10,1 C 75 % 1018,2 hPa 0,0 l/m 4,8 km/h (1 Bft) N-NO 22 0 min 0,000 mm 0,0 UV-I 0 W/m 5,9 C 10,1 C 12,9 km/h (3 Bft) 100,00 %
03.06.2023 04:14 10,1 C 75 % 1018,1 hPa 0,0 l/m 3,2 km/h (1 Bft) NO 45 0 min 0,000 mm 0,0 UV-I 0 W/m 5,9 C 10,1 C 12,9 km/h (3 Bft) 95,65 %
03.06.2023 04:13 10,1 C 75 % 1018,2 hPa 0,0 l/m 3,2 km/h (1 Bft) N-NW 337 0 min 0,000 mm 0,0 UV-I 0 W/m 5,9 C 10,1 C 8,0 km/h (2 Bft) 95,65 %
03.06.2023 04:12 10,1 C 75 % 1018,2 hPa 0,0 l/m 3,2 km/h (1 Bft) N 360 0 min 0,000 mm 0,0 UV-I 0 W/m 5,9 C 10,1 C 8,0 km/h (2 Bft) 100,00 %
03.06.2023 04:11 10,1 C 75 % 1018,1 hPa 0,0 l/m 4,8 km/h (1 Bft) N 360 0 min 0,000 mm 0,0 UV-I 0 W/m 5,9 C 10,1 C 8,0 km/h (2 Bft) 100,00 %
03.06.2023 04:10 10,1 C 75 % 1018,1 hPa 0,0 l/m 3,2 km/h (1 Bft) O-NO 67 0 min 0,000 mm 0,0 UV-I 0 W/m 5,9 C 10,1 C 4,8 km/h (1 Bft) 95,65 %
03.06.2023 04:09 10,2 C 75 % 1018,2 hPa 0,0 l/m 1,6 km/h (1 Bft) O 90 0 min 0,000 mm 0,0 UV-I 0 W/m 6,0 C 10,2 C 4,8 km/h (1 Bft) 100,00 %
03.06.2023 04:08 10,1 C 75 % 1018,2 hPa 0,0 l/m 4,8 km/h (1 Bft) NO 45 0 min 0,000 mm 0,0 UV-I 0 W/m 5,9 C 10,1 C 11,3 km/h (2 Bft) 100,00 %
03.06.2023 04:07 10,1 C 75 % 1018,2 hPa 0,0 l/m 8,0 km/h (2 Bft) N-NO 22 0 min 0,000 mm 0,0 UV-I 0 W/m 5,9 C 10,1 C 12,9 km/h (3 Bft) 95,65 %
03.06.2023 04:06 10,1 C 75 % 1018,1 hPa 0,0 l/m 3,2 km/h (1 Bft) SO 135 0 min 0,000 mm 0,0 UV-I 0 W/m 5,9 C 10,1 C 6,4 km/h (2 Bft) 100,00 %
03.06.2023 04:05 10,1 C 75 % 1018,1 hPa 0,0 l/m 3,2 km/h (1 Bft) O-NO 67 0 min 0,000 mm 0,0 UV-I 0 W/m 5,9 C 10,1 C 6,4 km/h (2 Bft) 100,00 %
03.06.2023 04:04 10,1 C 75 % 1018,1 hPa 0,0 l/m 3,2 km/h (1 Bft) NO 45 0 min 0,000 mm 0,0 UV-I 0 W/m 5,9 C 10,1 C 6,4 km/h (2 Bft) 100,00 %
03.06.2023 04:03 10,1 C 75 % 1018,0 hPa 0,0 l/m 3,2 km/h (1 Bft) N 360 0 min 0,000 mm 0,0 UV-I 0 W/m 5,9 C 10,1 C 8,0 km/h (2 Bft) 100,00 %
03.06.2023 04:02 10,1 C 75 % 1018,1 hPa 0,0 l/m 3,2 km/h (1 Bft) O-SO 112 0 min 0,000 mm 0,0 UV-I 0 W/m 5,9 C 10,1 C 4,8 km/h (1 Bft) 100,00 %
03.06.2023 04:01 10,1 C 75 % 1018,2 hPa 0,0 l/m 4,8 km/h (1 Bft) N-NO 22 0 min 0,000 mm 0,0 UV-I 0 W/m 5,9 C 10,1 C 8,0 km/h (2 Bft) 91,30 %
03.06.2023 04:00 10,2 C 75 % 1018,2 hPa 0,0 l/m 3,2 km/h (1 Bft) NO 45 0 min 0,025 mm 0,0 UV-I 0 W/m 6,0 C 10,2 C 8,0 km/h (2 Bft) 95,65 %
03.06.2023 03:59 10,2 C 75 % 1018,2 hPa 0,0 l/m 1,6 km/h (1 Bft) NO 45 0 min 0,000 mm 0,0 UV-I 0 W/m 6,0 C 10,2 C 3,2 km/h (1 Bft) 95,65 %
03.06.2023 03:58 10,2 C 75 % 1018,1 hPa 0,0 l/m 1,6 km/h (1 Bft) NO 45 0 min 0,000 mm 0,0 UV-I 0 W/m 6,0 C 10,2 C 3,2 km/h (1 Bft) 100,00 %
03.06.2023 03:57 10,2 C 75 % 1018,1 hPa 0,0 l/m 1,6 km/h (1 Bft) NO 45 0 min 0,000 mm 0,0 UV-I 0 W/m 6,0 C 10,2 C 3,2 km/h (1 Bft) 100,00 %
03.06.2023 03:56 10,2 C 75 % 1018,1 hPa 0,0 l/m 3,2 km/h (1 Bft) NO 45 0 min 0,000 mm 0,0 UV-I 0 W/m 6,0 C 10,2 C 4,8 km/h (1 Bft) 100,00 %
03.06.2023 03:55 10,2 C 75 % 1018,1 hPa 0,0 l/m 3,2 km/h (1 Bft) NO 45 0 min 0,000 mm 0,0 UV-I 0 W/m 6,0 C 10,2 C 4,8 km/h (1 Bft) 100,00 %
03.06.2023 03:54 10,2 C 75 % 1018,1 hPa 0,0 l/m 3,2 km/h (1 Bft) O-NO 67 0 min 0,000 mm 0,0 UV-I 0 W/m 6,0 C 10,2 C 4,8 km/h (1 Bft) 100,00 %
03.06.2023 03:53 10,2 C 75 % 1018,1 hPa 0,0 l/m 3,2 km/h (1 Bft) N 360 0 min 0,000 mm 0,0 UV-I 0 W/m 6,0 C 10,2 C 4,8 km/h (1 Bft) 95,65 %
03.06.2023 03:52 10,2 C 75 % 1018,2 hPa 0,0 l/m 6,4 km/h (2 Bft) N 360 0 min 0,000 mm 0,0 UV-I 0 W/m 6,0 C 10,2 C 11,3 km/h (2 Bft) 100,00 %
03.06.2023 03:51 10,2 C 75 % 1018,2 hPa 0,0 l/m 3,2 km/h (1 Bft) N 360 0 min 0,000 mm 0,0 UV-I 0 W/m 6,0 C 10,2 C 8,0 km/h (2 Bft) 95,65 %
03.06.2023 03:50 10,3 C 75 % 1018,2 hPa 0,0 l/m 3,2 km/h (1 Bft) N 360 0 min 0,000 mm 0,0 UV-I 0 W/m 6,1 C 10,3 C 4,8 km/h (1 Bft) 100,00 %
03.06.2023 03:49 10,3 C 75 % 1018,1 hPa 0,0 l/m 4,8 km/h (1 Bft) N 360 0 min 0,000 mm 0,0 UV-I 0 W/m 6,1 C 10,3 C 9,7 km/h (2 Bft) 100,00 %
03.06.2023 03:48 10,3 C 75 % 1018,2 hPa 0,0 l/m 3,2 km/h (1 Bft) NW 315 0 min 0,000 mm 0,0 UV-I 0 W/m 6,1 C 10,3 C 8,0 km/h (2 Bft) 95,65 %
03.06.2023 03:47 10,3 C 75 % 1018,2 hPa 0,0 l/m 3,2 km/h (1 Bft) NW 315 0 min 0,000 mm 0,0 UV-I 0 W/m 6,1 C 10,3 C 4,8 km/h (1 Bft) 95,65 %
03.06.2023 03:46 10,3 C 75 % 1018,0 hPa 0,0 l/m 3,2 km/h (1 Bft) SO 135 0 min 0,000 mm 0,0 UV-I 0 W/m 6,1 C 10,3 C 6,4 km/h (2 Bft) 100,00 %
03.06.2023 03:45 10,3 C 75 % 1018,2 hPa 0,0 l/m 3,2 km/h (1 Bft) SO 135 0 min 0,000 mm 0,0 UV-I 0 W/m 6,1 C 10,3 C 6,4 km/h (2 Bft) 95,65 %
03.06.2023 03:44 10,3 C 75 % 1018,2 hPa 0,0 l/m 3,2 km/h (1 Bft) N 360 0 min 0,000 mm 0,0 UV-I 0 W/m 6,1 C 10,3 C 6,4 km/h (2 Bft) 100,00 %
03.06.2023 03:43 10,3 C 75 % 1018,2 hPa 0,0 l/m 1,6 km/h (1 Bft) N 360 0 min 0,000 mm 0,0 UV-I 0 W/m 6,1 C 10,3 C 4,8 km/h (1 Bft) 100,00 %
03.06.2023 03:42 10,3 C 75 % 1018,2 hPa 0,0 l/m 1,6 km/h (1 Bft) N 360 0 min 0,000 mm 0,0 UV-I 0 W/m 6,1 C 10,3 C 4,8 km/h (1 Bft) 100,00 %
03.06.2023 03:41 10,3 C 75 % 1018,2 hPa 0,0 l/m 1,6 km/h (1 Bft) N 360 0 min 0,000 mm 0,0 UV-I 0 W/m 6,1 C 10,3 C 3,2 km/h (1 Bft) 95,65 %
03.06.2023 03:40 10,4 C 75 % 1018,1 hPa 0,0 l/m 1,6 km/h (1 Bft) N 360 0 min 0,000 mm 0,0 UV-I 0 W/m 6,2 C 10,4 C 4,8 km/h (1 Bft) 100,00 %
03.06.2023 03:39 10,4 C 75 % 1018,2 hPa 0,0 l/m 3,2 km/h (1 Bft) N-NW 337 0 min 0,000 mm 0,0 UV-I 0 W/m 6,2 C 10,4 C 6,4 km/h (2 Bft) 95,65 %
03.06.2023 03:38 10,4 C 75 % 1018,1 hPa 0,0 l/m 3,2 km/h (1 Bft) O 90 0 min 0,000 mm 0,0 UV-I 0 W/m 6,2 C 10,4 C 9,7 km/h (2 Bft) 95,65 %
03.06.2023 03:37 10,4 C 75 % 1018,2 hPa 0,0 l/m 1,6 km/h (1 Bft) NO 45 0 min 0,000 mm 0,0 UV-I 0 W/m 6,2 C 10,4 C 4,8 km/h (1 Bft) 91,30 %
03.06.2023 03:36 10,4 C 75 % 1018,2 hPa 0,0 l/m 3,2 km/h (1 Bft) NO 45 0 min 0,000 mm 0,0 UV-I 0 W/m 6,2 C 10,4 C 4,8 km/h (1 Bft) 100,00 %
03.06.2023 03:35 10,4 C 75 % 1018,2 hPa 0,0 l/m 1,6 km/h (1 Bft) O-NO 67 0 min 0,000 mm 0,0 UV-I 0 W/m 6,2 C 10,4 C 4,8 km/h (1 Bft) 95,65 %
03.06.2023 03:34 10,5 C 75 % 1018,1 hPa 0,0 l/m 3,2 km/h (1 Bft) O-NO 67 0 min 0,000 mm 0,0 UV-I 0 W/m 6,3 C 10,5 C 4,8 km/h (1 Bft) 100,00 %
03.06.2023 03:33 10,5 C 75 % 1018,1 hPa 0,0 l/m 4,8 km/h (1 Bft) N 360 0 min 0,000 mm 0,0 UV-I 0 W/m 6,3 C 10,5 C 11,3 km/h (2 Bft) 95,65 %
03.06.2023 03:32 10,6 C 74 % 1018,2 hPa 0,0 l/m 1,6 km/h (1 Bft) N-NW 337 0 min 0,000 mm 0,0 UV-I 0 W/m 6,2 C 10,6 C 3,2 km/h (1 Bft) 91,30 %
03.06.2023 03:31 10,6 C 74 % 1018,1 hPa 0,0 l/m 4,8 km/h (1 Bft) N-NW 337 0 min 0,000 mm 0,0 UV-I 0 W/m 6,2 C 10,6 C 11,3 km/h (2 Bft) 95,65 %
03.06.2023 03:30 10,6 C 74 % 1018,1 hPa 0,0 l/m 4,8 km/h (1 Bft) O-SO 112 0 min 0,000 mm 0,0 UV-I 0 W/m 6,2 C 10,6 C 8,0 km/h (2 Bft) 95,65 %
03.06.2023 03:29 10,6 C 74 % 1018,1 hPa 0,0 l/m 3,2 km/h (1 Bft) SO 135 0 min 0,000 mm 0,0 UV-I 0 W/m 6,2 C 10,6 C 6,4 km/h (2 Bft) 100,00 %
03.06.2023 03:28 10,7 C 74 % 1018,1 hPa 0,0 l/m 4,8 km/h (1 Bft) O 90 0 min 0,000 mm 0,0 UV-I 0 W/m 6,3 C 10,7 C 11,3 km/h (2 Bft) 95,65 %
03.06.2023 03:27 10,7 C 74 % 1018,2 hPa 0,0 l/m 3,2 km/h (1 Bft) N-NO 22 0 min 0,000 mm 0,0 UV-I 0 W/m 6,3 C 10,7 C 6,4 km/h (2 Bft) 100,00 %
03.06.2023 03:26 10,7 C 74 % 1018,1 hPa 0,0 l/m 3,2 km/h (1 Bft) N-NO 22 0 min 0,000 mm 0,0 UV-I 0 W/m 6,3 C 10,7 C 4,8 km/h (1 Bft) 91,30 %
03.06.2023 03:25 10,7 C 74 % 1018,2 hPa 0,0 l/m 4,8 km/h (1 Bft) O 90 0 min 0,000 mm 0,0 UV-I 0 W/m 6,3 C 10,7 C 9,7 km/h (2 Bft) 100,00 %
03.06.2023 03:24 10,7 C 74 % 1018,1 hPa 0,0 l/m 6,4 km/h (2 Bft) N-NO 22 0 min 0,000 mm 0,0 UV-I 0 W/m 6,3 C 10,7 C 11,3 km/h (2 Bft) 91,30 %
03.06.2023 03:23 10,7 C 74 % 1018,1 hPa 0,0 l/m 4,8 km/h (1 Bft) NO 45 0 min 0,000 mm 0,0 UV-I 0 W/m 6,3 C 10,7 C 9,7 km/h (2 Bft) 95,65 %
03.06.2023 03:22 10,7 C 74 % 1018,1 hPa 0,0 l/m 6,4 km/h (2 Bft) N-NO 22 0 min 0,000 mm 0,0 UV-I 0 W/m 6,3 C 10,7 C 12,9 km/h (3 Bft) 100,00 %
03.06.2023 03:21 10,8 C 74 % 1018,0 hPa 0,0 l/m 4,8 km/h (1 Bft) N 360 0 min 0,000 mm 0,0 UV-I 0 W/m 6,4 C 10,8 C 11,3 km/h (2 Bft) 95,65 %
03.06.2023 03:20 10,8 C 74 % 1018,0 hPa 0,0 l/m 4,8 km/h (1 Bft) N-NO 22 0 min 0,000 mm 0,0 UV-I 0 W/m 6,4 C 10,8 C 8,0 km/h (2 Bft) 100,00 %
03.06.2023 03:19 10,8 C 74 % 1018,0 hPa 0,0 l/m 4,8 km/h (1 Bft) N 360 0 min 0,000 mm 0,0 UV-I 0 W/m 6,4 C 10,8 C 11,3 km/h (2 Bft) 95,65 %
03.06.2023 03:18 10,9 C 74 % 1018,1 hPa 0,0 l/m 4,8 km/h (1 Bft) NO 45 0 min 0,000 mm 0,0 UV-I 0 W/m 6,5 C 10,9 C 9,7 km/h (2 Bft) 95,65 %
03.06.2023 03:17 10,9 C 74 % 1018,1 hPa 0,0 l/m 4,8 km/h (1 Bft) SO 135 0 min 0,000 mm 0,0 UV-I 0 W/m 6,5 C 10,9 C 12,9 km/h (3 Bft) 91,30 %
03.06.2023 03:16 10,9 C 74 % 1017,9 hPa 0,0 l/m 3,2 km/h (1 Bft) SO 135 0 min 0,000 mm 0,0 UV-I 0 W/m 6,5 C 10,9 C 8,0 km/h (2 Bft) 100,00 %
03.06.2023 03:15 10,9 C 74 % 1018,0 hPa 0,0 l/m 4,8 km/h (1 Bft) N 360 0 min 0,000 mm 0,0 UV-I 0 W/m 6,5 C 10,9 C 8,0 km/h (2 Bft) 95,65 %
03.06.2023 03:14 10,9 C 74 % 1018,2 hPa 0,0 l/m 6,4 km/h (2 Bft) N-NW 337 0 min 0,000 mm 0,0 UV-I 0 W/m 6,5 C 10,9 C 9,7 km/h (2 Bft) 95,65 %
03.06.2023 03:13 10,9 C 74 % 1018,0 hPa 0,0 l/m 6,4 km/h (2 Bft) SO 135 0 min 0,000 mm 0,0 UV-I 0 W/m 6,5 C 10,9 C 11,3 km/h (2 Bft) 95,65 %
03.06.2023 03:12 10,9 C 74 % 1018,1 hPa 0,0 l/m 4,8 km/h (1 Bft) S-SW 202 0 min 0,000 mm 0,0 UV-I 0 W/m 6,5 C 10,9 C 8,0 km/h (2 Bft) 95,65 %
03.06.2023 03:11 10,9 C 74 % 1018,0 hPa 0,0 l/m 6,4 km/h (2 Bft) O 90 0 min 0,000 mm 0,0 UV-I 0 W/m 6,5 C 10,9 C 9,7 km/h (2 Bft) 91,30 %
03.06.2023 03:10 10,9 C 74 % 1018,0 hPa 0,0 l/m 4,8 km/h (1 Bft) O-NO 67 0 min 0,000 mm 0,0 UV-I 0 W/m 6,5 C 10,9 C 14,5 km/h (3 Bft) 91,30 %
03.06.2023 03:09 10,9 C 74 % 1017,9 hPa 0,0 l/m 4,8 km/h (1 Bft) O-NO 67 0 min 0,000 mm 0,0 UV-I 0 W/m 6,5 C 10,9 C 8,0 km/h (2 Bft) 100,00 %
03.06.2023 03:08 10,9 C 74 % 1018,0 hPa 0,0 l/m 3,2 km/h (1 Bft) O-SO 112 0 min 0,000 mm 0,0 UV-I 0 W/m 6,5 C 10,9 C 6,4 km/h (2 Bft) 95,65 %
03.06.2023 03:07 11,0 C 74 % 1017,9 hPa 0,0 l/m 3,2 km/h (1 Bft) N-NO 22 0 min 0,000 mm 0,0 UV-I 0 W/m 6,5 C 11,0 C 4,8 km/h (1 Bft) 95,65 %
03.06.2023 03:06 11,0 C 74 % 1017,9 hPa 0,0 l/m 1,6 km/h (1 Bft) N-NO 22 0 min 0,000 mm 0,0 UV-I 0 W/m 6,5 C 11,0 C 3,2 km/h (1 Bft) 100,00 %
03.06.2023 03:05 11,1 C 74 % 1018,0 hPa 0,0 l/m 3,2 km/h (1 Bft) N 360 0 min 0,000 mm 0,0 UV-I 0 W/m 6,6 C 11,1 C 4,8 km/h (1 Bft) 100,00 %
03.06.2023 03:04 11,1 C 74 % 1018,0 hPa 0,0 l/m 3,2 km/h (1 Bft) N 360 0 min 0,000 mm 0,0 UV-I 0 W/m 6,6 C 11,1 C 4,8 km/h (1 Bft) 100,00 %
03.06.2023 03:03 11,1 C 74 % 1018,0 hPa 0,0 l/m 3,2 km/h (1 Bft) N 360 0 min 0,000 mm 0,0 UV-I 0 W/m 6,6 C 11,1 C 8,0 km/h (2 Bft) 95,65 %
03.06.2023 03:02 11,1 C 74 % 1018,0 hPa 0,0 l/m 1,6 km/h (1 Bft) W 270 0 min 0,000 mm 0,0 UV-I 0 W/m 6,6 C 11,1 C 4,8 km/h (1 Bft) 95,65 %
03.06.2023 03:01 11,1 C 74 % 1018,0 hPa 0,0 l/m 3,2 km/h (1 Bft) NW 315 0 min 0,000 mm 0,0 UV-I 0 W/m 6,6 C 11,1 C 9,7 km/h (2 Bft) 100,00 %
03.06.2023 03:00 11,1 C 74 % 1018,0 hPa 0,0 l/m 4,8 km/h (1 Bft) N-NO 22 0 min 0,025 mm 0,0 UV-I 0 W/m 6,6 C 11,1 C 9,7 km/h (2 Bft) 100,00 %
03.06.2023 02:59 11,2 C 74 % 1017,9 hPa 0,0 l/m 4,8 km/h (1 Bft) NO 45 0 min 0,000 mm 0,0 UV-I 0 W/m 6,7 C 11,2 C 8,0 km/h (2 Bft) 95,65 %
03.06.2023 02:58 11,2 C 74 % 1017,9 hPa 0,0 l/m 3,2 km/h (1 Bft) N 360 0 min 0,000 mm 0,0 UV-I 0 W/m 6,7 C 11,2 C 6,4 km/h (2 Bft) 100,00 %
03.06.2023 02:57 11,2 C 74 % 1017,9 hPa 0,0 l/m 4,8 km/h (1 Bft) N 360 0 min 0,000 mm 0,0 UV-I 0 W/m 6,7 C 11,2 C 8,0 km/h (2 Bft) 100,00 %
03.06.2023 02:56 11,2 C 74 % 1017,9 hPa 0,0 l/m 3,2 km/h (1 Bft) N 360 0 min 0,000 mm 0,0 UV-I 0 W/m 6,7 C 11,2 C 4,8 km/h (1 Bft) 91,30 %
03.06.2023 02:55 11,2 C 74 % 1017,9 hPa 0,0 l/m 3,2 km/h (1 Bft) N-NO 22 0 min 0,000 mm 0,0 UV-I 0 W/m 6,7 C 11,2 C 4,8 km/h (1 Bft) 100,00 %
03.06.2023 02:54 11,2 C 74 % 1018,0 hPa 0,0 l/m 3,2 km/h (1 Bft) W 270 0 min 0,000 mm 0,0 UV-I 0 W/m 6,7 C 11,2 C 4,8 km/h (1 Bft) 100,00 %
03.06.2023 02:53 11,3 C 74 % 1018,0 hPa 0,0 l/m 3,2 km/h (1 Bft) N 360 0 min 0,000 mm 0,0 UV-I 0 W/m 6,8 C 11,3 C 4,8 km/h (1 Bft) 100,00 %
03.06.2023 02:52 11,3 C 74 % 1018,0 hPa 0,0 l/m 3,2 km/h (1 Bft) N-NW 337 0 min 0,000 mm 0,0 UV-I 0 W/m 6,8 C 11,3 C 6,4 km/h (2 Bft) 100,00 %
03.06.2023 02:51 11,3 C 74 % 1018,0 hPa 0,0 l/m 4,8 km/h (1 Bft) N-NW 337 0 min 0,000 mm 0,0 UV-I 0 W/m 6,8 C 11,3 C 6,4 km/h (2 Bft) 100,00 %
03.06.2023 02:50 11,3 C 74 % 1017,9 hPa 0,0 l/m 3,2 km/h (1 Bft) S-SO 157 0 min 0,000 mm 0,0 UV-I 0 W/m 6,8 C 11,3 C 6,4 km/h (2 Bft) 100,00 %
03.06.2023 02:49 11,3 C 74 % 1018,0 hPa 0,0 l/m 3,2 km/h (1 Bft) O 90 0 min 0,000 mm 0,0 UV-I 0 W/m 6,8 C 11,3 C 8,0 km/h (2 Bft) 91,30 %
03.06.2023 02:48 11,3 C 74 % 1018,0 hPa 0,0 l/m 4,8 km/h (1 Bft) O-NO 67 0 min 0,000 mm 0,0 UV-I 0 W/m 6,8 C 11,3 C 11,3 km/h (2 Bft) 100,00 %
03.06.2023 02:47 11,4 C 74 % 1017,9 hPa 0,0 l/m 4,8 km/h (1 Bft) NO 45 0 min 0,000 mm 0,0 UV-I 0 W/m 6,9 C 11,4 C 6,4 km/h (2 Bft) 100,00 %
03.06.2023 02:46 11,4 C 74 % 1018,0 hPa 0,0 l/m 4,8 km/h (1 Bft) O 90 0 min 0,000 mm 0,0 UV-I 0 W/m 6,9 C 11,4 C 11,3 km/h (2 Bft) 91,30 %
03.06.2023 02:45 11,4 C 74 % 1017,9 hPa 0,0 l/m 3,2 km/h (1 Bft) N 360 0 min 0,000 mm 0,0 UV-I 0 W/m 6,9 C 11,4 C 4,8 km/h (1 Bft) 100,00 %
03.06.2023 02:44 11,4 C 74 % 1017,9 hPa 0,0 l/m 4,8 km/h (1 Bft) N 360 0 min 0,000 mm 0,0 UV-I 0 W/m 6,9 C 11,4 C 8,0 km/h (2 Bft) 95,65 %
03.06.2023 02:43 11,4 C 74 % 1017,9 hPa 0,0 l/m 6,4 km/h (2 Bft) N-NO 22 0 min 0,000 mm 0,0 UV-I 0 W/m 6,9 C 11,4 C 11,3 km/h (2 Bft) 100,00 %
03.06.2023 02:42 11,4 C 73 % 1017,9 hPa 0,0 l/m 3,2 km/h (1 Bft) N 360 0 min 0,000 mm 0,0 UV-I 0 W/m 6,7 C 11,4 C 6,4 km/h (2 Bft) 95,65 %
03.06.2023 02:41 11,5 C 74 % 1018,0 hPa 0,0 l/m 3,2 km/h (1 Bft) N-NO 22 0 min 0,000 mm 0,0 UV-I 0 W/m 7,0 C 11,5 C 11,3 km/h (2 Bft) 100,00 %
03.06.2023 02:40 11,5 C 74 % 1017,9 hPa 0,0 l/m 8,0 km/h (2 Bft) N 360 0 min 0,000 mm 0,0 UV-I 0 W/m 7,0 C 11,5 C 19,3 km/h (3 Bft) 100,00 %
03.06.2023 02:39 11,6 C 74 % 1017,9 hPa 0,0 l/m 8,0 km/h (2 Bft) N-NO 22 0 min 0,000 mm 0,0 UV-I 0 W/m 7,1 C 11,6 C 19,3 km/h (3 Bft) 100,00 %
03.06.2023 02:38 11,6 C 74 % 1017,8 hPa 0,0 l/m 4,8 km/h (1 Bft) O-NO 67 0 min 0,000 mm 0,0 UV-I 0 W/m 7,1 C 11,6 C 11,3 km/h (2 Bft) 95,65 %
03.06.2023 02:37 11,6 C 74 % 1017,9 hPa 0,0 l/m 4,8 km/h (1 Bft) N-NO 22 0 min 0,000 mm 0,0 UV-I 0 W/m 7,1 C 11,6 C 11,3 km/h (2 Bft) 100,00 %
03.06.2023 02:36 11,6 C 73 % 1017,9 hPa 0,0 l/m 4,8 km/h (1 Bft) NW 315 0 min 0,000 mm 0,0 UV-I 0 W/m 6,9 C 11,6 C 8,0 km/h (2 Bft) 91,30 %
03.06.2023 02:35 11,6 C 73 % 1017,9 hPa 0,0 l/m 3,2 km/h (1 Bft) N-NO 22 0 min 0,000 mm 0,0 UV-I 0 W/m 6,9 C 11,6 C 6,4 km/h (2 Bft) 95,65 %
03.06.2023 02:34 11,6 C 73 % 1017,9 hPa 0,0 l/m 4,8 km/h (1 Bft) N-NO 22 0 min 0,000 mm 0,0 UV-I 0 W/m 6,9 C 11,6 C 6,4 km/h (2 Bft) 100,00 %
03.06.2023 02:33 11,6 C 74 % 1017,8 hPa 0,0 l/m 6,4 km/h (2 Bft) N 360 0 min 0,000 mm 0,0 UV-I 0 W/m 7,1 C 11,6 C 14,5 km/h (3 Bft) 100,00 %
03.06.2023 02:32 11,7 C 74 % 1017,8 hPa 0,0 l/m 4,8 km/h (1 Bft) O-SO 112 0 min 0,000 mm 0,0 UV-I 0 W/m 7,2 C 11,7 C 11,3 km/h (2 Bft) 100,00 %
03.06.2023 02:31 11,7 C 74 % 1017,9 hPa 0,0 l/m 4,8 km/h (1 Bft) N 360 0 min 0,000 mm 0,0 UV-I 0 W/m 7,2 C 11,7 C 8,0 km/h (2 Bft) 95,65 %
03.06.2023 02:30 11,7 C 74 % 1017,9 hPa 0,0 l/m 3,2 km/h (1 Bft) NO 45 0 min 0,000 mm 0,0 UV-I 0 W/m 7,2 C 11,7 C 4,8 km/h (1 Bft) 100,00 %
03.06.2023 02:29 11,7 C 74 % 1017,9 hPa 0,0 l/m 4,8 km/h (1 Bft) NO 45 0 min 0,000 mm 0,0 UV-I 0 W/m 7,2 C 11,7 C 8,0 km/h (2 Bft) 100,00 %
03.06.2023 02:28 11,7 C 73 % 1017,9 hPa 0,0 l/m 1,6 km/h (1 Bft) N-NO 22 0 min 0,000 mm 0,0 UV-I 0 W/m 7,0 C 11,7 C 8,0 km/h (2 Bft) 91,30 %
03.06.2023 02:27 11,8 C 73 % 1017,9 hPa 0,0 l/m 1,6 km/h (1 Bft) N 360 0 min 0,000 mm 0,0 UV-I 0 W/m 7,1 C 11,8 C 3,2 km/h (1 Bft) 95,65 %
03.06.2023 02:26 11,8 C 73 % 1017,9 hPa 0,0 l/m 1,6 km/h (1 Bft) N 360 0 min 0,000 mm 0,0 UV-I 0 W/m 7,1 C 11,8 C 4,8 km/h (1 Bft) 100,00 %
03.06.2023 02:25 11,8 C 73 % 1017,9 hPa 0,0 l/m 3,2 km/h (1 Bft) N 360 0 min 0,000 mm 0,0 UV-I 0 W/m 7,1 C 11,8 C 8,0 km/h (2 Bft) 100,00 %
03.06.2023 02:24 11,8 C 73 % 1017,9 hPa 0,0 l/m 1,6 km/h (1 Bft) N 360 0 min 0,000 mm 0,0 UV-I 0 W/m 7,1 C 11,8 C 6,4 km/h (2 Bft) 100,00 %
03.06.2023 02:23 11,9 C 73 % 1017,9 hPa 0,0 l/m 3,2 km/h (1 Bft) N-NO 22 0 min 0,000 mm 0,0 UV-I 0 W/m 7,2 C 11,9 C 8,0 km/h (2 Bft) 100,00 %
03.06.2023 02:22 11,9 C 73 % 1017,9 hPa 0,0 l/m 3,2 km/h (1 Bft) SO 135 0 min 0,000 mm 0,0 UV-I 0 W/m 7,2 C 11,9 C 6,4 km/h (2 Bft) 100,00 %
03.06.2023 02:21 11,9 C 73 % 1018,0 hPa 0,0 l/m 3,2 km/h (1 Bft) S-SO 157 0 min 0,000 mm 0,0 UV-I 0 W/m 7,2 C 11,9 C 8,0 km/h (2 Bft) 95,65 %
03.06.2023 02:20 11,9 C 73 % 1017,9 hPa 0,0 l/m 1,6 km/h (1 Bft) W-NW 292 0 min 0,000 mm 0,0 UV-I 0 W/m 7,2 C 11,9 C 3,2 km/h (1 Bft) 100,00 %
03.06.2023 02:19 12,1 C 73 % 1017,9 hPa 0,0 l/m 1,6 km/h (1 Bft) N-NW 337 0 min 0,000 mm 0,0 UV-I 0 W/m 7,4 C 12,1 C 3,2 km/h (1 Bft) 100,00 %
03.06.2023 02:18 12,1 C 73 % 1018,0 hPa 0,0 l/m 3,2 km/h (1 Bft) N-NW 337 0 min 0,000 mm 0,0 UV-I 0 W/m 7,4 C 12,1 C 4,8 km/h (1 Bft) 100,00 %
03.06.2023 02:17 12,1 C 73 % 1018,0 hPa 0,0 l/m 1,6 km/h (1 Bft) N 360 0 min 0,000 mm 0,0 UV-I 0 W/m 7,4 C 12,1 C 3,2 km/h (1 Bft) 100,00 %
03.06.2023 02:16 12,1 C 73 % 1017,9 hPa 0,0 l/m 1,6 km/h (1 Bft) N 360 0 min 0,000 mm 0,0 UV-I 0 W/m 7,4 C 12,1 C 4,8 km/h (1 Bft) 100,00 %
03.06.2023 02:15 12,1 C 73 % 1017,9 hPa 0,0 l/m 1,6 km/h (1 Bft) SO 135 0 min 0,000 mm 0,0 UV-I 0 W/m 7,4 C 12,1 C 3,2 km/h (1 Bft) 100,00 %
03.06.2023 02:14 12,1 C 72 % 1018,0 hPa 0,0 l/m 0,0 km/h (0 Bft) SO 135 0 min 0,000 mm 0,0 UV-I 0 W/m 7,2 C 12,1 C 1,6 km/h (1 Bft) 95,65 %
03.06.2023 02:13 12,2 C 72 % 1018,0 hPa 0,0 l/m 3,2 km/h (1 Bft) SO 135 0 min 0,000 mm 0,0 UV-I 0 W/m 7,3 C 12,2 C 6,4 km/h (2 Bft) 95,65 %
03.06.2023 02:12 12,2 C 73 % 1018,0 hPa 0,0 l/m 4,8 km/h (1 Bft) N-NO 22 0 min 0,000 mm 0,0 UV-I 0 W/m 7,5 C 12,2 C 8,0 km/h (2 Bft) 100,00 %
03.06.2023 02:11 12,2 C 72 % 1018,0 hPa 0,0 l/m 1,6 km/h (1 Bft) W-NW 292 0 min 0,000 mm 0,0 UV-I 0 W/m 7,3 C 12,2 C 3,2 km/h (1 Bft) 100,00 %
03.06.2023 02:10 12,2 C 72 % 1018,0 hPa 0,0 l/m 3,2 km/h (1 Bft) W-NW 292 0 min 0,000 mm 0,0 UV-I 0 W/m 7,3 C 12,2 C 6,4 km/h (2 Bft) 100,00 %
03.06.2023 02:09 12,2 C 72 % 1018,1 hPa 0,0 l/m 3,2 km/h (1 Bft) N-NW 337 0 min 0,000 mm 0,0 UV-I 0 W/m 7,3 C 12,2 C 8,0 km/h (2 Bft) 100,00 %
03.06.2023 02:08 12,2 C 72 % 1018,1 hPa 0,0 l/m 4,8 km/h (1 Bft) O-SO 112 0 min 0,000 mm 0,0 UV-I 0 W/m 7,3 C 12,2 C 6,4 km/h (2 Bft) 100,00 %
03.06.2023 02:07 12,3 C 72 % 1018,0 hPa 0,0 l/m 3,2 km/h (1 Bft) O-SO 112 0 min 0,000 mm 0,0 UV-I 0 W/m 7,4 C 12,3 C 6,4 km/h (2 Bft) 95,65 %
03.06.2023 02:06 12,3 C 72 % 1018,1 hPa 0,0 l/m 4,8 km/h (1 Bft) N-NO 22 0 min 0,000 mm 0,0 UV-I 0 W/m 7,4 C 12,3 C 6,4 km/h (2 Bft) 100,00 %
03.06.2023 02:05 12,3 C 72 % 1018,1 hPa 0,0 l/m 0,0 km/h (0 Bft) N-NO 22 0 min 0,000 mm 0,0 UV-I 0 W/m 7,4 C 12,3 C 1,6 km/h (1 Bft) 100,00 %
03.06.2023 02:04 12,3 C 72 % 1018,0 hPa 0,0 l/m 1,6 km/h (1 Bft) N-NO 22 0 min 0,000 mm 0,0 UV-I 0 W/m 7,4 C 12,3 C 3,2 km/h (1 Bft) 95,65 %
03.06.2023 02:03 12,3 C 72 % 1018,0 hPa 0,0 l/m 1,6 km/h (1 Bft) N-NO 22 0 min 0,000 mm 0,0 UV-I 0 W/m 7,4 C 12,3 C 3,2 km/h (1 Bft) 100,00 %
03.06.2023 02:02 12,4 C 72 % 1018,0 hPa 0,0 l/m 3,2 km/h (1 Bft) N-NO 22 0 min 0,000 mm 0,0 UV-I 0 W/m 7,5 C 12,4 C 4,8 km/h (1 Bft) 100,00 %
03.06.2023 02:01 12,4 C 72 % 1018,1 hPa 0,0 l/m 4,8 km/h (1 Bft) N 360 0 min 0,000 mm 0,0 UV-I 0 W/m 7,5 C 12,4 C 8,0 km/h (2 Bft) 100,00 %
03.06.2023 02:00 12,4 C 71 % 1018,1 hPa 0,0 l/m 1,6 km/h (1 Bft) O 90 0 min 0,025 mm 0,0 UV-I 0 W/m 7,3 C 12,4 C 6,4 km/h (2 Bft) 95,65 %
03.06.2023 01:59 12,4 C 71 % 1018,0 hPa 0,0 l/m 3,2 km/h (1 Bft) O 90 0 min 0,000 mm 0,0 UV-I 0 W/m 7,3 C 12,4 C 8,0 km/h (2 Bft) 100,00 %
03.06.2023 01:58 12,4 C 71 % 1018,0 hPa 0,0 l/m 3,2 km/h (1 Bft) O 90 0 min 0,000 mm 0,0 UV-I 0 W/m 7,3 C 12,4 C 4,8 km/h (1 Bft) 100,00 %
03.06.2023 01:57 12,4 C 71 % 1018,0 hPa 0,0 l/m 4,8 km/h (1 Bft) O-NO 67 0 min 0,000 mm 0,0 UV-I 0 W/m 7,3 C 12,4 C 6,4 km/h (2 Bft) 100,00 %
03.06.2023 01:56 12,4 C 72 % 1017,9 hPa 0,0 l/m 3,2 km/h (1 Bft) S 180 0 min 0,000 mm 0,0 UV-I 0 W/m 7,5 C 12,4 C 6,4 km/h (2 Bft) 100,00 %
03.06.2023 01:55 12,4 C 71 % 1017,9 hPa 0,0 l/m 4,8 km/h (1 Bft) S-SO 157 0 min 0,000 mm 0,0 UV-I 0 W/m 7,3 C 12,4 C 11,3 km/h (2 Bft) 100,00 %
03.06.2023 01:54 12,6 C 71 % 1017,9 hPa 0,0 l/m 1,6 km/h (1 Bft) SO 135 0 min 0,000 mm 0,0 UV-I 0 W/m 7,5 C 12,6 C 3,2 km/h (1 Bft) 100,00 %
03.06.2023 01:53 12,6 C 71 % 1017,9 hPa 0,0 l/m 3,2 km/h (1 Bft) SO 135 0 min 0,000 mm 0,0 UV-I 0 W/m 7,5 C 12,6 C 6,4 km/h (2 Bft) 95,65 %
03.06.2023 01:52 12,6 C 71 % 1017,9 hPa 0,0 l/m 1,6 km/h (1 Bft) S-SO 157 0 min 0,000 mm 0,0 UV-I 0 W/m 7,5 C 12,6 C 3,2 km/h (1 Bft) 95,65 %
03.06.2023 01:51 12,6 C 71 % 1017,8 hPa 0,0 l/m 4,8 km/h (1 Bft) O 90 0 min 0,000 mm 0,0 UV-I 0 W/m 7,5 C 12,6 C 9,7 km/h (2 Bft) 100,00 %
03.06.2023 01:50 12,6 C 71 % 1017,9 hPa 0,0 l/m 3,2 km/h (1 Bft) S-SO 157 0 min 0,000 mm 0,0 UV-I 0 W/m 7,5 C 12,6 C 4,8 km/h (1 Bft) 100,00 %
03.06.2023 01:49 12,7 C 71 % 1018,0 hPa 0,0 l/m 1,6 km/h (1 Bft) S-SO 157 0 min 0,000 mm 0,0 UV-I 0 W/m 7,6 C 12,7 C 3,2 km/h (1 Bft) 100,00 %
03.06.2023 01:48 12,7 C 71 % 1017,9 hPa 0,0 l/m 3,2 km/h (1 Bft) W 270 0 min 0,000 mm 0,0 UV-I 0 W/m 7,6 C 12,7 C 8,0 km/h (2 Bft) 100,00 %
03.06.2023 01:47 12,7 C 71 % 1017,9 hPa 0,0 l/m 3,2 km/h (1 Bft) W 270 0 min 0,000 mm 0,0 UV-I 0 W/m 7,6 C 12,7 C 6,4 km/h (2 Bft) 100,00 %
03.06.2023 01:46 12,7 C 71 % 1017,9 hPa 0,0 l/m 3,2 km/h (1 Bft) N 360 0 min 0,000 mm 0,0 UV-I 0 W/m 7,6 C 12,7 C 4,8 km/h (1 Bft) 95,65 %
03.06.2023 01:45 12,8 C 71 % 1017,9 hPa 0,0 l/m 3,2 km/h (1 Bft) O 90 0 min 0,000 mm 0,0 UV-I 0 W/m 7,7 C 12,8 C 4,8 km/h (1 Bft) 100,00 %
03.06.2023 01:44 12,8 C 71 % 1018,0 hPa 0,0 l/m 3,2 km/h (1 Bft) O 90 0 min 0,000 mm 0,0 UV-I 0 W/m 7,7 C 12,8 C 6,4 km/h (2 Bft) 100,00 %
03.06.2023 01:43 12,8 C 71 % 1018,0 hPa 0,0 l/m 3,2 km/h (1 Bft) N 360 0 min 0,000 mm 0,0 UV-I 0 W/m 7,7 C 12,8 C 9,7 km/h (2 Bft) 100,00 %
03.06.2023 01:42 12,9 C 71 % 1018,0 hPa 0,0 l/m 4,8 km/h (1 Bft) N 360 0 min 0,000 mm 0,0 UV-I 0 W/m 7,8 C 12,9 C 11,3 km/h (2 Bft) 95,65 %
03.06.2023 01:41 12,9 C 71 % 1017,9 hPa 0,0 l/m 3,2 km/h (1 Bft) N 360 0 min 0,000 mm 0,0 UV-I 0 W/m 7,8 C 12,9 C 4,8 km/h (1 Bft) 100,00 %
03.06.2023 01:40 12,9 C 71 % 1018,0 hPa 0,0 l/m 3,2 km/h (1 Bft) O-NO 67 0 min 0,000 mm 0,0 UV-I 0 W/m 7,8 C 12,9 C 4,8 km/h (1 Bft) 95,65 %
03.06.2023 01:39 12,9 C 71 % 1018,0 hPa 0,0 l/m 4,8 km/h (1 Bft) NO 45 0 min 0,000 mm 0,0 UV-I 0 W/m 7,8 C 12,9 C 6,4 km/h (2 Bft) 86,96 %
03.06.2023 01:38 12,9 C 71 % 1018,0 hPa 0,0 l/m 3,2 km/h (1 Bft) N 360 0 min 0,000 mm 0,0 UV-I 0 W/m 7,8 C 12,9 C 4,8 km/h (1 Bft) 100,00 %
03.06.2023 01:37 13,0 C 71 % 1018,0 hPa 0,0 l/m 4,8 km/h (1 Bft) N 360 0 min 0,000 mm 0,0 UV-I 0 W/m 7,9 C 13,0 C 6,4 km/h (2 Bft) 95,65 %
03.06.2023 01:36 13,0 C 71 % 1018,0 hPa 0,0 l/m 4,8 km/h (1 Bft) O-SO 112 0 min 0,000 mm 0,0 UV-I 0 W/m 7,9 C 13,0 C 9,7 km/h (2 Bft) 100,00 %
03.06.2023 01:35 13,1 C 71 % 1018,0 hPa 0,0 l/m 3,2 km/h (1 Bft) N-NW 337 0 min 0,000 mm 0,0 UV-I 0 W/m 8,0 C 13,1 C 6,4 km/h (2 Bft) 91,30 %
03.06.2023 01:34 13,1 C 71 % 1018,0 hPa 0,0 l/m 3,2 km/h (1 Bft) O-NO 67 0 min 0,000 mm 0,0 UV-I 0 W/m 8,0 C 13,1 C 6,4 km/h (2 Bft) 100,00 %
03.06.2023 01:33 13,1 C 71 % 1018,0 hPa 0,0 l/m 3,2 km/h (1 Bft) NO 45 0 min 0,000 mm 0,0 UV-I 0 W/m 8,0 C 13,1 C 6,4 km/h (2 Bft) 91,30 %
03.06.2023 01:32 13,1 C 71 % 1018,0 hPa 0,0 l/m 1,6 km/h (1 Bft) NO 45 0 min 0,000 mm 0,0 UV-I 0 W/m 8,0 C 13,1 C 3,2 km/h (1 Bft) 95,65 %
03.06.2023 01:31 13,1 C 71 % 1018,0 hPa 0,0 l/m 3,2 km/h (1 Bft) N 360 0 min 0,000 mm 0,0 UV-I 0 W/m 8,0 C 13,1 C 4,8 km/h (1 Bft) 95,65 %
03.06.2023 01:30 13,2 C 71 % 1018,0 hPa 0,0 l/m 3,2 km/h (1 Bft) N 360 0 min 0,000 mm 0,0 UV-I 0 W/m 8,1 C 13,2 C 4,8 km/h (1 Bft) 91,30 %
03.06.2023 01:29 13,2 C 71 % 1018,0 hPa 0,0 l/m 3,2 km/h (1 Bft) W-NW 292 0 min 0,000 mm 0,0 UV-I 0 W/m 8,1 C 13,2 C 6,4 km/h (2 Bft) 100,00 %
03.06.2023 01:28 13,2 C 71 % 1018,1 hPa 0,0 l/m 1,6 km/h (1 Bft) N 360 0 min 0,000 mm 0,0 UV-I 0 W/m 8,1 C 13,2 C 6,4 km/h (2 Bft) 91,30 %
03.06.2023 01:27 13,2 C 71 % 1018,1 hPa 0,0 l/m 3,2 km/h (1 Bft) N 360 0 min 0,000 mm 0,0 UV-I 0 W/m 8,1 C 13,2 C 6,4 km/h (2 Bft) 95,65 %
03.06.2023 01:26 13,3 C 71 % 1018,1 hPa 0,0 l/m 4,8 km/h (1 Bft) N 360 0 min 0,000 mm 0,0 UV-I 0 W/m 8,2 C 13,3 C 8,0 km/h (2 Bft) 95,65 %
03.06.2023 01:25 13,3 C 71 % 1018,2 hPa 0,0 l/m 1,6 km/h (1 Bft) N 360 0 min 0,000 mm 0,0 UV-I 0 W/m 8,2 C 13,3 C 3,2 km/h (1 Bft) 91,30 %
03.06.2023 01:24 13,3 C 71 % 1018,2 hPa 0,0 l/m 3,2 km/h (1 Bft) N-NW 337 0 min 0,000 mm 0,0 UV-I 0 W/m 8,2 C 13,3 C 4,8 km/h (1 Bft) 95,65 %
03.06.2023 01:23 13,3 C 71 % 1018,1 hPa 0,0 l/m 4,8 km/h (1 Bft) NO 45 0 min 0,000 mm 0,0 UV-I 0 W/m 8,2 C 13,3 C 8,0 km/h (2 Bft) 95,65 %
03.06.2023 01:22 13,3 C 71 % 1018,2 hPa 0,0 l/m 3,2 km/h (1 Bft) O-NO 67 0 min 0,000 mm 0,0 UV-I 0 W/m 8,2 C 13,3 C 6,4 km/h (2 Bft) 100,00 %
03.06.2023 01:21 13,3 C 71 % 1018,2 hPa 0,0 l/m 1,6 km/h (1 Bft) N 360 0 min 0,000 mm 0,0 UV-I 0 W/m 8,2 C 13,3 C 9,7 km/h (2 Bft) 91,30 %
03.06.2023 01:20 13,3 C 71 % 1018,2 hPa 0,0 l/m 3,2 km/h (1 Bft) N 360 0 min 0,000 mm 0,0 UV-I 0 W/m 8,2 C 13,3 C 8,0 km/h (2 Bft) 100,00 %
03.06.2023 01:19 13,4 C 71 % 1018,2 hPa 0,0 l/m 3,2 km/h (1 Bft) O-NO 67 0 min 0,000 mm 0,0 UV-I 0 W/m 8,3 C 13,4 C 3,2 km/h (1 Bft) 95,65 %
03.06.2023 01:18 13,4 C 71 % 1018,1 hPa 0,0 l/m 3,2 km/h (1 Bft) O-SO 112 0 min 0,000 mm 0,0 UV-I 0 W/m 8,3 C 13,4 C 11,3 km/h (2 Bft) 95,65 %
03.06.2023 01:17 13,4 C 72 % 1018,0 hPa 0,0 l/m 1,6 km/h (1 Bft) O 90 0 min 0,000 mm 0,0 UV-I 0 W/m 8,5 C 13,4 C 3,2 km/h (1 Bft) 91,30 %
03.06.2023 01:16 13,4 C 71 % 1018,1 hPa 0,0 l/m 3,2 km/h (1 Bft) SO 135 0 min 0,000 mm 0,0 UV-I 0 W/m 8,3 C 13,4 C 4,8 km/h (1 Bft) 100,00 %
03.06.2023 01:15 13,4 C 71 % 1018,1 hPa 0,0 l/m 3,2 km/h (1 Bft) W-NW 292 0 min 0,000 mm 0,0 UV-I 0 W/m 8,3 C 13,4 C 6,4 km/h (2 Bft) 95,65 %
03.06.2023 01:14 13,4 C 71 % 1018,0 hPa 0,0 l/m 1,6 km/h (1 Bft) NO 45 0 min 0,000 mm 0,0 UV-I 0 W/m 8,3 C 13,4 C 4,8 km/h (1 Bft) 91,30 %
03.06.2023 01:13 13,5 C 72 % 1018,1 hPa 0,0 l/m 1,6 km/h (1 Bft) NO 45 0 min 0,000 mm 0,0 UV-I 0 W/m 8,6 C 13,5 C 4,8 km/h (1 Bft) 100,00 %
03.06.2023 01:12 13,5 C 71 % 1018,0 hPa 0,0 l/m 1,6 km/h (1 Bft) N 360 0 min 0,000 mm 0,0 UV-I 0 W/m 8,3 C 13,5 C 3,2 km/h (1 Bft) 95,65 %
03.06.2023 01:11 13,5 C 71 % 1018,0 hPa 0,0 l/m 1,6 km/h (1 Bft) N 360 0 min 0,000 mm 0,0 UV-I 0 W/m 8,3 C 13,5 C 3,2 km/h (1 Bft) 95,65 %
03.06.2023 01:10 13,5 C 71 % 1018,0 hPa 0,0 l/m 1,6 km/h (1 Bft) N 360 0 min 0,000 mm 0,0 UV-I 0 W/m 8,3 C 13,5 C 3,2 km/h (1 Bft) 95,65 %
03.06.2023 01:09 13,6 C 71 % 1018,0 hPa 0,0 l/m 1,6 km/h (1 Bft) N 360 0 min 0,000 mm 0,0 UV-I 0 W/m 8,4 C 13,6 C 4,8 km/h (1 Bft) 100,00 %
03.06.2023 01:08 13,5 C 71 % 1018,2 hPa 0,0 l/m 1,6 km/h (1 Bft) N 360 0 min 0,000 mm 0,0 UV-I 0 W/m 8,3 C 13,5 C 3,2 km/h (1 Bft) 95,65 %
03.06.2023 01:07 13,5 C 71 % 1018,0 hPa 0,0 l/m 1,6 km/h (1 Bft) N 360 0 min 0,000 mm 0,0 UV-I 0 W/m 8,3 C 13,5 C 3,2 km/h (1 Bft) 100,00 %
03.06.2023 01:06 13,5 C 71 % 1018,0 hPa 0,0 l/m 3,2 km/h (1 Bft) O 90 0 min 0,000 mm 0,0 UV-I 0 W/m 8,3 C 13,5 C 8,0 km/h (2 Bft) 100,00 %
03.06.2023 01:05 13,6 C 71 % 1018,0 hPa 0,0 l/m 3,2 km/h (1 Bft) O 90 0 min 0,000 mm 0,0 UV-I 0 W/m 8,4 C 13,6 C 6,4 km/h (2 Bft) 100,00 %
03.06.2023 01:04 13,6 C 71 % 1018,0 hPa 0,0 l/m 3,2 km/h (1 Bft) N-NO 22 0 min 0,000 mm 0,0 UV-I 0 W/m 8,4 C 13,6 C 6,4 km/h (2 Bft) 95,65 %
03.06.2023 01:03 13,6 C 71 % 1018,0 hPa 0,0 l/m 4,8 km/h (1 Bft) N 360 0 min 0,000 mm 0,0 UV-I 0 W/m 8,4 C 13,6 C 8,0 km/h (2 Bft) 100,00 %
03.06.2023 01:02 13,6 C 71 % 1018,0 hPa 0,0 l/m 4,8 km/h (1 Bft) O 90 0 min 0,000 mm 0,0 UV-I 0 W/m 8,4 C 13,6 C 14,5 km/h (3 Bft) 100,00 %
03.06.2023 01:01 13,6 C 71 % 1018,0 hPa 0,0 l/m 3,2 km/h (1 Bft) O-NO 67 0 min 0,000 mm 0,0 UV-I 0 W/m 8,4 C 13,6 C 6,4 km/h (2 Bft) 100,00 %
03.06.2023 01:00 13,6 C 71 % 1018,0 hPa 0,0 l/m 3,2 km/h (1 Bft) W-NW 292 0 min 0,025 mm 0,0 UV-I 0 W/m 8,4 C 13,6 C 6,4 km/h (2 Bft) 91,30 %
03.06.2023 00:59 13,6 C 71 % 1018,0 hPa 0,0 l/m 1,6 km/h (1 Bft) S-SO 157 0 min 0,000 mm 0,0 UV-I 0 W/m 8,4 C 13,6 C 3,2 km/h (1 Bft) 100,00 %
03.06.2023 00:58 13,6 C 71 % 1018,0 hPa 0,0 l/m 1,6 km/h (1 Bft) S-SO 157 0 min 0,000 mm 0,0 UV-I 0 W/m 8,4 C 13,6 C 3,2 km/h (1 Bft) 100,00 %
03.06.2023 00:57 13,6 C 71 % 1018,1 hPa 0,0 l/m 1,6 km/h (1 Bft) S-SO 157 0 min 0,000 mm 0,0 UV-I 0 W/m 8,4 C 13,6 C 4,8 km/h (1 Bft) 95,65 %
03.06.2023 00:56 13,6 C 71 % 1018,1 hPa 0,0 l/m 3,2 km/h (1 Bft) O 90 0 min 0,000 mm 0,0 UV-I 0 W/m 8,4 C 13,6 C 4,8 km/h (1 Bft) 100,00 %
03.06.2023 00:55 13,6 C 71 % 1018,0 hPa 0,0 l/m 1,6 km/h (1 Bft) O 90 0 min 0,000 mm 0,0 UV-I 0 W/m 8,4 C 13,6 C 3,2 km/h (1 Bft) 100,00 %
03.06.2023 00:54 13,6 C 71 % 1018,0 hPa 0,0 l/m 3,2 km/h (1 Bft) SO 135 0 min 0,000 mm 0,0 UV-I 0 W/m 8,4 C 13,6 C 9,7 km/h (2 Bft) 100,00 %
03.06.2023 00:53 13,5 C 71 % 1018,0 hPa 0,0 l/m 6,4 km/h (2 Bft) SO 135 0 min 0,000 mm 0,0 UV-I 0 W/m 8,3 C 13,5 C 12,9 km/h (3 Bft) 100,00 %
03.06.2023 00:52 13,6 C 71 % 1018,1 hPa 0,0 l/m 4,8 km/h (1 Bft) SO 135 0 min 0,000 mm 0,0 UV-I 0 W/m 8,4 C 13,6 C 8,0 km/h (2 Bft) 100,00 %
03.06.2023 00:51 13,5 C 71 % 1018,0 hPa 0,0 l/m 1,6 km/h (1 Bft) SO 135 0 min 0,000 mm 0,0 UV-I 0 W/m 8,3 C 13,5 C 4,8 km/h (1 Bft) 100,00 %
03.06.2023 00:50 13,4 C 71 % 1018,1 hPa 0,0 l/m 3,2 km/h (1 Bft) NO 45 0 min 0,000 mm 0,0 UV-I 0 W/m 8,3 C 13,4 C 6,4 km/h (2 Bft) 95,65 %
03.06.2023 00:49 13,5 C 71 % 1018,0 hPa 0,0 l/m 1,6 km/h (1 Bft) O-NO 67 0 min 0,000 mm 0,0 UV-I 0 W/m 8,3 C 13,5 C 4,8 km/h (1 Bft) 100,00 %
03.06.2023 00:48 13,4 C 71 % 1018,1 hPa 0,0 l/m 1,6 km/h (1 Bft) O-NO 67 0 min 0,000 mm 0,0 UV-I 0 W/m 8,3 C 13,4 C 4,8 km/h (1 Bft) 100,00 %
03.06.2023 00:47 13,4 C 71 % 1018,0 hPa 0,0 l/m 1,6 km/h (1 Bft) NO 45 0 min 0,000 mm 0,0 UV-I 0 W/m 8,3 C 13,4 C 14,5 km/h (3 Bft) 100,00 %
03.06.2023 00:46 13,5 C 71 % 1018,1 hPa 0,0 l/m 6,4 km/h (2 Bft) O-SO 112 0 min 0,000 mm 0,0 UV-I 0 W/m 8,3 C 13,5 C 14,5 km/h (3 Bft) 95,65 %
03.06.2023 00:45 13,5 C 71 % 1018,2 hPa 0,0 l/m 3,2 km/h (1 Bft) S-SO 157 0 min 0,000 mm 0,0 UV-I 0 W/m 8,3 C 13,5 C 8,0 km/h (2 Bft) 100,00 %
03.06.2023 00:44 13,6 C 71 % 1018,1 hPa 0,0 l/m 1,6 km/h (1 Bft) S-SO 157 0 min 0,000 mm 0,0 UV-I 0 W/m 8,4 C 13,6 C 1,6 km/h (1 Bft) 100,00 %
03.06.2023 00:43 13,6 C 70 % 1018,1 hPa 0,0 l/m 1,6 km/h (1 Bft) S-SO 157 0 min 0,000 mm 0,0 UV-I 0 W/m 8,2 C 13,6 C 3,2 km/h (1 Bft) 95,65 %
03.06.2023 00:42 13,6 C 70 % 1018,1 hPa 0,0 l/m 4,8 km/h (1 Bft) S-SO 157 0 min 0,000 mm 0,0 UV-I 0 W/m 8,2 C 13,6 C 8,0 km/h (2 Bft) 100,00 %
03.06.2023 00:41 13,6 C 70 % 1018,0 hPa 0,0 l/m 1,6 km/h (1 Bft) S 180 0 min 0,000 mm 0,0 UV-I 0 W/m 8,2 C 13,6 C 4,8 km/h (1 Bft) 100,00 %
03.06.2023 00:40 13,7 C 70 % 1018,1 hPa 0,0 l/m 1,6 km/h (1 Bft) S-SO 157 0 min 0,000 mm 0,0 UV-I 0 W/m 8,3 C 13,7 C 6,4 km/h (2 Bft) 100,00 %
03.06.2023 00:39 13,7 C 70 % 1018,1 hPa 0,0 l/m 3,2 km/h (1 Bft) S-SO 157 0 min 0,000 mm 0,0 UV-I 0 W/m 8,3 C 13,7 C 4,8 km/h (1 Bft) 100,00 %
03.06.2023 00:38 13,7 C 70 % 1018,1 hPa 0,0 l/m 1,6 km/h (1 Bft) SO 135 0 min 0,000 mm 0,0 UV-I 0 W/m 8,3 C 13,7 C 4,8 km/h (1 Bft) 100,00 %
03.06.2023 00:37 13,8 C 69 % 1018,0 hPa 0,0 l/m 0,0 km/h (0 Bft) SO 135 0 min 0,000 mm 0,0 UV-I 0 W/m 8,2 C 13,8 C 1,6 km/h (1 Bft) 100,00 %
03.06.2023 00:36 13,8 C 69 % 1018,0 hPa 0,0 l/m 1,6 km/h (1 Bft) SO 135 0 min 0,000 mm 0,0 UV-I 0 W/m 8,2 C 13,8 C 3,2 km/h (1 Bft) 95,65 %
03.06.2023 00:35 13,7 C 69 % 1018,0 hPa 0,0 l/m 1,6 km/h (1 Bft) SO 135 0 min 0,000 mm 0,0 UV-I 0 W/m 8,1 C 13,7 C 3,2 km/h (1 Bft) 100,00 %
03.06.2023 00:34 13,8 C 69 % 1018,0 hPa 0,0 l/m 0,0 km/h (0 Bft) SO 135 0 min 0,000 mm 0,0 UV-I 0 W/m 8,2 C 13,8 C 1,6 km/h (1 Bft) 95,65 %
03.06.2023 00:33 13,8 C 69 % 1018,0 hPa 0,0 l/m 1,6 km/h (1 Bft) SO 135 0 min 0,000 mm 0,0 UV-I 0 W/m 8,2 C 13,8 C 4,8 km/h (1 Bft) 95,65 %
03.06.2023 00:32 13,8 C 69 % 1018,0 hPa 0,0 l/m 3,2 km/h (1 Bft) N 360 0 min 0,000 mm 0,0 UV-I 0 W/m 8,2 C 13,8 C 4,8 km/h (1 Bft) 100,00 %
03.06.2023 00:31 13,8 C 68 % 1018,0 hPa 0,0 l/m 1,6 km/h (1 Bft) N-NW 337 0 min 0,000 mm 0,0 UV-I 0 W/m 8,0 C 13,8 C 4,8 km/h (1 Bft) 100,00 %
03.06.2023 00:30 13,8 C 68 % 1018,0 hPa 0,0 l/m 3,2 km/h (1 Bft) O-NO 67 0 min 0,000 mm 0,0 UV-I 0 W/m 8,0 C 13,8 C 4,8 km/h (1 Bft) 100,00 %
03.06.2023 00:29 13,8 C 68 % 1018,1 hPa 0,0 l/m 1,6 km/h (1 Bft) O-NO 67 0 min 0,000 mm 0,0 UV-I 0 W/m 8,0 C 13,8 C 1,6 km/h (1 Bft) 95,65 %
03.06.2023 00:28 13,8 C 67 % 1018,0 hPa 0,0 l/m 1,6 km/h (1 Bft) O-NO 67 0 min 0,000 mm 0,0 UV-I 0 W/m 7,8 C 13,8 C 1,6 km/h (1 Bft) 100,00 %
03.06.2023 00:27 13,8 C 68 % 1018,0 hPa 0,0 l/m 1,6 km/h (1 Bft) O-NO 67 0 min 0,000 mm 0,0 UV-I 0 W/m 8,0 C 13,8 C 3,2 km/h (1 Bft) 100,00 %
03.06.2023 00:26 13,8 C 68 % 1018,0 hPa 0,0 l/m 0,0 km/h (0 Bft) O-NO 67 0 min 0,000 mm 0,0 UV-I 0 W/m 8,0 C 13,8 C 1,6 km/h (1 Bft) 100,00 %
03.06.2023 00:25 13,8 C 68 % 1018,1 hPa 0,0 l/m 3,2 km/h (1 Bft) O-NO 67 0 min 0,000 mm 0,0 UV-I 0 W/m 8,0 C 13,8 C 4,8 km/h (1 Bft) 100,00 %
03.06.2023 00:24 13,8 C 68 % 1017,9 hPa 0,0 l/m 1,6 km/h (1 Bft) O-NO 67 0 min 0,000 mm 0,0 UV-I 0 W/m 8,0 C 13,8 C 3,2 km/h (1 Bft) 100,00 %
03.06.2023 00:23 13,8 C 68 % 1018,0 hPa 0,0 l/m 1,6 km/h (1 Bft) O-NO 67 0 min 0,000 mm 0,0 UV-I 0 W/m 8,0 C 13,8 C 3,2 km/h (1 Bft) 100,00 %
03.06.2023 00:22 13,9 C 68 % 1018,0 hPa 0,0 l/m 1,6 km/h (1 Bft) N 360 0 min 0,000 mm 0,0 UV-I 0 W/m 8,1 C 13,9 C 3,2 km/h (1 Bft) 91,30 %
03.06.2023 00:21 13,9 C 67 % 1018,0 hPa 0,0 l/m 1,6 km/h (1 Bft) N 360 0 min 0,000 mm 0,0 UV-I 0 W/m 7,9 C 13,9 C 3,2 km/h (1 Bft) 95,65 %
03.06.2023 00:20 13,9 C 67 % 1018,0 hPa 0,0 l/m 0,0 km/h (0 Bft) NO 45 0 min 0,000 mm 0,0 UV-I 0 W/m 7,9 C 13,9 C 1,6 km/h (1 Bft) 95,65 %
03.06.2023 00:19 13,9 C 67 % 1018,0 hPa 0,0 l/m 1,6 km/h (1 Bft) NO 45 0 min 0,000 mm 0,0 UV-I 0 W/m 7,9 C 13,9 C 3,2 km/h (1 Bft) 100,00 %
03.06.2023 00:18 14,0 C 67 % 1018,0 hPa 0,0 l/m 1,6 km/h (1 Bft) NO 45 0 min 0,000 mm 0,0 UV-I 0 W/m 8,0 C 14,0 C 3,2 km/h (1 Bft) 95,65 %
03.06.2023 00:17 13,9 C 67 % 1017,9 hPa 0,0 l/m 3,2 km/h (1 Bft) NO 45 0 min 0,000 mm 0,0 UV-I 0 W/m 7,9 C 13,9 C 4,8 km/h (1 Bft) 100,00 %
03.06.2023 00:16 13,9 C 67 % 1017,9 hPa 0,0 l/m 0,0 km/h (0 Bft) O 90 0 min 0,000 mm 0,0 UV-I 0 W/m 7,9 C 13,9 C 1,6 km/h (1 Bft) 100,00 %
03.06.2023 00:15 14,0 C 67 % 1017,9 hPa 0,0 l/m 1,6 km/h (1 Bft) O 90 0 min 0,000 mm 0,0 UV-I 0 W/m 8,0 C 14,0 C 3,2 km/h (1 Bft) 95,65 %
03.06.2023 00:14 13,9 C 67 % 1017,9 hPa 0,0 l/m 1,6 km/h (1 Bft) O 90 0 min 0,000 mm 0,0 UV-I 0 W/m 7,9 C 13,9 C 3,2 km/h (1 Bft) 100,00 %
03.06.2023 00:13 14,0 C 67 % 1017,8 hPa 0,0 l/m 3,2 km/h (1 Bft) O 90 0 min 0,000 mm 0,0 UV-I 0 W/m 8,0 C 14,0 C 6,4 km/h (2 Bft) 95,65 %
03.06.2023 00:12 14,0 C 67 % 1017,9 hPa 0,0 l/m 3,2 km/h (1 Bft) N-NW 337 0 min 0,000 mm 0,0 UV-I 0 W/m 8,0 C 14,0 C 6,4 km/h (2 Bft) 100,00 %
03.06.2023 00:11 14,1 C 67 % 1017,9 hPa 0,0 l/m 1,6 km/h (1 Bft) N 360 0 min 0,000 mm 0,0 UV-I 0 W/m 8,1 C 14,1 C 3,2 km/h (1 Bft) 100,00 %
03.06.2023 00:10 14,1 C 67 % 1018,0 hPa 0,0 l/m 3,2 km/h (1 Bft) N 360 0 min 0,000 mm 0,0 UV-I 0 W/m 8,1 C 14,1 C 3,2 km/h (1 Bft) 100,00 %
03.06.2023 00:09 14,1 C 66 % 1017,8 hPa 0,0 l/m 1,6 km/h (1 Bft) N 360 0 min 0,000 mm 0,0 UV-I 0 W/m 7,8 C 14,1 C 3,2 km/h (1 Bft) 100,00 %
03.06.2023 00:08 14,1 C 66 % 1017,9 hPa 0,0 l/m 3,2 km/h (1 Bft) N 360 0 min 0,000 mm 0,0 UV-I 0 W/m 7,8 C 14,1 C 4,8 km/h (1 Bft) 95,65 %
03.06.2023 00:07 14,1 C 66 % 1017,8 hPa 0,0 l/m 1,6 km/h (1 Bft) N 360 0 min 0,000 mm 0,0 UV-I 0 W/m 7,8 C 14,1 C 3,2 km/h (1 Bft) 100,00 %
03.06.2023 00:06 14,1 C 67 % 1017,8 hPa 0,0 l/m 1,6 km/h (1 Bft) N 360 0 min 0,000 mm 0,0 UV-I 0 W/m 8,1 C 14,1 C 4,8 km/h (1 Bft) 100,00 %
03.06.2023 00:05 14,1 C 67 % 1017,8 hPa 0,0 l/m 3,2 km/h (1 Bft) N 360 0 min 0,000 mm 0,0 UV-I 0 W/m 8,1 C 14,1 C 6,4 km/h (2 Bft) 95,65 %
03.06.2023 00:04 14,2 C 67 % 1017,9 hPa 0,0 l/m 4,8 km/h (1 Bft) N 360 0 min 0,000 mm 0,0 UV-I 0 W/m 8,2 C 14,2 C 6,4 km/h (2 Bft) 100,00 %
03.06.2023 00:03 14,2 C 66 % 1017,9 hPa 0,0 l/m 4,8 km/h (1 Bft) N 360 0 min 0,000 mm 0,0 UV-I 0 W/m 7,9 C 14,2 C 12,9 km/h (3 Bft) 100,00 %
03.06.2023 00:02 14,2 C 66 % 1017,8 hPa 0,0 l/m 3,2 km/h (1 Bft) N 360 0 min 0,000 mm 0,0 UV-I 0 W/m 7,9 C 14,2 C 6,4 km/h (2 Bft) 100,00 %
03.06.2023 00:01 14,2 C 66 % 1017,8 hPa 0,0 l/m 1,6 km/h (1 Bft) O 90 0 min 0,000 mm 0,0 UV-I 0 W/m 7,9 C 14,2 C 3,2 km/h (1 Bft) 95,65 %
03.06.2023 00:00 14,3 C 66 % 1017,7 hPa 0,0 l/m 4,8 km/h (1 Bft) O-NO 67 0 min 0,051 mm 0,0 UV-I 0 W/m 8,0 C 14,3 C 12,9 km/h (3 Bft) 95,65 %
_ Min-Zeit 04:41 17:11 00:00 - 00:16 - - - - - - 08:46 04:59 00:16 01:39
Minimum _ 9,7 C 44 % 1017,7 hPa - 0,0 km/h (0 Bft) - - - - - - 4,6 C 8,7 C 1,6 km/h (1 Bft) 86,96 %
_ Max-Zeit 14:57 04:38 11:58 00:00 10:52 - - 06:43 15:00 13:23 12:52 15:21 14:57 14:54 00:02
Maximum _ 19,4 C 76 % 1019,7 hPa 0,0 l/m 16,1 km/h
O-SO (3 Bft)
- - 1 min 0,533 mm 6,1 UV-I 1065 W/m 11,0 C 19,4 C 24,1 km/h
SO (4 Bft)
100,00 %
Durchschnitt _ 14,1 C 63 % 1018,7 hPa #0,0 l/m 4,9 km/h (1 Bft) SO - #10:48 h #4,113 mm 3,5 UV-I 563 W/m 6,9 C 14,1 C 9,3 km/h (2 Bft) 97,84 %